<?xml version="1.0" encoding="UTF-8"?>
<gpx version="1.1" creator="Endomondo.com" xsi:schemaLocation="http://www.topografix.com/GPX/1/1 http://www.topografix.com/GPX/1/1/gpx.xsd http://www.garmin.com/xmlschemas/GpxExtensions/v3 http://www.garmin.com/xmlschemas/GpxExtensionsv3.xsd http://www.garmin.com/xmlschemas/TrackPointExtension/v1 http://www.garmin.com/xmlschemas/TrackPointExtensionv1.xsd" xmlns="http://www.topografix.com/GPX/1/1" xmlns:gpxtpx="http://www.garmin.com/xmlschemas/TrackPointExtension/v1" xmlns:gpxx="http://www.garmin.com/xmlschemas/GpxExtensions/v3" xmlns:xsi="http://www.w3.org/2001/XMLSchema-instance">
  <metadata>
    <author>
      <name>jose manuel</name>
      <email id="jmanuelguerrero" domain="gmail.com"/>
    </author>
    <link href="http://www.endomondo.com">
      <text>Endomondo</text>
    </link>
    <time>2016-08-30T23:10:22Z</time>
  </metadata>
  <trk>
    <src>http://www.endomondo.com/</src>
    <link href="https://www.endomondo.com/workouts/795990624/159315">
      <text>endomondo</text>
    </link>
    <type>HIKING</type>
    <trkseg>
      <trkpt lat="42.8732958" lon="-5.374941">
        <time>2016-08-30T14:49:53Z</time>
      </trkpt>
      <trkpt lat="42.8732958" lon="-5.374941">
        <ele>803.0</ele>
        <time>2016-08-30T14:49:55Z</time>
      </trkpt>
      <trkpt lat="42.873257" lon="-5.3748871">
        <ele>1552.8</ele>
        <time>2016-08-30T14:50:40Z</time>
      </trkpt>
      <trkpt lat="42.8732921" lon="-5.3748342">
        <ele>1552.8</ele>
        <time>2016-08-30T14:50:50Z</time>
      </trkpt>
      <trkpt lat="42.8732514" lon="-5.3748727">
        <ele>1552.1</ele>
        <time>2016-08-30T14:51:35Z</time>
      </trkpt>
      <trkpt lat="42.8732691" lon="-5.3749384">
        <ele>1551.8</ele>
        <time>2016-08-30T14:51:40Z</time>
      </trkpt>
      <trkpt lat="42.8732171" lon="-5.3749024">
        <ele>1548.9</ele>
        <time>2016-08-30T14:57:21Z</time>
      </trkpt>
      <trkpt lat="42.8731722" lon="-5.3748877">
        <ele>1544.7</ele>
        <time>2016-08-30T15:00:22Z</time>
      </trkpt>
      <trkpt lat="42.8731874" lon="-5.3748249">
        <ele>1543.3</ele>
        <time>2016-08-30T15:01:55Z</time>
      </trkpt>
      <trkpt lat="42.8730652" lon="-5.3747279">
        <ele>1543.3</ele>
        <time>2016-08-30T15:01:59Z</time>
      </trkpt>
      <trkpt lat="42.8729479" lon="-5.3745642">
        <ele>1543.3</ele>
        <time>2016-08-30T15:02:02Z</time>
      </trkpt>
      <trkpt lat="42.8727863" lon="-5.3745029">
        <ele>1543.3</ele>
        <time>2016-08-30T15:02:05Z</time>
      </trkpt>
      <trkpt lat="42.8726228" lon="-5.3744647">
        <ele>1543.3</ele>
        <time>2016-08-30T15:02:08Z</time>
      </trkpt>
      <trkpt lat="42.8724543" lon="-5.3744766">
        <ele>1543.3</ele>
        <time>2016-08-30T15:02:12Z</time>
      </trkpt>
      <trkpt lat="42.8723058" lon="-5.3744974">
        <ele>1543.2</ele>
        <time>2016-08-30T15:02:15Z</time>
      </trkpt>
      <trkpt lat="42.8721878" lon="-5.3745476">
        <ele>1543.1</ele>
        <time>2016-08-30T15:02:17Z</time>
      </trkpt>
      <trkpt lat="42.8720639" lon="-5.3746296">
        <ele>1543.1</ele>
        <time>2016-08-30T15:02:19Z</time>
      </trkpt>
      <trkpt lat="42.8719538" lon="-5.3746396">
        <ele>1543.1</ele>
        <time>2016-08-30T15:02:22Z</time>
      </trkpt>
      <trkpt lat="42.8717767" lon="-5.3746881">
        <ele>1542.8</ele>
        <time>2016-08-30T15:02:26Z</time>
      </trkpt>
      <trkpt lat="42.8715975" lon="-5.3747328">
        <ele>1542.0</ele>
        <time>2016-08-30T15:02:29Z</time>
      </trkpt>
      <trkpt lat="42.8714108" lon="-5.374843">
        <ele>1539.7</ele>
        <time>2016-08-30T15:02:32Z</time>
      </trkpt>
      <trkpt lat="42.871316" lon="-5.3749417">
        <ele>1539.1</ele>
        <time>2016-08-30T15:02:34Z</time>
      </trkpt>
      <trkpt lat="42.8711616" lon="-5.3750027">
        <ele>1538.2</ele>
        <time>2016-08-30T15:02:38Z</time>
      </trkpt>
      <trkpt lat="42.8710517" lon="-5.3750552">
        <ele>1537.6</ele>
        <time>2016-08-30T15:02:41Z</time>
      </trkpt>
      <trkpt lat="42.8709635" lon="-5.3752006">
        <ele>1537.4</ele>
        <time>2016-08-30T15:02:44Z</time>
      </trkpt>
      <trkpt lat="42.8709115" lon="-5.3753899">
        <ele>1536.8</ele>
        <time>2016-08-30T15:02:47Z</time>
      </trkpt>
      <trkpt lat="42.8708806" lon="-5.3755733">
        <ele>1536.4</ele>
        <time>2016-08-30T15:02:49Z</time>
      </trkpt>
      <trkpt lat="42.8708419" lon="-5.3757655">
        <ele>1535.4</ele>
        <time>2016-08-30T15:02:52Z</time>
      </trkpt>
      <trkpt lat="42.8707952" lon="-5.3759718">
        <ele>1533.7</ele>
        <time>2016-08-30T15:02:55Z</time>
      </trkpt>
      <trkpt lat="42.870723" lon="-5.3762149">
        <ele>1530.7</ele>
        <time>2016-08-30T15:02:58Z</time>
      </trkpt>
      <trkpt lat="42.8706486" lon="-5.3764223">
        <ele>1528.7</ele>
        <time>2016-08-30T15:03:01Z</time>
      </trkpt>
      <trkpt lat="42.8705882" lon="-5.3766241">
        <ele>1527.2</ele>
        <time>2016-08-30T15:03:04Z</time>
      </trkpt>
      <trkpt lat="42.8705781" lon="-5.3768111">
        <ele>1526.8</ele>
        <time>2016-08-30T15:03:06Z</time>
      </trkpt>
      <trkpt lat="42.8705117" lon="-5.3770048">
        <ele>1525.9</ele>
        <time>2016-08-30T15:03:09Z</time>
      </trkpt>
      <trkpt lat="42.8703698" lon="-5.3770038">
        <ele>1524.4</ele>
        <time>2016-08-30T15:03:11Z</time>
      </trkpt>
      <trkpt lat="42.8702926" lon="-5.3769235">
        <ele>1523.3</ele>
        <time>2016-08-30T15:03:12Z</time>
      </trkpt>
      <trkpt lat="42.8701983" lon="-5.3766908">
        <ele>1522.9</ele>
        <time>2016-08-30T15:03:14Z</time>
      </trkpt>
      <trkpt lat="42.870217" lon="-5.3764108">
        <ele>1521.8</ele>
        <time>2016-08-30T15:03:16Z</time>
      </trkpt>
      <trkpt lat="42.8702764" lon="-5.3761588">
        <ele>1521.0</ele>
        <time>2016-08-30T15:03:18Z</time>
      </trkpt>
      <trkpt lat="42.8702849" lon="-5.3759214">
        <ele>1520.0</ele>
        <time>2016-08-30T15:03:20Z</time>
      </trkpt>
      <trkpt lat="42.8702829" lon="-5.3756976">
        <ele>1519.1</ele>
        <time>2016-08-30T15:03:22Z</time>
      </trkpt>
      <trkpt lat="42.8701705" lon="-5.3755205">
        <ele>1517.2</ele>
        <time>2016-08-30T15:03:25Z</time>
      </trkpt>
      <trkpt lat="42.8700794" lon="-5.3755676">
        <ele>1514.3</ele>
        <time>2016-08-30T15:03:27Z</time>
      </trkpt>
      <trkpt lat="42.8700488" lon="-5.375803">
        <ele>1511.4</ele>
        <time>2016-08-30T15:03:30Z</time>
      </trkpt>
      <trkpt lat="42.8699805" lon="-5.3760151">
        <ele>1510.5</ele>
        <time>2016-08-30T15:03:33Z</time>
      </trkpt>
      <trkpt lat="42.8699451" lon="-5.3762155">
        <ele>1508.4</ele>
        <time>2016-08-30T15:03:36Z</time>
      </trkpt>
      <trkpt lat="42.869951" lon="-5.3764495">
        <ele>1507.7</ele>
        <time>2016-08-30T15:03:39Z</time>
      </trkpt>
      <trkpt lat="42.8699558" lon="-5.3766705">
        <ele>1507.0</ele>
        <time>2016-08-30T15:03:42Z</time>
      </trkpt>
      <trkpt lat="42.8700194" lon="-5.376907">
        <ele>1505.5</ele>
        <time>2016-08-30T15:03:45Z</time>
      </trkpt>
      <trkpt lat="42.8700245" lon="-5.3771159">
        <ele>1503.9</ele>
        <time>2016-08-30T15:03:48Z</time>
      </trkpt>
      <trkpt lat="42.8698381" lon="-5.3771987">
        <ele>1503.2</ele>
        <time>2016-08-30T15:03:51Z</time>
      </trkpt>
      <trkpt lat="42.8697485" lon="-5.3771618">
        <ele>1502.3</ele>
        <time>2016-08-30T15:03:52Z</time>
      </trkpt>
      <trkpt lat="42.8696767" lon="-5.3770843">
        <ele>1502.1</ele>
        <time>2016-08-30T15:03:53Z</time>
      </trkpt>
      <trkpt lat="42.869582" lon="-5.3768952">
        <ele>1502.0</ele>
        <time>2016-08-30T15:03:55Z</time>
      </trkpt>
      <trkpt lat="42.8695327" lon="-5.3766888">
        <ele>1501.8</ele>
        <time>2016-08-30T15:03:57Z</time>
      </trkpt>
      <trkpt lat="42.8695047" lon="-5.3764298">
        <ele>1501.4</ele>
        <time>2016-08-30T15:03:59Z</time>
      </trkpt>
      <trkpt lat="42.8694596" lon="-5.3761732">
        <ele>1501.2</ele>
        <time>2016-08-30T15:04:01Z</time>
      </trkpt>
      <trkpt lat="42.869357" lon="-5.3760177">
        <ele>1500.1</ele>
        <time>2016-08-30T15:04:03Z</time>
      </trkpt>
      <trkpt lat="42.8691904" lon="-5.3759837">
        <ele>1498.8</ele>
        <time>2016-08-30T15:04:05Z</time>
      </trkpt>
      <trkpt lat="42.8690789" lon="-5.3760661">
        <ele>1497.6</ele>
        <time>2016-08-30T15:04:07Z</time>
      </trkpt>
      <trkpt lat="42.8689974" lon="-5.3762614">
        <ele>1496.4</ele>
        <time>2016-08-30T15:04:11Z</time>
      </trkpt>
      <trkpt lat="42.8690075" lon="-5.3764479">
        <ele>1495.5</ele>
        <time>2016-08-30T15:04:14Z</time>
      </trkpt>
      <trkpt lat="42.8689523" lon="-5.3766229">
        <ele>1495.3</ele>
        <time>2016-08-30T15:04:17Z</time>
      </trkpt>
      <trkpt lat="42.8688571" lon="-5.3767998">
        <ele>1495.3</ele>
        <time>2016-08-30T15:04:21Z</time>
      </trkpt>
      <trkpt lat="42.8688183" lon="-5.3770087">
        <ele>1495.3</ele>
        <time>2016-08-30T15:04:24Z</time>
      </trkpt>
      <trkpt lat="42.868691" lon="-5.3771769">
        <ele>1495.3</ele>
        <time>2016-08-30T15:04:28Z</time>
      </trkpt>
      <trkpt lat="42.8685791" lon="-5.3770463">
        <ele>1495.9</ele>
        <time>2016-08-30T15:04:30Z</time>
      </trkpt>
      <trkpt lat="42.8685368" lon="-5.3767634">
        <ele>1496.6</ele>
        <time>2016-08-30T15:04:32Z</time>
      </trkpt>
      <trkpt lat="42.8686161" lon="-5.3764645">
        <ele>1497.1</ele>
        <time>2016-08-30T15:04:34Z</time>
      </trkpt>
      <trkpt lat="42.8687463" lon="-5.3761859">
        <ele>1498.0</ele>
        <time>2016-08-30T15:04:36Z</time>
      </trkpt>
      <trkpt lat="42.8688976" lon="-5.3759208">
        <ele>1498.8</ele>
        <time>2016-08-30T15:04:38Z</time>
      </trkpt>
      <trkpt lat="42.8690383" lon="-5.3756554">
        <ele>1500.1</ele>
        <time>2016-08-30T15:04:40Z</time>
      </trkpt>
      <trkpt lat="42.8690975" lon="-5.3753681">
        <ele>1500.9</ele>
        <time>2016-08-30T15:04:42Z</time>
      </trkpt>
      <trkpt lat="42.8691066" lon="-5.3751217">
        <ele>1501.6</ele>
        <time>2016-08-30T15:04:44Z</time>
      </trkpt>
      <trkpt lat="42.86909" lon="-5.374858">
        <ele>1501.9</ele>
        <time>2016-08-30T15:04:46Z</time>
      </trkpt>
      <trkpt lat="42.869001" lon="-5.3746748">
        <ele>1503.5</ele>
        <time>2016-08-30T15:04:48Z</time>
      </trkpt>
      <trkpt lat="42.8688625" lon="-5.3746739">
        <ele>1508.8</ele>
        <time>2016-08-30T15:04:50Z</time>
      </trkpt>
      <trkpt lat="42.8687891" lon="-5.374849">
        <ele>1514.8</ele>
        <time>2016-08-30T15:04:54Z</time>
      </trkpt>
      <trkpt lat="42.8687818" lon="-5.3751061">
        <ele>1520.1</ele>
        <time>2016-08-30T15:04:57Z</time>
      </trkpt>
      <trkpt lat="42.8688622" lon="-5.3752871">
        <ele>1522.1</ele>
        <time>2016-08-30T15:04:59Z</time>
      </trkpt>
      <trkpt lat="42.8689517" lon="-5.3754301">
        <ele>1523.1</ele>
        <time>2016-08-30T15:05:01Z</time>
      </trkpt>
      <trkpt lat="42.8690172" lon="-5.3756065">
        <ele>1523.6</ele>
        <time>2016-08-30T15:05:03Z</time>
      </trkpt>
      <trkpt lat="42.8691124" lon="-5.375789">
        <ele>1524.5</ele>
        <time>2016-08-30T15:05:05Z</time>
      </trkpt>
      <trkpt lat="42.8692111" lon="-5.3759291">
        <ele>1527.3</ele>
        <time>2016-08-30T15:05:07Z</time>
      </trkpt>
      <trkpt lat="42.869334" lon="-5.3760396">
        <ele>1530.3</ele>
        <time>2016-08-30T15:05:09Z</time>
      </trkpt>
      <trkpt lat="42.8694816" lon="-5.376159">
        <ele>1535.0</ele>
        <time>2016-08-30T15:05:11Z</time>
      </trkpt>
      <trkpt lat="42.8696086" lon="-5.3762693">
        <ele>1539.6</ele>
        <time>2016-08-30T15:05:13Z</time>
      </trkpt>
      <trkpt lat="42.8697489" lon="-5.3764288">
        <ele>1545.3</ele>
        <time>2016-08-30T15:05:16Z</time>
      </trkpt>
      <trkpt lat="42.8697699" lon="-5.3766434">
        <ele>1547.4</ele>
        <time>2016-08-30T15:05:19Z</time>
      </trkpt>
      <trkpt lat="42.8696437" lon="-5.376723">
        <ele>1548.3</ele>
        <time>2016-08-30T15:05:22Z</time>
      </trkpt>
      <trkpt lat="42.8694789" lon="-5.3765853">
        <ele>1549.8</ele>
        <time>2016-08-30T15:05:25Z</time>
      </trkpt>
      <trkpt lat="42.8694042" lon="-5.3763609">
        <ele>1550.7</ele>
        <time>2016-08-30T15:05:27Z</time>
      </trkpt>
      <trkpt lat="42.8694348" lon="-5.3761032">
        <ele>1553.0</ele>
        <time>2016-08-30T15:05:29Z</time>
      </trkpt>
      <trkpt lat="42.8695443" lon="-5.3758776">
        <ele>1555.1</ele>
        <time>2016-08-30T15:05:31Z</time>
      </trkpt>
      <trkpt lat="42.869704" lon="-5.3756534">
        <ele>1556.1</ele>
        <time>2016-08-30T15:05:33Z</time>
      </trkpt>
      <trkpt lat="42.8699023" lon="-5.3754241">
        <ele>1557.0</ele>
        <time>2016-08-30T15:05:35Z</time>
      </trkpt>
      <trkpt lat="42.8700157" lon="-5.3751295">
        <ele>1560.0</ele>
        <time>2016-08-30T15:05:37Z</time>
      </trkpt>
      <trkpt lat="42.8700328" lon="-5.3748552">
        <ele>1562.9</ele>
        <time>2016-08-30T15:05:39Z</time>
      </trkpt>
      <trkpt lat="42.8699709" lon="-5.3746086">
        <ele>1564.5</ele>
        <time>2016-08-30T15:05:41Z</time>
      </trkpt>
      <trkpt lat="42.8698506" lon="-5.3744485">
        <ele>1565.2</ele>
        <time>2016-08-30T15:05:43Z</time>
      </trkpt>
      <trkpt lat="42.8697478" lon="-5.3744571">
        <ele>1565.6</ele>
        <time>2016-08-30T15:05:45Z</time>
      </trkpt>
      <trkpt lat="42.8697292" lon="-5.374602">
        <ele>1566.4</ele>
        <time>2016-08-30T15:05:47Z</time>
      </trkpt>
      <trkpt lat="42.8698686" lon="-5.3747984">
        <ele>1566.8</ele>
        <time>2016-08-30T15:05:50Z</time>
      </trkpt>
      <trkpt lat="42.8700147" lon="-5.3749139">
        <ele>1567.0</ele>
        <time>2016-08-30T15:05:52Z</time>
      </trkpt>
      <trkpt lat="42.8700986" lon="-5.3750681">
        <ele>1567.1</ele>
        <time>2016-08-30T15:05:54Z</time>
      </trkpt>
      <trkpt lat="42.8701362" lon="-5.3753035">
        <ele>1567.2</ele>
        <time>2016-08-30T15:05:57Z</time>
      </trkpt>
      <trkpt lat="42.8701619" lon="-5.3754936">
        <ele>1567.2</ele>
        <time>2016-08-30T15:06:00Z</time>
      </trkpt>
      <trkpt lat="42.8701935" lon="-5.3757102">
        <ele>1567.2</ele>
        <time>2016-08-30T15:06:03Z</time>
      </trkpt>
      <trkpt lat="42.8702529" lon="-5.3759822">
        <ele>1567.2</ele>
        <time>2016-08-30T15:06:06Z</time>
      </trkpt>
      <trkpt lat="42.8703145" lon="-5.3761503">
        <ele>1567.2</ele>
        <time>2016-08-30T15:06:08Z</time>
      </trkpt>
      <trkpt lat="42.8703572" lon="-5.3763977">
        <ele>1567.2</ele>
        <time>2016-08-30T15:06:11Z</time>
      </trkpt>
      <trkpt lat="42.8702671" lon="-5.3765614">
        <ele>1567.1</ele>
        <time>2016-08-30T15:06:14Z</time>
      </trkpt>
      <trkpt lat="42.8701403" lon="-5.3764887">
        <ele>1566.8</ele>
        <time>2016-08-30T15:06:16Z</time>
      </trkpt>
      <trkpt lat="42.8700408" lon="-5.3762842">
        <ele>1566.3</ele>
        <time>2016-08-30T15:06:18Z</time>
      </trkpt>
      <trkpt lat="42.8700353" lon="-5.3760011">
        <ele>1565.9</ele>
        <time>2016-08-30T15:06:20Z</time>
      </trkpt>
      <trkpt lat="42.8701066" lon="-5.3756943">
        <ele>1565.5</ele>
        <time>2016-08-30T15:06:22Z</time>
      </trkpt>
      <trkpt lat="42.8701908" lon="-5.3753839">
        <ele>1565.3</ele>
        <time>2016-08-30T15:06:24Z</time>
      </trkpt>
      <trkpt lat="42.8702149" lon="-5.3750739">
        <ele>1563.7</ele>
        <time>2016-08-30T15:06:26Z</time>
      </trkpt>
      <trkpt lat="42.8701934" lon="-5.3747642">
        <ele>1562.6</ele>
        <time>2016-08-30T15:06:28Z</time>
      </trkpt>
      <trkpt lat="42.8701668" lon="-5.374459">
        <ele>1562.1</ele>
        <time>2016-08-30T15:06:30Z</time>
      </trkpt>
      <trkpt lat="42.8701341" lon="-5.374228">
        <ele>1560.9</ele>
        <time>2016-08-30T15:06:32Z</time>
      </trkpt>
      <trkpt lat="42.8701198" lon="-5.3740043">
        <ele>1558.7</ele>
        <time>2016-08-30T15:06:34Z</time>
      </trkpt>
      <trkpt lat="42.8701443" lon="-5.3737373">
        <ele>1557.2</ele>
        <time>2016-08-30T15:06:36Z</time>
      </trkpt>
      <trkpt lat="42.8701451" lon="-5.3734722">
        <ele>1555.3</ele>
        <time>2016-08-30T15:06:38Z</time>
      </trkpt>
      <trkpt lat="42.8701123" lon="-5.3731849">
        <ele>1552.9</ele>
        <time>2016-08-30T15:06:40Z</time>
      </trkpt>
      <trkpt lat="42.8700698" lon="-5.3729407">
        <ele>1550.5</ele>
        <time>2016-08-30T15:06:42Z</time>
      </trkpt>
      <trkpt lat="42.8700204" lon="-5.3726579">
        <ele>1545.4</ele>
        <time>2016-08-30T15:06:45Z</time>
      </trkpt>
      <trkpt lat="42.8699489" lon="-5.3724481">
        <ele>1540.9</ele>
        <time>2016-08-30T15:06:47Z</time>
      </trkpt>
      <trkpt lat="42.8698839" lon="-5.3722372">
        <ele>1536.2</ele>
        <time>2016-08-30T15:06:49Z</time>
      </trkpt>
      <trkpt lat="42.8698487" lon="-5.3720114">
        <ele>1533.4</ele>
        <time>2016-08-30T15:06:51Z</time>
      </trkpt>
      <trkpt lat="42.8698121" lon="-5.3717689">
        <ele>1531.3</ele>
        <time>2016-08-30T15:06:53Z</time>
      </trkpt>
      <trkpt lat="42.8697616" lon="-5.3715255">
        <ele>1528.4</ele>
        <time>2016-08-30T15:06:55Z</time>
      </trkpt>
      <trkpt lat="42.8697104" lon="-5.3713122">
        <ele>1525.1</ele>
        <time>2016-08-30T15:06:57Z</time>
      </trkpt>
      <trkpt lat="42.8696702" lon="-5.3710982">
        <ele>1521.8</ele>
        <time>2016-08-30T15:06:59Z</time>
      </trkpt>
      <trkpt lat="42.8696207" lon="-5.3708752">
        <ele>1520.4</ele>
        <time>2016-08-30T15:07:01Z</time>
      </trkpt>
      <trkpt lat="42.8695727" lon="-5.3706522">
        <ele>1519.6</ele>
        <time>2016-08-30T15:07:03Z</time>
      </trkpt>
      <trkpt lat="42.869563" lon="-5.3704199">
        <ele>1518.9</ele>
        <time>2016-08-30T15:07:05Z</time>
      </trkpt>
      <trkpt lat="42.8695855" lon="-5.370191">
        <ele>1518.5</ele>
        <time>2016-08-30T15:07:07Z</time>
      </trkpt>
      <trkpt lat="42.8696242" lon="-5.3699379">
        <ele>1518.2</ele>
        <time>2016-08-30T15:07:09Z</time>
      </trkpt>
      <trkpt lat="42.8696642" lon="-5.3696726">
        <ele>1517.9</ele>
        <time>2016-08-30T15:07:11Z</time>
      </trkpt>
      <trkpt lat="42.8696819" lon="-5.36941">
        <ele>1517.7</ele>
        <time>2016-08-30T15:07:13Z</time>
      </trkpt>
      <trkpt lat="42.8697125" lon="-5.3691656">
        <ele>1517.3</ele>
        <time>2016-08-30T15:07:15Z</time>
      </trkpt>
      <trkpt lat="42.8697431" lon="-5.3689091">
        <ele>1517.0</ele>
        <time>2016-08-30T15:07:17Z</time>
      </trkpt>
      <trkpt lat="42.8697774" lon="-5.3686098">
        <ele>1516.5</ele>
        <time>2016-08-30T15:07:19Z</time>
      </trkpt>
      <trkpt lat="42.8698272" lon="-5.3683097">
        <ele>1516.3</ele>
        <time>2016-08-30T15:07:21Z</time>
      </trkpt>
      <trkpt lat="42.8698457" lon="-5.3680554">
        <ele>1516.2</ele>
        <time>2016-08-30T15:07:23Z</time>
      </trkpt>
      <trkpt lat="42.869837" lon="-5.3678393">
        <ele>1516.2</ele>
        <time>2016-08-30T15:07:25Z</time>
      </trkpt>
      <trkpt lat="42.8698607" lon="-5.3676037">
        <ele>1516.2</ele>
        <time>2016-08-30T15:07:27Z</time>
      </trkpt>
      <trkpt lat="42.8699206" lon="-5.3673384">
        <ele>1516.2</ele>
        <time>2016-08-30T15:07:29Z</time>
      </trkpt>
      <trkpt lat="42.8699686" lon="-5.36708">
        <ele>1516.2</ele>
        <time>2016-08-30T15:07:31Z</time>
      </trkpt>
      <trkpt lat="42.8699125" lon="-5.3668983">
        <ele>1516.2</ele>
        <time>2016-08-30T15:07:33Z</time>
      </trkpt>
      <trkpt lat="42.8697267" lon="-5.3668306">
        <ele>1516.2</ele>
        <time>2016-08-30T15:07:36Z</time>
      </trkpt>
      <trkpt lat="42.8696354" lon="-5.3669759">
        <ele>1516.2</ele>
        <time>2016-08-30T15:07:38Z</time>
      </trkpt>
      <trkpt lat="42.8696097" lon="-5.3672212">
        <ele>1516.2</ele>
        <time>2016-08-30T15:07:41Z</time>
      </trkpt>
      <trkpt lat="42.869646" lon="-5.3674711">
        <ele>1516.2</ele>
        <time>2016-08-30T15:07:43Z</time>
      </trkpt>
      <trkpt lat="42.8697355" lon="-5.3677282">
        <ele>1516.2</ele>
        <time>2016-08-30T15:07:45Z</time>
      </trkpt>
      <trkpt lat="42.8699001" lon="-5.3679135">
        <ele>1516.3</ele>
        <time>2016-08-30T15:07:47Z</time>
      </trkpt>
      <trkpt lat="42.8700854" lon="-5.3680612">
        <ele>1516.8</ele>
        <time>2016-08-30T15:07:49Z</time>
      </trkpt>
      <trkpt lat="42.8703335" lon="-5.3680546">
        <ele>1517.5</ele>
        <time>2016-08-30T15:07:51Z</time>
      </trkpt>
      <trkpt lat="42.8705469" lon="-5.3678382">
        <ele>1521.2</ele>
        <time>2016-08-30T15:07:53Z</time>
      </trkpt>
      <trkpt lat="42.8706326" lon="-5.3675445">
        <ele>1527.7</ele>
        <time>2016-08-30T15:07:55Z</time>
      </trkpt>
      <trkpt lat="42.8706092" lon="-5.367308">
        <ele>1532.6</ele>
        <time>2016-08-30T15:07:57Z</time>
      </trkpt>
      <trkpt lat="42.870509" lon="-5.3671544">
        <ele>1535.0</ele>
        <time>2016-08-30T15:07:59Z</time>
      </trkpt>
      <trkpt lat="42.8703769" lon="-5.367158">
        <ele>1536.7</ele>
        <time>2016-08-30T15:08:01Z</time>
      </trkpt>
      <trkpt lat="42.870285" lon="-5.3672762">
        <ele>1538.0</ele>
        <time>2016-08-30T15:08:03Z</time>
      </trkpt>
      <trkpt lat="42.8702214" lon="-5.36752">
        <ele>1538.8</ele>
        <time>2016-08-30T15:08:06Z</time>
      </trkpt>
      <trkpt lat="42.8702437" lon="-5.3677552">
        <ele>1540.9</ele>
        <time>2016-08-30T15:08:08Z</time>
      </trkpt>
      <trkpt lat="42.8703009" lon="-5.3679542">
        <ele>1545.8</ele>
        <time>2016-08-30T15:08:10Z</time>
      </trkpt>
      <trkpt lat="42.8702912" lon="-5.368178">
        <ele>1549.5</ele>
        <time>2016-08-30T15:08:12Z</time>
      </trkpt>
      <trkpt lat="42.87016" lon="-5.3683014">
        <ele>1554.3</ele>
        <time>2016-08-30T15:08:15Z</time>
      </trkpt>
      <trkpt lat="42.8700315" lon="-5.3681138">
        <ele>1560.3</ele>
        <time>2016-08-30T15:08:17Z</time>
      </trkpt>
      <trkpt lat="42.8700338" lon="-5.3678524">
        <ele>1566.2</ele>
        <time>2016-08-30T15:08:19Z</time>
      </trkpt>
      <trkpt lat="42.8701469" lon="-5.3676678">
        <ele>1567.2</ele>
        <time>2016-08-30T15:08:20Z</time>
      </trkpt>
      <trkpt lat="42.8703068" lon="-5.3675143">
        <ele>1568.9</ele>
        <time>2016-08-30T15:08:22Z</time>
      </trkpt>
      <trkpt lat="42.8705369" lon="-5.3674814">
        <ele>1569.7</ele>
        <time>2016-08-30T15:08:24Z</time>
      </trkpt>
      <trkpt lat="42.8707205" lon="-5.3676903">
        <ele>1572.1</ele>
        <time>2016-08-30T15:08:26Z</time>
      </trkpt>
      <trkpt lat="42.8707031" lon="-5.3679352">
        <ele>1575.8</ele>
        <time>2016-08-30T15:08:28Z</time>
      </trkpt>
      <trkpt lat="42.8705672" lon="-5.3678486">
        <ele>1581.3</ele>
        <time>2016-08-30T15:08:31Z</time>
      </trkpt>
      <trkpt lat="42.8706563" lon="-5.3676334">
        <ele>1584.5</ele>
        <time>2016-08-30T15:08:33Z</time>
      </trkpt>
      <trkpt lat="42.8708762" lon="-5.3675405">
        <ele>1589.3</ele>
        <time>2016-08-30T15:08:35Z</time>
      </trkpt>
      <trkpt lat="42.8710764" lon="-5.3676649">
        <ele>1591.6</ele>
        <time>2016-08-30T15:08:37Z</time>
      </trkpt>
      <trkpt lat="42.8711267" lon="-5.3679136">
        <ele>1596.6</ele>
        <time>2016-08-30T15:08:39Z</time>
      </trkpt>
      <trkpt lat="42.8710229" lon="-5.3680337">
        <ele>1602.4</ele>
        <time>2016-08-30T15:08:41Z</time>
      </trkpt>
      <trkpt lat="42.87091" lon="-5.3679232">
        <ele>1606.1</ele>
        <time>2016-08-30T15:08:43Z</time>
      </trkpt>
      <trkpt lat="42.8709321" lon="-5.3677215">
        <ele>1609.9</ele>
        <time>2016-08-30T15:08:45Z</time>
      </trkpt>
      <trkpt lat="42.8710691" lon="-5.3675467">
        <ele>1612.1</ele>
        <time>2016-08-30T15:08:47Z</time>
      </trkpt>
      <trkpt lat="42.8712873" lon="-5.3674971">
        <ele>1618.4</ele>
        <time>2016-08-30T15:08:49Z</time>
      </trkpt>
      <trkpt lat="42.8714563" lon="-5.3676729">
        <ele>1626.2</ele>
        <time>2016-08-30T15:08:51Z</time>
      </trkpt>
      <trkpt lat="42.8714651" lon="-5.3679135">
        <ele>1631.0</ele>
        <time>2016-08-30T15:08:53Z</time>
      </trkpt>
      <trkpt lat="42.8713177" lon="-5.368032">
        <ele>1634.8</ele>
        <time>2016-08-30T15:08:56Z</time>
      </trkpt>
      <trkpt lat="42.8712652" lon="-5.3678326">
        <ele>1640.1</ele>
        <time>2016-08-30T15:08:59Z</time>
      </trkpt>
      <trkpt lat="42.8713636" lon="-5.367641">
        <ele>1644.8</ele>
        <time>2016-08-30T15:09:01Z</time>
      </trkpt>
      <trkpt lat="42.871573" lon="-5.367558">
        <ele>1648.5</ele>
        <time>2016-08-30T15:09:03Z</time>
      </trkpt>
      <trkpt lat="42.8717754" lon="-5.3676753">
        <ele>1652.6</ele>
        <time>2016-08-30T15:09:05Z</time>
      </trkpt>
      <trkpt lat="42.8718223" lon="-5.367914">
        <ele>1656.2</ele>
        <time>2016-08-30T15:09:07Z</time>
      </trkpt>
      <trkpt lat="42.8716855" lon="-5.3680161">
        <ele>1658.2</ele>
        <time>2016-08-30T15:09:09Z</time>
      </trkpt>
      <trkpt lat="42.8716114" lon="-5.3677786">
        <ele>1664.5</ele>
        <time>2016-08-30T15:09:12Z</time>
      </trkpt>
      <trkpt lat="42.8716879" lon="-5.3675959">
        <ele>1666.9</ele>
        <time>2016-08-30T15:09:14Z</time>
      </trkpt>
      <trkpt lat="42.8718612" lon="-5.367498">
        <ele>1672.5</ele>
        <time>2016-08-30T15:09:16Z</time>
      </trkpt>
      <trkpt lat="42.8720909" lon="-5.3675774">
        <ele>1677.6</ele>
        <time>2016-08-30T15:09:18Z</time>
      </trkpt>
      <trkpt lat="42.8722043" lon="-5.3678283">
        <ele>1681.5</ele>
        <time>2016-08-30T15:09:20Z</time>
      </trkpt>
      <trkpt lat="42.8721401" lon="-5.368001">
        <ele>1684.8</ele>
        <time>2016-08-30T15:09:22Z</time>
      </trkpt>
      <trkpt lat="42.8719953" lon="-5.3680521">
        <ele>1689.0</ele>
        <time>2016-08-30T15:09:25Z</time>
      </trkpt>
      <trkpt lat="42.8719077" lon="-5.3678133">
        <ele>1697.6</ele>
        <time>2016-08-30T15:09:28Z</time>
      </trkpt>
      <trkpt lat="42.8720005" lon="-5.3676094">
        <ele>1702.7</ele>
        <time>2016-08-30T15:09:30Z</time>
      </trkpt>
      <trkpt lat="42.8722241" lon="-5.3675011">
        <ele>1706.8</ele>
        <time>2016-08-30T15:09:32Z</time>
      </trkpt>
      <trkpt lat="42.8724671" lon="-5.3676229">
        <ele>1710.5</ele>
        <time>2016-08-30T15:09:34Z</time>
      </trkpt>
      <trkpt lat="42.872613" lon="-5.3678694">
        <ele>1713.5</ele>
        <time>2016-08-30T15:09:36Z</time>
      </trkpt>
      <trkpt lat="42.8726183" lon="-5.368091">
        <ele>1716.1</ele>
        <time>2016-08-30T15:09:38Z</time>
      </trkpt>
      <trkpt lat="42.8724944" lon="-5.3681654">
        <ele>1721.8</ele>
        <time>2016-08-30T15:09:41Z</time>
      </trkpt>
      <trkpt lat="42.8723826" lon="-5.3679636">
        <ele>1731.7</ele>
        <time>2016-08-30T15:09:44Z</time>
      </trkpt>
      <trkpt lat="42.8723669" lon="-5.3677708">
        <ele>1736.6</ele>
        <time>2016-08-30T15:09:46Z</time>
      </trkpt>
      <trkpt lat="42.8722184" lon="-5.3676975">
        <ele>1738.8</ele>
        <time>2016-08-30T15:09:48Z</time>
      </trkpt>
      <trkpt lat="42.872087" lon="-5.3677037">
        <ele>1742.0</ele>
        <time>2016-08-30T15:09:50Z</time>
      </trkpt>
      <trkpt lat="42.8720228" lon="-5.3678913">
        <ele>1750.5</ele>
        <time>2016-08-30T15:09:53Z</time>
      </trkpt>
      <trkpt lat="42.8720391" lon="-5.36814">
        <ele>1757.3</ele>
        <time>2016-08-30T15:09:55Z</time>
      </trkpt>
      <trkpt lat="42.8721159" lon="-5.3683947">
        <ele>1762.2</ele>
        <time>2016-08-30T15:09:57Z</time>
      </trkpt>
      <trkpt lat="42.8722986" lon="-5.3684977">
        <ele>1766.3</ele>
        <time>2016-08-30T15:09:59Z</time>
      </trkpt>
      <trkpt lat="42.8724927" lon="-5.3684869">
        <ele>1771.1</ele>
        <time>2016-08-30T15:10:01Z</time>
      </trkpt>
      <trkpt lat="42.8726752" lon="-5.3683547">
        <ele>1775.3</ele>
        <time>2016-08-30T15:10:03Z</time>
      </trkpt>
      <trkpt lat="42.8728223" lon="-5.3681306">
        <ele>1779.9</ele>
        <time>2016-08-30T15:10:05Z</time>
      </trkpt>
      <trkpt lat="42.8728276" lon="-5.3678893">
        <ele>1785.4</ele>
        <time>2016-08-30T15:10:07Z</time>
      </trkpt>
      <trkpt lat="42.8726762" lon="-5.3678234">
        <ele>1796.2</ele>
        <time>2016-08-30T15:10:10Z</time>
      </trkpt>
      <trkpt lat="42.8726057" lon="-5.3679952">
        <ele>1802.0</ele>
        <time>2016-08-30T15:10:12Z</time>
      </trkpt>
      <trkpt lat="42.8726099" lon="-5.3682067">
        <ele>1807.2</ele>
        <time>2016-08-30T15:10:14Z</time>
      </trkpt>
      <trkpt lat="42.8726841" lon="-5.3684327">
        <ele>1814.6</ele>
        <time>2016-08-30T15:10:16Z</time>
      </trkpt>
      <trkpt lat="42.8729319" lon="-5.3685079">
        <ele>1819.6</ele>
        <time>2016-08-30T15:10:18Z</time>
      </trkpt>
      <trkpt lat="42.8731177" lon="-5.3684349">
        <ele>1826.8</ele>
        <time>2016-08-30T15:10:20Z</time>
      </trkpt>
      <trkpt lat="42.8732366" lon="-5.3682637">
        <ele>1836.2</ele>
        <time>2016-08-30T15:10:22Z</time>
      </trkpt>
      <trkpt lat="42.8732646" lon="-5.3680458">
        <ele>1841.5</ele>
        <time>2016-08-30T15:10:24Z</time>
      </trkpt>
      <trkpt lat="42.8731042" lon="-5.3680025">
        <ele>1844.6</ele>
        <time>2016-08-30T15:10:26Z</time>
      </trkpt>
      <trkpt lat="42.8730247" lon="-5.3681437">
        <ele>1850.7</ele>
        <time>2016-08-30T15:10:28Z</time>
      </trkpt>
      <trkpt lat="42.8730153" lon="-5.3684293">
        <ele>1862.5</ele>
        <time>2016-08-30T15:10:31Z</time>
      </trkpt>
      <trkpt lat="42.8730714" lon="-5.3686432">
        <ele>1869.1</ele>
        <time>2016-08-30T15:10:33Z</time>
      </trkpt>
      <trkpt lat="42.8732731" lon="-5.3687833">
        <ele>1874.8</ele>
        <time>2016-08-30T15:10:35Z</time>
      </trkpt>
      <trkpt lat="42.8735216" lon="-5.3687563">
        <ele>1879.9</ele>
        <time>2016-08-30T15:10:37Z</time>
      </trkpt>
      <trkpt lat="42.8736821" lon="-5.3685976">
        <ele>1886.1</ele>
        <time>2016-08-30T15:10:39Z</time>
      </trkpt>
      <trkpt lat="42.8737708" lon="-5.3683488">
        <ele>1891.9</ele>
        <time>2016-08-30T15:10:41Z</time>
      </trkpt>
      <trkpt lat="42.8737604" lon="-5.3681538">
        <ele>1898.0</ele>
        <time>2016-08-30T15:10:43Z</time>
      </trkpt>
      <trkpt lat="42.8736011" lon="-5.3680892">
        <ele>1903.8</ele>
        <time>2016-08-30T15:10:46Z</time>
      </trkpt>
      <trkpt lat="42.8734992" lon="-5.368096">
        <ele>1907.6</ele>
        <time>2016-08-30T15:10:48Z</time>
      </trkpt>
      <trkpt lat="42.8734742" lon="-5.3682698">
        <ele>1917.4</ele>
        <time>2016-08-30T15:10:50Z</time>
      </trkpt>
      <trkpt lat="42.8734839" lon="-5.368402">
        <ele>1917.4</ele>
        <time>2016-08-30T15:10:51Z</time>
      </trkpt>
      <trkpt lat="42.8736076" lon="-5.368647">
        <ele>1923.5</ele>
        <time>2016-08-30T15:10:53Z</time>
      </trkpt>
      <trkpt lat="42.8737879" lon="-5.3687613">
        <ele>1928.0</ele>
        <time>2016-08-30T15:10:55Z</time>
      </trkpt>
      <trkpt lat="42.8740089" lon="-5.3687422">
        <ele>1932.7</ele>
        <time>2016-08-30T15:10:57Z</time>
      </trkpt>
      <trkpt lat="42.8741761" lon="-5.3685501">
        <ele>1940.1</ele>
        <time>2016-08-30T15:10:59Z</time>
      </trkpt>
      <trkpt lat="42.8742156" lon="-5.3683207">
        <ele>1947.1</ele>
        <time>2016-08-30T15:11:01Z</time>
      </trkpt>
      <trkpt lat="42.8740923" lon="-5.3681601">
        <ele>1955.6</ele>
        <time>2016-08-30T15:11:04Z</time>
      </trkpt>
      <trkpt lat="42.8739885" lon="-5.3682481">
        <ele>1959.5</ele>
        <time>2016-08-30T15:11:06Z</time>
      </trkpt>
      <trkpt lat="42.8739402" lon="-5.3684554">
        <ele>1966.2</ele>
        <time>2016-08-30T15:11:08Z</time>
      </trkpt>
      <trkpt lat="42.8739967" lon="-5.3686846">
        <ele>1974.1</ele>
        <time>2016-08-30T15:11:10Z</time>
      </trkpt>
      <trkpt lat="42.8741502" lon="-5.3688994">
        <ele>1982.0</ele>
        <time>2016-08-30T15:11:12Z</time>
      </trkpt>
      <trkpt lat="42.8743405" lon="-5.3689512">
        <ele>1989.7</ele>
        <time>2016-08-30T15:11:14Z</time>
      </trkpt>
      <trkpt lat="42.8745614" lon="-5.3688189">
        <ele>1996.7</ele>
        <time>2016-08-30T15:11:16Z</time>
      </trkpt>
      <trkpt lat="42.8746843" lon="-5.3686027">
        <ele>2004.6</ele>
        <time>2016-08-30T15:11:18Z</time>
      </trkpt>
      <trkpt lat="42.8746799" lon="-5.368389">
        <ele>2011.7</ele>
        <time>2016-08-30T15:11:20Z</time>
      </trkpt>
      <trkpt lat="42.8745834" lon="-5.3682532">
        <ele>2017.0</ele>
        <time>2016-08-30T15:11:22Z</time>
      </trkpt>
      <trkpt lat="42.8744742" lon="-5.3681658">
        <ele>2023.8</ele>
        <time>2016-08-30T15:11:24Z</time>
      </trkpt>
      <trkpt lat="42.8743984" lon="-5.368009">
        <ele>2031.2</ele>
        <time>2016-08-30T15:11:26Z</time>
      </trkpt>
      <trkpt lat="42.8743575" lon="-5.3678221">
        <ele>2037.9</ele>
        <time>2016-08-30T15:11:28Z</time>
      </trkpt>
      <trkpt lat="42.8741714" lon="-5.3677772">
        <ele>2047.3</ele>
        <time>2016-08-30T15:11:31Z</time>
      </trkpt>
      <trkpt lat="42.87408" lon="-5.3679482">
        <ele>2055.9</ele>
        <time>2016-08-30T15:11:33Z</time>
      </trkpt>
      <trkpt lat="42.8741146" lon="-5.3682063">
        <ele>2064.0</ele>
        <time>2016-08-30T15:11:35Z</time>
      </trkpt>
      <trkpt lat="42.8742647" lon="-5.3683957">
        <ele>2071.3</ele>
        <time>2016-08-30T15:11:37Z</time>
      </trkpt>
      <trkpt lat="42.8744385" lon="-5.3684787">
        <ele>2079.1</ele>
        <time>2016-08-30T15:11:39Z</time>
      </trkpt>
      <trkpt lat="42.8747798" lon="-5.3684422">
        <ele>2091.3</ele>
        <time>2016-08-30T15:11:42Z</time>
      </trkpt>
      <trkpt lat="42.874944" lon="-5.3682711">
        <ele>2099.4</ele>
        <time>2016-08-30T15:11:44Z</time>
      </trkpt>
      <trkpt lat="42.875013" lon="-5.3681025">
        <ele>2104.4</ele>
        <time>2016-08-30T15:11:46Z</time>
      </trkpt>
      <trkpt lat="42.875037" lon="-5.3678751">
        <ele>2108.6</ele>
        <time>2016-08-30T15:11:48Z</time>
      </trkpt>
      <trkpt lat="42.8749264" lon="-5.3676781">
        <ele>2115.9</ele>
        <time>2016-08-30T15:11:51Z</time>
      </trkpt>
      <trkpt lat="42.8747993" lon="-5.3676895">
        <ele>2122.0</ele>
        <time>2016-08-30T15:11:53Z</time>
      </trkpt>
      <trkpt lat="42.874719" lon="-5.3678332">
        <ele>2129.6</ele>
        <time>2016-08-30T15:11:55Z</time>
      </trkpt>
      <trkpt lat="42.8747158" lon="-5.3680908">
        <ele>2137.9</ele>
        <time>2016-08-30T15:11:57Z</time>
      </trkpt>
      <trkpt lat="42.8748085" lon="-5.3683505">
        <ele>2145.3</ele>
        <time>2016-08-30T15:11:59Z</time>
      </trkpt>
      <trkpt lat="42.8749681" lon="-5.3685562">
        <ele>2151.5</ele>
        <time>2016-08-30T15:12:01Z</time>
      </trkpt>
      <trkpt lat="42.8751884" lon="-5.368673">
        <ele>2158.6</ele>
        <time>2016-08-30T15:12:03Z</time>
      </trkpt>
      <trkpt lat="42.8755254" lon="-5.3686723">
        <ele>2172.7</ele>
        <time>2016-08-30T15:12:06Z</time>
      </trkpt>
      <trkpt lat="42.875626" lon="-5.3686257">
        <ele>2193.3</ele>
        <time>2016-08-30T15:12:07Z</time>
      </trkpt>
      <trkpt lat="42.8757101" lon="-5.3685643">
        <ele>2193.3</ele>
        <time>2016-08-30T15:12:08Z</time>
      </trkpt>
      <trkpt lat="42.8757702" lon="-5.3684918">
        <ele>2193.3</ele>
        <time>2016-08-30T15:12:09Z</time>
      </trkpt>
      <trkpt lat="42.875813" lon="-5.3684031">
        <ele>2193.3</ele>
        <time>2016-08-30T15:12:10Z</time>
      </trkpt>
      <trkpt lat="42.8758355" lon="-5.368304">
        <ele>2193.3</ele>
        <time>2016-08-30T15:12:11Z</time>
      </trkpt>
      <trkpt lat="42.8758442" lon="-5.3680632">
        <ele>2201.1</ele>
        <time>2016-08-30T15:12:13Z</time>
      </trkpt>
      <trkpt lat="42.8758028" lon="-5.3678269">
        <ele>2206.1</ele>
        <time>2016-08-30T15:12:15Z</time>
      </trkpt>
      <trkpt lat="42.8757464" lon="-5.3676116">
        <ele>2213.5</ele>
        <time>2016-08-30T15:12:17Z</time>
      </trkpt>
      <trkpt lat="42.8756643" lon="-5.367421">
        <ele>2223.7</ele>
        <time>2016-08-30T15:12:20Z</time>
      </trkpt>
      <trkpt lat="42.8755796" lon="-5.367217">
        <ele>2235.8</ele>
        <time>2016-08-30T15:12:23Z</time>
      </trkpt>
      <trkpt lat="42.8755937" lon="-5.3670313">
        <ele>2243.7</ele>
        <time>2016-08-30T15:12:25Z</time>
      </trkpt>
      <trkpt lat="42.8757188" lon="-5.3668594">
        <ele>2265.0</ele>
        <time>2016-08-30T15:12:27Z</time>
      </trkpt>
      <trkpt lat="42.8758774" lon="-5.3666901">
        <ele>2274.1</ele>
        <time>2016-08-30T15:12:29Z</time>
      </trkpt>
      <trkpt lat="42.8759934" lon="-5.3664926">
        <ele>2281.4</ele>
        <time>2016-08-30T15:12:31Z</time>
      </trkpt>
      <trkpt lat="42.8760606" lon="-5.366274">
        <ele>2285.2</ele>
        <time>2016-08-30T15:12:33Z</time>
      </trkpt>
      <trkpt lat="42.8760781" lon="-5.3660005">
        <ele>2287.8</ele>
        <time>2016-08-30T15:12:35Z</time>
      </trkpt>
      <trkpt lat="42.876029" lon="-5.3656861">
        <ele>2289.9</ele>
        <time>2016-08-30T15:12:37Z</time>
      </trkpt>
      <trkpt lat="42.8759459" lon="-5.3654347">
        <ele>2291.3</ele>
        <time>2016-08-30T15:12:39Z</time>
      </trkpt>
      <trkpt lat="42.8758771" lon="-5.3652707">
        <ele>2292.6</ele>
        <time>2016-08-30T15:12:41Z</time>
      </trkpt>
      <trkpt lat="42.8757507" lon="-5.3650428">
        <ele>2294.9</ele>
        <time>2016-08-30T15:12:44Z</time>
      </trkpt>
      <trkpt lat="42.8756272" lon="-5.3648377">
        <ele>2297.1</ele>
        <time>2016-08-30T15:12:47Z</time>
      </trkpt>
      <trkpt lat="42.8755291" lon="-5.3646982">
        <ele>2303.3</ele>
        <time>2016-08-30T15:12:49Z</time>
      </trkpt>
      <trkpt lat="42.8754885" lon="-5.3644871">
        <ele>2310.4</ele>
        <time>2016-08-30T15:12:51Z</time>
      </trkpt>
      <trkpt lat="42.8754833" lon="-5.3642501">
        <ele>2318.6</ele>
        <time>2016-08-30T15:12:53Z</time>
      </trkpt>
      <trkpt lat="42.8755289" lon="-5.3639818">
        <ele>2325.8</ele>
        <time>2016-08-30T15:12:55Z</time>
      </trkpt>
      <trkpt lat="42.8755778" lon="-5.3636912">
        <ele>2330.9</ele>
        <time>2016-08-30T15:12:57Z</time>
      </trkpt>
      <trkpt lat="42.8756357" lon="-5.3634754">
        <ele>2332.8</ele>
        <time>2016-08-30T15:12:59Z</time>
      </trkpt>
      <trkpt lat="42.8757052" lon="-5.3632607">
        <ele>2333.8</ele>
        <time>2016-08-30T15:13:01Z</time>
      </trkpt>
      <trkpt lat="42.8757463" lon="-5.3630026">
        <ele>2334.4</ele>
        <time>2016-08-30T15:13:03Z</time>
      </trkpt>
      <trkpt lat="42.8757316" lon="-5.3627187">
        <ele>2334.9</ele>
        <time>2016-08-30T15:13:05Z</time>
      </trkpt>
      <trkpt lat="42.8756958" lon="-5.3625269">
        <ele>2335.2</ele>
        <time>2016-08-30T15:13:07Z</time>
      </trkpt>
      <trkpt lat="42.8756038" lon="-5.3623427">
        <ele>2335.2</ele>
        <time>2016-08-30T15:13:09Z</time>
      </trkpt>
      <trkpt lat="42.875518" lon="-5.3621043">
        <ele>2335.3</ele>
        <time>2016-08-30T15:13:11Z</time>
      </trkpt>
      <trkpt lat="42.8754415" lon="-5.3618037">
        <ele>2335.3</ele>
        <time>2016-08-30T15:13:13Z</time>
      </trkpt>
      <trkpt lat="42.8753697" lon="-5.3615373">
        <ele>2335.3</ele>
        <time>2016-08-30T15:13:15Z</time>
      </trkpt>
      <trkpt lat="42.8752983" lon="-5.3612795">
        <ele>2335.3</ele>
        <time>2016-08-30T15:13:17Z</time>
      </trkpt>
      <trkpt lat="42.8752221" lon="-5.3609671">
        <ele>2335.3</ele>
        <time>2016-08-30T15:13:19Z</time>
      </trkpt>
      <trkpt lat="42.8751453" lon="-5.3606938">
        <ele>2335.3</ele>
        <time>2016-08-30T15:13:21Z</time>
      </trkpt>
      <trkpt lat="42.8750732" lon="-5.3604417">
        <ele>2335.3</ele>
        <time>2016-08-30T15:13:23Z</time>
      </trkpt>
      <trkpt lat="42.8750052" lon="-5.3601605">
        <ele>2335.3</ele>
        <time>2016-08-30T15:13:25Z</time>
      </trkpt>
      <trkpt lat="42.8749142" lon="-5.3598616">
        <ele>2335.3</ele>
        <time>2016-08-30T15:13:27Z</time>
      </trkpt>
      <trkpt lat="42.8748352" lon="-5.3595753">
        <ele>2335.0</ele>
        <time>2016-08-30T15:13:29Z</time>
      </trkpt>
      <trkpt lat="42.874806" lon="-5.3592857">
        <ele>2334.5</ele>
        <time>2016-08-30T15:13:31Z</time>
      </trkpt>
      <trkpt lat="42.8747284" lon="-5.3590126">
        <ele>2333.9</ele>
        <time>2016-08-30T15:13:33Z</time>
      </trkpt>
      <trkpt lat="42.8746361" lon="-5.3588642">
        <ele>2333.4</ele>
        <time>2016-08-30T15:13:35Z</time>
      </trkpt>
      <trkpt lat="42.874483" lon="-5.358939">
        <ele>2328.9</ele>
        <time>2016-08-30T15:13:39Z</time>
      </trkpt>
      <trkpt lat="42.8744873" lon="-5.3591265">
        <ele>2320.1</ele>
        <time>2016-08-30T15:13:42Z</time>
      </trkpt>
      <trkpt lat="42.8745029" lon="-5.3593492">
        <ele>2309.6</ele>
        <time>2016-08-30T15:13:46Z</time>
      </trkpt>
      <trkpt lat="42.874478" lon="-5.3595306">
        <ele>2304.6</ele>
        <time>2016-08-30T15:13:49Z</time>
      </trkpt>
      <trkpt lat="42.8744955" lon="-5.3597815">
        <ele>2296.4</ele>
        <time>2016-08-30T15:13:52Z</time>
      </trkpt>
      <trkpt lat="42.8745093" lon="-5.360017">
        <ele>2291.2</ele>
        <time>2016-08-30T15:13:55Z</time>
      </trkpt>
      <trkpt lat="42.8745069" lon="-5.3602276">
        <ele>2281.3</ele>
        <time>2016-08-30T15:13:58Z</time>
      </trkpt>
      <trkpt lat="42.8745277" lon="-5.3604132">
        <ele>2277.3</ele>
        <time>2016-08-30T15:14:01Z</time>
      </trkpt>
      <trkpt lat="42.8745264" lon="-5.3606607">
        <ele>2274.7</ele>
        <time>2016-08-30T15:14:05Z</time>
      </trkpt>
      <trkpt lat="42.8744993" lon="-5.3608621">
        <ele>2272.3</ele>
        <time>2016-08-30T15:14:07Z</time>
      </trkpt>
      <trkpt lat="42.874515" lon="-5.361085">
        <ele>2265.7</ele>
        <time>2016-08-30T15:14:10Z</time>
      </trkpt>
      <trkpt lat="42.8745551" lon="-5.3612882">
        <ele>2261.0</ele>
        <time>2016-08-30T15:14:13Z</time>
      </trkpt>
      <trkpt lat="42.8746062" lon="-5.3615444">
        <ele>2259.0</ele>
        <time>2016-08-30T15:14:16Z</time>
      </trkpt>
      <trkpt lat="42.8746486" lon="-5.3617413">
        <ele>2256.3</ele>
        <time>2016-08-30T15:14:18Z</time>
      </trkpt>
      <trkpt lat="42.8746819" lon="-5.3619812">
        <ele>2253.0</ele>
        <time>2016-08-30T15:14:21Z</time>
      </trkpt>
      <trkpt lat="42.8746906" lon="-5.3622225">
        <ele>2249.6</ele>
        <time>2016-08-30T15:14:24Z</time>
      </trkpt>
      <trkpt lat="42.874716" lon="-5.362485">
        <ele>2248.4</ele>
        <time>2016-08-30T15:14:27Z</time>
      </trkpt>
      <trkpt lat="42.8747688" lon="-5.3626963">
        <ele>2247.3</ele>
        <time>2016-08-30T15:14:29Z</time>
      </trkpt>
      <trkpt lat="42.8748166" lon="-5.3628893">
        <ele>2246.4</ele>
        <time>2016-08-30T15:14:31Z</time>
      </trkpt>
      <trkpt lat="42.8748544" lon="-5.3631027">
        <ele>2245.2</ele>
        <time>2016-08-30T15:14:33Z</time>
      </trkpt>
      <trkpt lat="42.8748855" lon="-5.3632897">
        <ele>2244.8</ele>
        <time>2016-08-30T15:14:35Z</time>
      </trkpt>
      <trkpt lat="42.8748819" lon="-5.3635154">
        <ele>2244.7</ele>
        <time>2016-08-30T15:14:37Z</time>
      </trkpt>
      <trkpt lat="42.8748985" lon="-5.3637381">
        <ele>2244.7</ele>
        <time>2016-08-30T15:14:39Z</time>
      </trkpt>
      <trkpt lat="42.8748698" lon="-5.3639765">
        <ele>2244.7</ele>
        <time>2016-08-30T15:14:41Z</time>
      </trkpt>
      <trkpt lat="42.874848" lon="-5.3642077">
        <ele>2244.7</ele>
        <time>2016-08-30T15:14:43Z</time>
      </trkpt>
      <trkpt lat="42.874834" lon="-5.364395">
        <ele>2244.7</ele>
        <time>2016-08-30T15:14:45Z</time>
      </trkpt>
      <trkpt lat="42.8747717" lon="-5.3646467">
        <ele>2244.7</ele>
        <time>2016-08-30T15:14:48Z</time>
      </trkpt>
      <trkpt lat="42.874602" lon="-5.3647075">
        <ele>2244.7</ele>
        <time>2016-08-30T15:14:51Z</time>
      </trkpt>
      <trkpt lat="42.8744743" lon="-5.3645342">
        <ele>2244.7</ele>
        <time>2016-08-30T15:14:54Z</time>
      </trkpt>
      <trkpt lat="42.8745004" lon="-5.3642986">
        <ele>2244.7</ele>
        <time>2016-08-30T15:14:56Z</time>
      </trkpt>
      <trkpt lat="42.8746208" lon="-5.3640556">
        <ele>2244.7</ele>
        <time>2016-08-30T15:14:58Z</time>
      </trkpt>
      <trkpt lat="42.8748199" lon="-5.3639392">
        <ele>2244.7</ele>
        <time>2016-08-30T15:15:00Z</time>
      </trkpt>
      <trkpt lat="42.8750025" lon="-5.3639947">
        <ele>2244.7</ele>
        <time>2016-08-30T15:15:02Z</time>
      </trkpt>
      <trkpt lat="42.8751049" lon="-5.364197">
        <ele>2244.7</ele>
        <time>2016-08-30T15:15:04Z</time>
      </trkpt>
      <trkpt lat="42.8751078" lon="-5.3644063">
        <ele>2244.9</ele>
        <time>2016-08-30T15:15:06Z</time>
      </trkpt>
      <trkpt lat="42.8750175" lon="-5.3645719">
        <ele>2245.3</ele>
        <time>2016-08-30T15:15:08Z</time>
      </trkpt>
      <trkpt lat="42.8748502" lon="-5.3646075">
        <ele>2245.9</ele>
        <time>2016-08-30T15:15:11Z</time>
      </trkpt>
      <trkpt lat="42.8747058" lon="-5.3644626">
        <ele>2252.2</ele>
        <time>2016-08-30T15:15:14Z</time>
      </trkpt>
      <trkpt lat="42.8746852" lon="-5.3642463">
        <ele>2253.7</ele>
        <time>2016-08-30T15:15:16Z</time>
      </trkpt>
      <trkpt lat="42.8747571" lon="-5.3640113">
        <ele>2255.2</ele>
        <time>2016-08-30T15:15:18Z</time>
      </trkpt>
      <trkpt lat="42.8749321" lon="-5.3638346">
        <ele>2257.5</ele>
        <time>2016-08-30T15:15:20Z</time>
      </trkpt>
      <trkpt lat="42.875146" lon="-5.3638093">
        <ele>2260.3</ele>
        <time>2016-08-30T15:15:22Z</time>
      </trkpt>
      <trkpt lat="42.8753282" lon="-5.363965">
        <ele>2264.6</ele>
        <time>2016-08-30T15:15:24Z</time>
      </trkpt>
      <trkpt lat="42.8754273" lon="-5.3641763">
        <ele>2267.8</ele>
        <time>2016-08-30T15:15:26Z</time>
      </trkpt>
      <trkpt lat="42.8754268" lon="-5.3643703">
        <ele>2270.1</ele>
        <time>2016-08-30T15:15:28Z</time>
      </trkpt>
      <trkpt lat="42.8753927" lon="-5.3645574">
        <ele>2271.9</ele>
        <time>2016-08-30T15:15:30Z</time>
      </trkpt>
      <trkpt lat="42.875302" lon="-5.3646994">
        <ele>2274.4</ele>
        <time>2016-08-30T15:15:32Z</time>
      </trkpt>
      <trkpt lat="42.8751626" lon="-5.3647673">
        <ele>2276.5</ele>
        <time>2016-08-30T15:15:34Z</time>
      </trkpt>
      <trkpt lat="42.8750342" lon="-5.3646922">
        <ele>2277.7</ele>
        <time>2016-08-30T15:15:36Z</time>
      </trkpt>
      <trkpt lat="42.8749364" lon="-5.3644908">
        <ele>2278.8</ele>
        <time>2016-08-30T15:15:38Z</time>
      </trkpt>
      <trkpt lat="42.8748923" lon="-5.3642304">
        <ele>2281.9</ele>
        <time>2016-08-30T15:15:40Z</time>
      </trkpt>
      <trkpt lat="42.8749062" lon="-5.3639711">
        <ele>2285.3</ele>
        <time>2016-08-30T15:15:42Z</time>
      </trkpt>
      <trkpt lat="42.8749592" lon="-5.3637113">
        <ele>2287.2</ele>
        <time>2016-08-30T15:15:44Z</time>
      </trkpt>
      <trkpt lat="42.8750836" lon="-5.3634449">
        <ele>2290.2</ele>
        <time>2016-08-30T15:15:46Z</time>
      </trkpt>
      <trkpt lat="42.8752585" lon="-5.3632655">
        <ele>2292.3</ele>
        <time>2016-08-30T15:15:48Z</time>
      </trkpt>
      <trkpt lat="42.8754621" lon="-5.3632647">
        <ele>2293.9</ele>
        <time>2016-08-30T15:15:50Z</time>
      </trkpt>
      <trkpt lat="42.8756288" lon="-5.3633612">
        <ele>2296.0</ele>
        <time>2016-08-30T15:15:52Z</time>
      </trkpt>
      <trkpt lat="42.8757106" lon="-5.3635687">
        <ele>2297.8</ele>
        <time>2016-08-30T15:15:54Z</time>
      </trkpt>
      <trkpt lat="42.8757148" lon="-5.3637895">
        <ele>2299.8</ele>
        <time>2016-08-30T15:15:56Z</time>
      </trkpt>
      <trkpt lat="42.8756436" lon="-5.3639781">
        <ele>2302.1</ele>
        <time>2016-08-30T15:15:58Z</time>
      </trkpt>
      <trkpt lat="42.8754898" lon="-5.3640711">
        <ele>2304.4</ele>
        <time>2016-08-30T15:16:01Z</time>
      </trkpt>
      <trkpt lat="42.8753818" lon="-5.3639797">
        <ele>2307.3</ele>
        <time>2016-08-30T15:16:03Z</time>
      </trkpt>
      <trkpt lat="42.8753219" lon="-5.3639055">
        <ele>2307.3</ele>
        <time>2016-08-30T15:16:04Z</time>
      </trkpt>
      <trkpt lat="42.8752752" lon="-5.3637928">
        <ele>2307.3</ele>
        <time>2016-08-30T15:16:05Z</time>
      </trkpt>
      <trkpt lat="42.875242" lon="-5.363653">
        <ele>2307.3</ele>
        <time>2016-08-30T15:16:06Z</time>
      </trkpt>
      <trkpt lat="42.8752222" lon="-5.363507">
        <ele>2307.3</ele>
        <time>2016-08-30T15:16:07Z</time>
      </trkpt>
      <trkpt lat="42.8751959" lon="-5.363243">
        <ele>2307.6</ele>
        <time>2016-08-30T15:16:09Z</time>
      </trkpt>
      <trkpt lat="42.8751471" lon="-5.3630148">
        <ele>2308.2</ele>
        <time>2016-08-30T15:16:11Z</time>
      </trkpt>
      <trkpt lat="42.8751261" lon="-5.3627478">
        <ele>2310.4</ele>
        <time>2016-08-30T15:16:13Z</time>
      </trkpt>
      <trkpt lat="42.8751103" lon="-5.3624897">
        <ele>2311.5</ele>
        <time>2016-08-30T15:16:15Z</time>
      </trkpt>
      <trkpt lat="42.8750878" lon="-5.3622314">
        <ele>2313.2</ele>
        <time>2016-08-30T15:16:17Z</time>
      </trkpt>
      <trkpt lat="42.8750603" lon="-5.3619382">
        <ele>2315.9</ele>
        <time>2016-08-30T15:16:19Z</time>
      </trkpt>
      <trkpt lat="42.8750168" lon="-5.3616248">
        <ele>2317.9</ele>
        <time>2016-08-30T15:16:21Z</time>
      </trkpt>
      <trkpt lat="42.875001" lon="-5.3613357">
        <ele>2319.0</ele>
        <time>2016-08-30T15:16:23Z</time>
      </trkpt>
      <trkpt lat="42.8750269" lon="-5.3610656">
        <ele>2320.0</ele>
        <time>2016-08-30T15:16:25Z</time>
      </trkpt>
      <trkpt lat="42.8750746" lon="-5.3608088">
        <ele>2320.8</ele>
        <time>2016-08-30T15:16:27Z</time>
      </trkpt>
      <trkpt lat="42.8750706" lon="-5.3605234">
        <ele>2321.2</ele>
        <time>2016-08-30T15:16:29Z</time>
      </trkpt>
      <trkpt lat="42.875048" lon="-5.3602577">
        <ele>2321.7</ele>
        <time>2016-08-30T15:16:31Z</time>
      </trkpt>
      <trkpt lat="42.8750504" lon="-5.3599955">
        <ele>2322.0</ele>
        <time>2016-08-30T15:16:33Z</time>
      </trkpt>
      <trkpt lat="42.875031" lon="-5.3597314">
        <ele>2322.5</ele>
        <time>2016-08-30T15:16:35Z</time>
      </trkpt>
      <trkpt lat="42.875002" lon="-5.3594513">
        <ele>2322.9</ele>
        <time>2016-08-30T15:16:37Z</time>
      </trkpt>
      <trkpt lat="42.8749586" lon="-5.3591654">
        <ele>2323.2</ele>
        <time>2016-08-30T15:16:39Z</time>
      </trkpt>
      <trkpt lat="42.8748972" lon="-5.3589068">
        <ele>2323.5</ele>
        <time>2016-08-30T15:16:41Z</time>
      </trkpt>
      <trkpt lat="42.8748196" lon="-5.358627">
        <ele>2323.8</ele>
        <time>2016-08-30T15:16:43Z</time>
      </trkpt>
      <trkpt lat="42.874754" lon="-5.35837">
        <ele>2324.6</ele>
        <time>2016-08-30T15:16:45Z</time>
      </trkpt>
      <trkpt lat="42.8746964" lon="-5.3581324">
        <ele>2325.4</ele>
        <time>2016-08-30T15:16:47Z</time>
      </trkpt>
      <trkpt lat="42.8746478" lon="-5.3578304">
        <ele>2325.8</ele>
        <time>2016-08-30T15:16:49Z</time>
      </trkpt>
      <trkpt lat="42.8746208" lon="-5.35752">
        <ele>2326.5</ele>
        <time>2016-08-30T15:16:51Z</time>
      </trkpt>
      <trkpt lat="42.8745747" lon="-5.3572045">
        <ele>2329.7</ele>
        <time>2016-08-30T15:16:53Z</time>
      </trkpt>
      <trkpt lat="42.874521" lon="-5.3569102">
        <ele>2331.4</ele>
        <time>2016-08-30T15:16:55Z</time>
      </trkpt>
      <trkpt lat="42.8744852" lon="-5.3567107">
        <ele>2331.8</ele>
        <time>2016-08-30T15:16:57Z</time>
      </trkpt>
      <trkpt lat="42.8744167" lon="-5.3564992">
        <ele>2331.9</ele>
        <time>2016-08-30T15:16:59Z</time>
      </trkpt>
      <trkpt lat="42.8743451" lon="-5.3562266">
        <ele>2331.9</ele>
        <time>2016-08-30T15:17:01Z</time>
      </trkpt>
      <trkpt lat="42.8742635" lon="-5.3559556">
        <ele>2331.9</ele>
        <time>2016-08-30T15:17:03Z</time>
      </trkpt>
      <trkpt lat="42.8741777" lon="-5.3557314">
        <ele>2331.9</ele>
        <time>2016-08-30T15:17:05Z</time>
      </trkpt>
      <trkpt lat="42.8740853" lon="-5.3555101">
        <ele>2331.9</ele>
        <time>2016-08-30T15:17:07Z</time>
      </trkpt>
      <trkpt lat="42.8740215" lon="-5.355238">
        <ele>2331.9</ele>
        <time>2016-08-30T15:17:09Z</time>
      </trkpt>
      <trkpt lat="42.8739505" lon="-5.3549593">
        <ele>2331.9</ele>
        <time>2016-08-30T15:17:11Z</time>
      </trkpt>
      <trkpt lat="42.8738708" lon="-5.3546875">
        <ele>2331.9</ele>
        <time>2016-08-30T15:17:13Z</time>
      </trkpt>
      <trkpt lat="42.8738058" lon="-5.3544073">
        <ele>2331.9</ele>
        <time>2016-08-30T15:17:15Z</time>
      </trkpt>
      <trkpt lat="42.873711" lon="-5.3541598">
        <ele>2331.9</ele>
        <time>2016-08-30T15:17:17Z</time>
      </trkpt>
      <trkpt lat="42.8735893" lon="-5.353926">
        <ele>2331.9</ele>
        <time>2016-08-30T15:17:19Z</time>
      </trkpt>
      <trkpt lat="42.8734605" lon="-5.3536463">
        <ele>2331.9</ele>
        <time>2016-08-30T15:17:21Z</time>
      </trkpt>
      <trkpt lat="42.873368" lon="-5.3533794">
        <ele>2331.9</ele>
        <time>2016-08-30T15:17:23Z</time>
      </trkpt>
      <trkpt lat="42.8732905" lon="-5.3531805">
        <ele>2327.0</ele>
        <time>2016-08-30T15:17:25Z</time>
      </trkpt>
      <trkpt lat="42.8731901" lon="-5.3529323">
        <ele>2320.6</ele>
        <time>2016-08-30T15:17:27Z</time>
      </trkpt>
      <trkpt lat="42.87308" lon="-5.3527064">
        <ele>2314.6</ele>
        <time>2016-08-30T15:17:29Z</time>
      </trkpt>
      <trkpt lat="42.8729695" lon="-5.352454">
        <ele>2305.9</ele>
        <time>2016-08-30T15:17:31Z</time>
      </trkpt>
      <trkpt lat="42.8728518" lon="-5.3522128">
        <ele>2298.6</ele>
        <time>2016-08-30T15:17:33Z</time>
      </trkpt>
      <trkpt lat="42.87272" lon="-5.351969">
        <ele>2294.9</ele>
        <time>2016-08-30T15:17:35Z</time>
      </trkpt>
      <trkpt lat="42.8726325" lon="-5.3517318">
        <ele>2292.6</ele>
        <time>2016-08-30T15:17:37Z</time>
      </trkpt>
      <trkpt lat="42.8725197" lon="-5.3514326">
        <ele>2289.2</ele>
        <time>2016-08-30T15:17:39Z</time>
      </trkpt>
      <trkpt lat="42.8724635" lon="-5.3512654">
        <ele>2287.1</ele>
        <time>2016-08-30T15:17:40Z</time>
      </trkpt>
      <trkpt lat="42.8723679" lon="-5.350991">
        <ele>2283.4</ele>
        <time>2016-08-30T15:17:42Z</time>
      </trkpt>
      <trkpt lat="42.8722894" lon="-5.3507233">
        <ele>2280.6</ele>
        <time>2016-08-30T15:17:44Z</time>
      </trkpt>
      <trkpt lat="42.8722284" lon="-5.3504621">
        <ele>2278.5</ele>
        <time>2016-08-30T15:17:46Z</time>
      </trkpt>
      <trkpt lat="42.8721567" lon="-5.3502053">
        <ele>2277.0</ele>
        <time>2016-08-30T15:17:48Z</time>
      </trkpt>
      <trkpt lat="42.8720836" lon="-5.3499545">
        <ele>2274.9</ele>
        <time>2016-08-30T15:17:50Z</time>
      </trkpt>
      <trkpt lat="42.8720306" lon="-5.3497058">
        <ele>2272.1</ele>
        <time>2016-08-30T15:17:52Z</time>
      </trkpt>
      <trkpt lat="42.8719678" lon="-5.3494729">
        <ele>2270.7</ele>
        <time>2016-08-30T15:17:54Z</time>
      </trkpt>
      <trkpt lat="42.8718925" lon="-5.3492202">
        <ele>2269.4</ele>
        <time>2016-08-30T15:17:56Z</time>
      </trkpt>
      <trkpt lat="42.8718128" lon="-5.3489843">
        <ele>2265.8</ele>
        <time>2016-08-30T15:17:58Z</time>
      </trkpt>
      <trkpt lat="42.8717364" lon="-5.348732">
        <ele>2260.6</ele>
        <time>2016-08-30T15:18:00Z</time>
      </trkpt>
      <trkpt lat="42.8716645" lon="-5.3484721">
        <ele>2251.1</ele>
        <time>2016-08-30T15:18:02Z</time>
      </trkpt>
      <trkpt lat="42.8715816" lon="-5.3482145">
        <ele>2239.4</ele>
        <time>2016-08-30T15:18:04Z</time>
      </trkpt>
      <trkpt lat="42.8714907" lon="-5.3479569">
        <ele>2229.4</ele>
        <time>2016-08-30T15:18:06Z</time>
      </trkpt>
      <trkpt lat="42.8713975" lon="-5.3476876">
        <ele>2220.4</ele>
        <time>2016-08-30T15:18:08Z</time>
      </trkpt>
      <trkpt lat="42.8713032" lon="-5.3474187">
        <ele>2211.3</ele>
        <time>2016-08-30T15:18:10Z</time>
      </trkpt>
      <trkpt lat="42.8712161" lon="-5.3471931">
        <ele>2206.9</ele>
        <time>2016-08-30T15:18:12Z</time>
      </trkpt>
      <trkpt lat="42.8711059" lon="-5.3469586">
        <ele>2204.1</ele>
        <time>2016-08-30T15:18:14Z</time>
      </trkpt>
      <trkpt lat="42.87101" lon="-5.3466799">
        <ele>2200.2</ele>
        <time>2016-08-30T15:18:16Z</time>
      </trkpt>
      <trkpt lat="42.8709279" lon="-5.3464386">
        <ele>2196.4</ele>
        <time>2016-08-30T15:18:18Z</time>
      </trkpt>
      <trkpt lat="42.8708282" lon="-5.3462105">
        <ele>2193.0</ele>
        <time>2016-08-30T15:18:20Z</time>
      </trkpt>
      <trkpt lat="42.8707308" lon="-5.3459368">
        <ele>2190.9</ele>
        <time>2016-08-30T15:18:22Z</time>
      </trkpt>
      <trkpt lat="42.8706051" lon="-5.3456497">
        <ele>2189.7</ele>
        <time>2016-08-30T15:18:24Z</time>
      </trkpt>
      <trkpt lat="42.8704709" lon="-5.3453901">
        <ele>2188.0</ele>
        <time>2016-08-30T15:18:26Z</time>
      </trkpt>
      <trkpt lat="42.8703656" lon="-5.3451261">
        <ele>2186.0</ele>
        <time>2016-08-30T15:18:28Z</time>
      </trkpt>
      <trkpt lat="42.8702743" lon="-5.3448814">
        <ele>2185.3</ele>
        <time>2016-08-30T15:18:30Z</time>
      </trkpt>
      <trkpt lat="42.8701747" lon="-5.3446244">
        <ele>2184.3</ele>
        <time>2016-08-30T15:18:32Z</time>
      </trkpt>
      <trkpt lat="42.8700795" lon="-5.3443697">
        <ele>2182.3</ele>
        <time>2016-08-30T15:18:34Z</time>
      </trkpt>
      <trkpt lat="42.86999" lon="-5.3441263">
        <ele>2180.4</ele>
        <time>2016-08-30T15:18:36Z</time>
      </trkpt>
      <trkpt lat="42.8699087" lon="-5.3438754">
        <ele>2179.0</ele>
        <time>2016-08-30T15:18:38Z</time>
      </trkpt>
      <trkpt lat="42.8697985" lon="-5.3436123">
        <ele>2178.0</ele>
        <time>2016-08-30T15:18:40Z</time>
      </trkpt>
      <trkpt lat="42.8696918" lon="-5.3433453">
        <ele>2177.4</ele>
        <time>2016-08-30T15:18:42Z</time>
      </trkpt>
      <trkpt lat="42.8695848" lon="-5.3430711">
        <ele>2176.8</ele>
        <time>2016-08-30T15:18:44Z</time>
      </trkpt>
      <trkpt lat="42.8695026" lon="-5.3428019">
        <ele>2174.8</ele>
        <time>2016-08-30T15:18:46Z</time>
      </trkpt>
      <trkpt lat="42.869413" lon="-5.342533">
        <ele>2172.4</ele>
        <time>2016-08-30T15:18:48Z</time>
      </trkpt>
      <trkpt lat="42.8693287" lon="-5.3422238">
        <ele>2170.5</ele>
        <time>2016-08-30T15:18:50Z</time>
      </trkpt>
      <trkpt lat="42.8692942" lon="-5.3419319">
        <ele>2167.5</ele>
        <time>2016-08-30T15:18:52Z</time>
      </trkpt>
      <trkpt lat="42.8692377" lon="-5.3416894">
        <ele>2163.3</ele>
        <time>2016-08-30T15:18:54Z</time>
      </trkpt>
      <trkpt lat="42.8691503" lon="-5.3414451">
        <ele>2158.8</ele>
        <time>2016-08-30T15:18:56Z</time>
      </trkpt>
      <trkpt lat="42.8690518" lon="-5.3411673">
        <ele>2155.1</ele>
        <time>2016-08-30T15:18:58Z</time>
      </trkpt>
      <trkpt lat="42.8689883" lon="-5.3409065">
        <ele>2153.9</ele>
        <time>2016-08-30T15:19:00Z</time>
      </trkpt>
      <trkpt lat="42.8689519" lon="-5.3406771">
        <ele>2152.9</ele>
        <time>2016-08-30T15:19:02Z</time>
      </trkpt>
      <trkpt lat="42.8688951" lon="-5.3404248">
        <ele>2150.3</ele>
        <time>2016-08-30T15:19:04Z</time>
      </trkpt>
      <trkpt lat="42.8688148" lon="-5.3401679">
        <ele>2147.9</ele>
        <time>2016-08-30T15:19:06Z</time>
      </trkpt>
      <trkpt lat="42.8687223" lon="-5.3399202">
        <ele>2144.5</ele>
        <time>2016-08-30T15:19:08Z</time>
      </trkpt>
      <trkpt lat="42.8686604" lon="-5.3396503">
        <ele>2141.1</ele>
        <time>2016-08-30T15:19:10Z</time>
      </trkpt>
      <trkpt lat="42.8685788" lon="-5.339376">
        <ele>2138.5</ele>
        <time>2016-08-30T15:19:12Z</time>
      </trkpt>
      <trkpt lat="42.8684955" lon="-5.3391168">
        <ele>2134.6</ele>
        <time>2016-08-30T15:19:14Z</time>
      </trkpt>
      <trkpt lat="42.8684244" lon="-5.3388459">
        <ele>2131.8</ele>
        <time>2016-08-30T15:19:16Z</time>
      </trkpt>
      <trkpt lat="42.8683586" lon="-5.3385254">
        <ele>2128.6</ele>
        <time>2016-08-30T15:19:18Z</time>
      </trkpt>
      <trkpt lat="42.8683053" lon="-5.3382409">
        <ele>2124.9</ele>
        <time>2016-08-30T15:19:20Z</time>
      </trkpt>
      <trkpt lat="42.8682654" lon="-5.3380067">
        <ele>2122.4</ele>
        <time>2016-08-30T15:19:22Z</time>
      </trkpt>
      <trkpt lat="42.8682374" lon="-5.3377701">
        <ele>2121.2</ele>
        <time>2016-08-30T15:19:24Z</time>
      </trkpt>
      <trkpt lat="42.8682466" lon="-5.3374964">
        <ele>2120.0</ele>
        <time>2016-08-30T15:19:26Z</time>
      </trkpt>
      <trkpt lat="42.8682166" lon="-5.3372198">
        <ele>2115.5</ele>
        <time>2016-08-30T15:19:28Z</time>
      </trkpt>
      <trkpt lat="42.8681677" lon="-5.3369437">
        <ele>2111.1</ele>
        <time>2016-08-30T15:19:30Z</time>
      </trkpt>
      <trkpt lat="42.8681662" lon="-5.3366538">
        <ele>2108.1</ele>
        <time>2016-08-30T15:19:32Z</time>
      </trkpt>
      <trkpt lat="42.8681517" lon="-5.3363804">
        <ele>2104.1</ele>
        <time>2016-08-30T15:19:34Z</time>
      </trkpt>
      <trkpt lat="42.8681195" lon="-5.336116">
        <ele>2097.5</ele>
        <time>2016-08-30T15:19:36Z</time>
      </trkpt>
      <trkpt lat="42.8680685" lon="-5.3358717">
        <ele>2092.3</ele>
        <time>2016-08-30T15:19:38Z</time>
      </trkpt>
      <trkpt lat="42.8680059" lon="-5.3356264">
        <ele>2088.4</ele>
        <time>2016-08-30T15:19:40Z</time>
      </trkpt>
      <trkpt lat="42.8679255" lon="-5.3353705">
        <ele>2084.5</ele>
        <time>2016-08-30T15:19:42Z</time>
      </trkpt>
      <trkpt lat="42.8678499" lon="-5.3351145">
        <ele>2081.9</ele>
        <time>2016-08-30T15:19:44Z</time>
      </trkpt>
      <trkpt lat="42.8677962" lon="-5.3348559">
        <ele>2078.8</ele>
        <time>2016-08-30T15:19:46Z</time>
      </trkpt>
      <trkpt lat="42.8677179" lon="-5.3346081">
        <ele>2074.4</ele>
        <time>2016-08-30T15:19:48Z</time>
      </trkpt>
      <trkpt lat="42.8676349" lon="-5.334367">
        <ele>2071.0</ele>
        <time>2016-08-30T15:19:50Z</time>
      </trkpt>
      <trkpt lat="42.8675429" lon="-5.334121">
        <ele>2069.8</ele>
        <time>2016-08-30T15:19:52Z</time>
      </trkpt>
      <trkpt lat="42.8674318" lon="-5.3338538">
        <ele>2069.2</ele>
        <time>2016-08-30T15:19:54Z</time>
      </trkpt>
      <trkpt lat="42.8673189" lon="-5.3335847">
        <ele>2066.4</ele>
        <time>2016-08-30T15:19:56Z</time>
      </trkpt>
      <trkpt lat="42.8672109" lon="-5.3333123">
        <ele>2062.5</ele>
        <time>2016-08-30T15:19:58Z</time>
      </trkpt>
      <trkpt lat="42.8671232" lon="-5.3330327">
        <ele>2058.6</ele>
        <time>2016-08-30T15:20:00Z</time>
      </trkpt>
      <trkpt lat="42.8670401" lon="-5.3327709">
        <ele>2054.4</ele>
        <time>2016-08-30T15:20:02Z</time>
      </trkpt>
      <trkpt lat="42.86695" lon="-5.3325504">
        <ele>2050.8</ele>
        <time>2016-08-30T15:20:04Z</time>
      </trkpt>
      <trkpt lat="42.8668576" lon="-5.332313">
        <ele>2047.3</ele>
        <time>2016-08-30T15:20:06Z</time>
      </trkpt>
      <trkpt lat="42.8667628" lon="-5.3320612">
        <ele>2045.3</ele>
        <time>2016-08-30T15:20:08Z</time>
      </trkpt>
      <trkpt lat="42.8666906" lon="-5.331809">
        <ele>2043.2</ele>
        <time>2016-08-30T15:20:10Z</time>
      </trkpt>
      <trkpt lat="42.8666173" lon="-5.3315477">
        <ele>2039.3</ele>
        <time>2016-08-30T15:20:12Z</time>
      </trkpt>
      <trkpt lat="42.866531" lon="-5.3313204">
        <ele>2036.9</ele>
        <time>2016-08-30T15:20:14Z</time>
      </trkpt>
      <trkpt lat="42.8664708" lon="-5.3310679">
        <ele>2034.0</ele>
        <time>2016-08-30T15:20:16Z</time>
      </trkpt>
      <trkpt lat="42.8664188" lon="-5.3307986">
        <ele>2031.0</ele>
        <time>2016-08-30T15:20:18Z</time>
      </trkpt>
      <trkpt lat="42.8663578" lon="-5.330537">
        <ele>2029.0</ele>
        <time>2016-08-30T15:20:20Z</time>
      </trkpt>
      <trkpt lat="42.8662881" lon="-5.3302886">
        <ele>2026.6</ele>
        <time>2016-08-30T15:20:22Z</time>
      </trkpt>
      <trkpt lat="42.8662104" lon="-5.3300395">
        <ele>2022.8</ele>
        <time>2016-08-30T15:20:24Z</time>
      </trkpt>
      <trkpt lat="42.8661348" lon="-5.3297728">
        <ele>2019.6</ele>
        <time>2016-08-30T15:20:26Z</time>
      </trkpt>
      <trkpt lat="42.8660555" lon="-5.3294843">
        <ele>2017.5</ele>
        <time>2016-08-30T15:20:28Z</time>
      </trkpt>
      <trkpt lat="42.8659832" lon="-5.3291949">
        <ele>2014.9</ele>
        <time>2016-08-30T15:20:30Z</time>
      </trkpt>
      <trkpt lat="42.8658978" lon="-5.3289266">
        <ele>2012.0</ele>
        <time>2016-08-30T15:20:32Z</time>
      </trkpt>
      <trkpt lat="42.8658124" lon="-5.3286605">
        <ele>2009.6</ele>
        <time>2016-08-30T15:20:34Z</time>
      </trkpt>
      <trkpt lat="42.8657248" lon="-5.328383">
        <ele>2006.9</ele>
        <time>2016-08-30T15:20:36Z</time>
      </trkpt>
      <trkpt lat="42.8656555" lon="-5.3281064">
        <ele>2002.2</ele>
        <time>2016-08-30T15:20:38Z</time>
      </trkpt>
      <trkpt lat="42.8655733" lon="-5.3278249">
        <ele>1999.4</ele>
        <time>2016-08-30T15:20:40Z</time>
      </trkpt>
      <trkpt lat="42.8654921" lon="-5.3275387">
        <ele>1997.5</ele>
        <time>2016-08-30T15:20:42Z</time>
      </trkpt>
      <trkpt lat="42.8654218" lon="-5.3272714">
        <ele>1995.2</ele>
        <time>2016-08-30T15:20:44Z</time>
      </trkpt>
      <trkpt lat="42.8653643" lon="-5.3270055">
        <ele>1992.1</ele>
        <time>2016-08-30T15:20:46Z</time>
      </trkpt>
      <trkpt lat="42.8653138" lon="-5.3267195">
        <ele>1988.1</ele>
        <time>2016-08-30T15:20:48Z</time>
      </trkpt>
      <trkpt lat="42.865252" lon="-5.3264367">
        <ele>1984.2</ele>
        <time>2016-08-30T15:20:50Z</time>
      </trkpt>
      <trkpt lat="42.865188" lon="-5.3261712">
        <ele>1980.8</ele>
        <time>2016-08-30T15:20:52Z</time>
      </trkpt>
      <trkpt lat="42.8651368" lon="-5.3259331">
        <ele>1977.4</ele>
        <time>2016-08-30T15:20:54Z</time>
      </trkpt>
      <trkpt lat="42.8650655" lon="-5.3256697">
        <ele>1974.6</ele>
        <time>2016-08-30T15:20:56Z</time>
      </trkpt>
      <trkpt lat="42.865005" lon="-5.3254056">
        <ele>1971.7</ele>
        <time>2016-08-30T15:20:58Z</time>
      </trkpt>
      <trkpt lat="42.8649656" lon="-5.3251318">
        <ele>1969.1</ele>
        <time>2016-08-30T15:21:00Z</time>
      </trkpt>
      <trkpt lat="42.8649161" lon="-5.3248727">
        <ele>1966.9</ele>
        <time>2016-08-30T15:21:02Z</time>
      </trkpt>
      <trkpt lat="42.864875" lon="-5.3245996">
        <ele>1965.3</ele>
        <time>2016-08-30T15:21:04Z</time>
      </trkpt>
      <trkpt lat="42.8648126" lon="-5.3243386">
        <ele>1962.3</ele>
        <time>2016-08-30T15:21:06Z</time>
      </trkpt>
      <trkpt lat="42.8647243" lon="-5.3240857">
        <ele>1959.5</ele>
        <time>2016-08-30T15:21:08Z</time>
      </trkpt>
      <trkpt lat="42.8646432" lon="-5.323837">
        <ele>1956.6</ele>
        <time>2016-08-30T15:21:10Z</time>
      </trkpt>
      <trkpt lat="42.8645505" lon="-5.3235502">
        <ele>1953.9</ele>
        <time>2016-08-30T15:21:12Z</time>
      </trkpt>
      <trkpt lat="42.8644665" lon="-5.3232698">
        <ele>1951.9</ele>
        <time>2016-08-30T15:21:14Z</time>
      </trkpt>
      <trkpt lat="42.8643774" lon="-5.3230011">
        <ele>1950.1</ele>
        <time>2016-08-30T15:21:16Z</time>
      </trkpt>
      <trkpt lat="42.8643061" lon="-5.3227387">
        <ele>1948.0</ele>
        <time>2016-08-30T15:21:18Z</time>
      </trkpt>
      <trkpt lat="42.8642523" lon="-5.3224749">
        <ele>1944.3</ele>
        <time>2016-08-30T15:21:20Z</time>
      </trkpt>
      <trkpt lat="42.8641983" lon="-5.3221901">
        <ele>1941.6</ele>
        <time>2016-08-30T15:21:22Z</time>
      </trkpt>
      <trkpt lat="42.8641449" lon="-5.3219148">
        <ele>1940.2</ele>
        <time>2016-08-30T15:21:24Z</time>
      </trkpt>
      <trkpt lat="42.8640805" lon="-5.3216422">
        <ele>1938.8</ele>
        <time>2016-08-30T15:21:26Z</time>
      </trkpt>
      <trkpt lat="42.86404" lon="-5.3213635">
        <ele>1935.8</ele>
        <time>2016-08-30T15:21:28Z</time>
      </trkpt>
      <trkpt lat="42.8640125" lon="-5.3210702">
        <ele>1934.0</ele>
        <time>2016-08-30T15:21:30Z</time>
      </trkpt>
      <trkpt lat="42.8639993" lon="-5.3207844">
        <ele>1932.6</ele>
        <time>2016-08-30T15:21:32Z</time>
      </trkpt>
      <trkpt lat="42.8639859" lon="-5.3205009">
        <ele>1928.0</ele>
        <time>2016-08-30T15:21:34Z</time>
      </trkpt>
      <trkpt lat="42.8639754" lon="-5.3202318">
        <ele>1924.2</ele>
        <time>2016-08-30T15:21:36Z</time>
      </trkpt>
      <trkpt lat="42.8639571" lon="-5.3199594">
        <ele>1920.6</ele>
        <time>2016-08-30T15:21:38Z</time>
      </trkpt>
      <trkpt lat="42.8639462" lon="-5.3196822">
        <ele>1916.5</ele>
        <time>2016-08-30T15:21:40Z</time>
      </trkpt>
      <trkpt lat="42.8639288" lon="-5.3194129">
        <ele>1912.1</ele>
        <time>2016-08-30T15:21:42Z</time>
      </trkpt>
      <trkpt lat="42.8639182" lon="-5.3191106">
        <ele>1907.8</ele>
        <time>2016-08-30T15:21:44Z</time>
      </trkpt>
      <trkpt lat="42.8639006" lon="-5.318812">
        <ele>1903.3</ele>
        <time>2016-08-30T15:21:46Z</time>
      </trkpt>
      <trkpt lat="42.8638829" lon="-5.318539">
        <ele>1899.2</ele>
        <time>2016-08-30T15:21:48Z</time>
      </trkpt>
      <trkpt lat="42.8638677" lon="-5.3182704">
        <ele>1896.2</ele>
        <time>2016-08-30T15:21:50Z</time>
      </trkpt>
      <trkpt lat="42.8638497" lon="-5.3179721">
        <ele>1892.9</ele>
        <time>2016-08-30T15:21:52Z</time>
      </trkpt>
      <trkpt lat="42.8638491" lon="-5.3176872">
        <ele>1889.6</ele>
        <time>2016-08-30T15:21:54Z</time>
      </trkpt>
      <trkpt lat="42.8638465" lon="-5.3173833">
        <ele>1886.9</ele>
        <time>2016-08-30T15:21:56Z</time>
      </trkpt>
      <trkpt lat="42.863841" lon="-5.3170774">
        <ele>1883.8</ele>
        <time>2016-08-30T15:21:58Z</time>
      </trkpt>
      <trkpt lat="42.8638492" lon="-5.3167938">
        <ele>1881.7</ele>
        <time>2016-08-30T15:22:00Z</time>
      </trkpt>
      <trkpt lat="42.8638678" lon="-5.3165168">
        <ele>1879.3</ele>
        <time>2016-08-30T15:22:02Z</time>
      </trkpt>
      <trkpt lat="42.8638744" lon="-5.3162225">
        <ele>1876.5</ele>
        <time>2016-08-30T15:22:04Z</time>
      </trkpt>
      <trkpt lat="42.86385" lon="-5.3159379">
        <ele>1875.2</ele>
        <time>2016-08-30T15:22:06Z</time>
      </trkpt>
      <trkpt lat="42.863837" lon="-5.3156796">
        <ele>1873.0</ele>
        <time>2016-08-30T15:22:08Z</time>
      </trkpt>
      <trkpt lat="42.8638121" lon="-5.315402">
        <ele>1869.7</ele>
        <time>2016-08-30T15:22:10Z</time>
      </trkpt>
      <trkpt lat="42.8637862" lon="-5.3151135">
        <ele>1866.8</ele>
        <time>2016-08-30T15:22:12Z</time>
      </trkpt>
      <trkpt lat="42.8637645" lon="-5.3148191">
        <ele>1863.9</ele>
        <time>2016-08-30T15:22:14Z</time>
      </trkpt>
      <trkpt lat="42.8637481" lon="-5.3145434">
        <ele>1860.8</ele>
        <time>2016-08-30T15:22:16Z</time>
      </trkpt>
      <trkpt lat="42.863737" lon="-5.3142725">
        <ele>1858.7</ele>
        <time>2016-08-30T15:22:18Z</time>
      </trkpt>
      <trkpt lat="42.863724" lon="-5.3140021">
        <ele>1856.5</ele>
        <time>2016-08-30T15:22:20Z</time>
      </trkpt>
      <trkpt lat="42.8637096" lon="-5.3137474">
        <ele>1852.6</ele>
        <time>2016-08-30T15:22:22Z</time>
      </trkpt>
      <trkpt lat="42.8636953" lon="-5.31347">
        <ele>1849.7</ele>
        <time>2016-08-30T15:22:24Z</time>
      </trkpt>
      <trkpt lat="42.8636743" lon="-5.3131875">
        <ele>1847.5</ele>
        <time>2016-08-30T15:22:26Z</time>
      </trkpt>
      <trkpt lat="42.8636655" lon="-5.3129288">
        <ele>1844.4</ele>
        <time>2016-08-30T15:22:28Z</time>
      </trkpt>
      <trkpt lat="42.8636329" lon="-5.3126568">
        <ele>1842.3</ele>
        <time>2016-08-30T15:22:30Z</time>
      </trkpt>
      <trkpt lat="42.8635907" lon="-5.3124018">
        <ele>1840.8</ele>
        <time>2016-08-30T15:22:32Z</time>
      </trkpt>
      <trkpt lat="42.8635635" lon="-5.3121314">
        <ele>1837.6</ele>
        <time>2016-08-30T15:22:34Z</time>
      </trkpt>
      <trkpt lat="42.8635252" lon="-5.3118573">
        <ele>1835.3</ele>
        <time>2016-08-30T15:22:36Z</time>
      </trkpt>
      <trkpt lat="42.8634975" lon="-5.3115944">
        <ele>1834.5</ele>
        <time>2016-08-30T15:22:38Z</time>
      </trkpt>
      <trkpt lat="42.8634561" lon="-5.3113307">
        <ele>1832.1</ele>
        <time>2016-08-30T15:22:40Z</time>
      </trkpt>
      <trkpt lat="42.8634029" lon="-5.3110661">
        <ele>1828.4</ele>
        <time>2016-08-30T15:22:42Z</time>
      </trkpt>
      <trkpt lat="42.8633741" lon="-5.3108084">
        <ele>1825.7</ele>
        <time>2016-08-30T15:22:44Z</time>
      </trkpt>
      <trkpt lat="42.8633504" lon="-5.3105366">
        <ele>1822.9</ele>
        <time>2016-08-30T15:22:46Z</time>
      </trkpt>
      <trkpt lat="42.8633186" lon="-5.3102718">
        <ele>1820.6</ele>
        <time>2016-08-30T15:22:48Z</time>
      </trkpt>
      <trkpt lat="42.8632854" lon="-5.3100055">
        <ele>1818.3</ele>
        <time>2016-08-30T15:22:50Z</time>
      </trkpt>
      <trkpt lat="42.8632588" lon="-5.3097364">
        <ele>1815.9</ele>
        <time>2016-08-30T15:22:52Z</time>
      </trkpt>
      <trkpt lat="42.8632277" lon="-5.3094606">
        <ele>1813.9</ele>
        <time>2016-08-30T15:22:54Z</time>
      </trkpt>
      <trkpt lat="42.8631964" lon="-5.3092108">
        <ele>1811.3</ele>
        <time>2016-08-30T15:22:56Z</time>
      </trkpt>
      <trkpt lat="42.8631726" lon="-5.3089702">
        <ele>1808.0</ele>
        <time>2016-08-30T15:22:58Z</time>
      </trkpt>
      <trkpt lat="42.8631401" lon="-5.3086825">
        <ele>1805.6</ele>
        <time>2016-08-30T15:23:00Z</time>
      </trkpt>
      <trkpt lat="42.8630933" lon="-5.3083983">
        <ele>1802.7</ele>
        <time>2016-08-30T15:23:02Z</time>
      </trkpt>
      <trkpt lat="42.8630552" lon="-5.3081458">
        <ele>1799.2</ele>
        <time>2016-08-30T15:23:04Z</time>
      </trkpt>
      <trkpt lat="42.863022" lon="-5.307903">
        <ele>1794.8</ele>
        <time>2016-08-30T15:23:06Z</time>
      </trkpt>
      <trkpt lat="42.862991" lon="-5.3076506">
        <ele>1791.4</ele>
        <time>2016-08-30T15:23:08Z</time>
      </trkpt>
      <trkpt lat="42.862964" lon="-5.307387">
        <ele>1788.4</ele>
        <time>2016-08-30T15:23:10Z</time>
      </trkpt>
      <trkpt lat="42.8629437" lon="-5.3071426">
        <ele>1785.0</ele>
        <time>2016-08-30T15:23:12Z</time>
      </trkpt>
      <trkpt lat="42.8629061" lon="-5.3068891">
        <ele>1781.3</ele>
        <time>2016-08-30T15:23:14Z</time>
      </trkpt>
      <trkpt lat="42.8628741" lon="-5.3066251">
        <ele>1779.3</ele>
        <time>2016-08-30T15:23:16Z</time>
      </trkpt>
      <trkpt lat="42.862852" lon="-5.3063846">
        <ele>1776.9</ele>
        <time>2016-08-30T15:23:18Z</time>
      </trkpt>
      <trkpt lat="42.8628343" lon="-5.3061414">
        <ele>1774.1</ele>
        <time>2016-08-30T15:23:20Z</time>
      </trkpt>
      <trkpt lat="42.8628117" lon="-5.3058887">
        <ele>1771.4</ele>
        <time>2016-08-30T15:23:22Z</time>
      </trkpt>
      <trkpt lat="42.8627943" lon="-5.3056432">
        <ele>1768.9</ele>
        <time>2016-08-30T15:23:24Z</time>
      </trkpt>
      <trkpt lat="42.8627729" lon="-5.3054199">
        <ele>1766.0</ele>
        <time>2016-08-30T15:23:26Z</time>
      </trkpt>
      <trkpt lat="42.8627695" lon="-5.3051643">
        <ele>1763.4</ele>
        <time>2016-08-30T15:23:28Z</time>
      </trkpt>
      <trkpt lat="42.8627594" lon="-5.3048975">
        <ele>1759.0</ele>
        <time>2016-08-30T15:23:30Z</time>
      </trkpt>
      <trkpt lat="42.8627607" lon="-5.3046466">
        <ele>1753.0</ele>
        <time>2016-08-30T15:23:32Z</time>
      </trkpt>
      <trkpt lat="42.8627495" lon="-5.3043977">
        <ele>1749.8</ele>
        <time>2016-08-30T15:23:34Z</time>
      </trkpt>
      <trkpt lat="42.8627441" lon="-5.3041464">
        <ele>1748.4</ele>
        <time>2016-08-30T15:23:36Z</time>
      </trkpt>
      <trkpt lat="42.8627305" lon="-5.3038771">
        <ele>1745.6</ele>
        <time>2016-08-30T15:23:38Z</time>
      </trkpt>
      <trkpt lat="42.862713" lon="-5.3036253">
        <ele>1741.9</ele>
        <time>2016-08-30T15:23:40Z</time>
      </trkpt>
      <trkpt lat="42.8627047" lon="-5.3033625">
        <ele>1738.1</ele>
        <time>2016-08-30T15:23:42Z</time>
      </trkpt>
      <trkpt lat="42.8626848" lon="-5.3031">
        <ele>1734.3</ele>
        <time>2016-08-30T15:23:44Z</time>
      </trkpt>
      <trkpt lat="42.8626746" lon="-5.3028395">
        <ele>1730.6</ele>
        <time>2016-08-30T15:23:46Z</time>
      </trkpt>
      <trkpt lat="42.8626461" lon="-5.3025821">
        <ele>1728.2</ele>
        <time>2016-08-30T15:23:48Z</time>
      </trkpt>
      <trkpt lat="42.8626231" lon="-5.3023161">
        <ele>1725.1</ele>
        <time>2016-08-30T15:23:50Z</time>
      </trkpt>
      <trkpt lat="42.8626166" lon="-5.3020583">
        <ele>1721.4</ele>
        <time>2016-08-30T15:23:52Z</time>
      </trkpt>
      <trkpt lat="42.862619" lon="-5.3017877">
        <ele>1719.2</ele>
        <time>2016-08-30T15:23:54Z</time>
      </trkpt>
      <trkpt lat="42.8626536" lon="-5.3015639">
        <ele>1716.6</ele>
        <time>2016-08-30T15:23:56Z</time>
      </trkpt>
      <trkpt lat="42.8626812" lon="-5.3013331">
        <ele>1712.6</ele>
        <time>2016-08-30T15:23:58Z</time>
      </trkpt>
      <trkpt lat="42.8626982" lon="-5.3011216">
        <ele>1709.4</ele>
        <time>2016-08-30T15:24:00Z</time>
      </trkpt>
      <trkpt lat="42.8626989" lon="-5.3009001">
        <ele>1706.9</ele>
        <time>2016-08-30T15:24:02Z</time>
      </trkpt>
      <trkpt lat="42.862703" lon="-5.3006695">
        <ele>1703.9</ele>
        <time>2016-08-30T15:24:04Z</time>
      </trkpt>
      <trkpt lat="42.8627189" lon="-5.3004175">
        <ele>1701.4</ele>
        <time>2016-08-30T15:24:06Z</time>
      </trkpt>
      <trkpt lat="42.8627451" lon="-5.3001769">
        <ele>1698.5</ele>
        <time>2016-08-30T15:24:08Z</time>
      </trkpt>
      <trkpt lat="42.8627553" lon="-5.2999658">
        <ele>1695.2</ele>
        <time>2016-08-30T15:24:10Z</time>
      </trkpt>
      <trkpt lat="42.8627584" lon="-5.2997209">
        <ele>1693.0</ele>
        <time>2016-08-30T15:24:12Z</time>
      </trkpt>
      <trkpt lat="42.8627563" lon="-5.2994724">
        <ele>1690.2</ele>
        <time>2016-08-30T15:24:15Z</time>
      </trkpt>
      <trkpt lat="42.8627459" lon="-5.299265">
        <ele>1687.2</ele>
        <time>2016-08-30T15:24:17Z</time>
      </trkpt>
      <trkpt lat="42.8627506" lon="-5.299048">
        <ele>1683.6</ele>
        <time>2016-08-30T15:24:19Z</time>
      </trkpt>
      <trkpt lat="42.8627509" lon="-5.298785">
        <ele>1680.6</ele>
        <time>2016-08-30T15:24:21Z</time>
      </trkpt>
      <trkpt lat="42.8627422" lon="-5.2985087">
        <ele>1678.1</ele>
        <time>2016-08-30T15:24:23Z</time>
      </trkpt>
      <trkpt lat="42.8627318" lon="-5.298253">
        <ele>1676.6</ele>
        <time>2016-08-30T15:24:25Z</time>
      </trkpt>
      <trkpt lat="42.8627327" lon="-5.298012">
        <ele>1674.0</ele>
        <time>2016-08-30T15:24:27Z</time>
      </trkpt>
      <trkpt lat="42.8627593" lon="-5.2977591">
        <ele>1671.3</ele>
        <time>2016-08-30T15:24:29Z</time>
      </trkpt>
      <trkpt lat="42.8627911" lon="-5.297488">
        <ele>1668.0</ele>
        <time>2016-08-30T15:24:31Z</time>
      </trkpt>
      <trkpt lat="42.862818" lon="-5.2972128">
        <ele>1664.6</ele>
        <time>2016-08-30T15:24:33Z</time>
      </trkpt>
      <trkpt lat="42.8628607" lon="-5.2969473">
        <ele>1659.8</ele>
        <time>2016-08-30T15:24:35Z</time>
      </trkpt>
      <trkpt lat="42.8628924" lon="-5.296699">
        <ele>1654.4</ele>
        <time>2016-08-30T15:24:37Z</time>
      </trkpt>
      <trkpt lat="42.8628921" lon="-5.2964577">
        <ele>1650.0</ele>
        <time>2016-08-30T15:24:39Z</time>
      </trkpt>
      <trkpt lat="42.8628661" lon="-5.2962739">
        <ele>1647.4</ele>
        <time>2016-08-30T15:24:41Z</time>
      </trkpt>
      <trkpt lat="42.8628086" lon="-5.29605">
        <ele>1641.4</ele>
        <time>2016-08-30T15:24:44Z</time>
      </trkpt>
      <trkpt lat="42.8627473" lon="-5.2958847">
        <ele>1636.7</ele>
        <time>2016-08-30T15:24:46Z</time>
      </trkpt>
      <trkpt lat="42.862683" lon="-5.2956301">
        <ele>1633.0</ele>
        <time>2016-08-30T15:24:49Z</time>
      </trkpt>
      <trkpt lat="42.8626338" lon="-5.2954413">
        <ele>1628.3</ele>
        <time>2016-08-30T15:24:51Z</time>
      </trkpt>
      <trkpt lat="42.8626144" lon="-5.2952213">
        <ele>1624.2</ele>
        <time>2016-08-30T15:24:53Z</time>
      </trkpt>
      <trkpt lat="42.8626229" lon="-5.295004">
        <ele>1622.7</ele>
        <time>2016-08-30T15:24:55Z</time>
      </trkpt>
      <trkpt lat="42.8626599" lon="-5.2947749">
        <ele>1622.0</ele>
        <time>2016-08-30T15:24:57Z</time>
      </trkpt>
      <trkpt lat="42.8627021" lon="-5.2945179">
        <ele>1621.5</ele>
        <time>2016-08-30T15:24:59Z</time>
      </trkpt>
      <trkpt lat="42.8627445" lon="-5.2942512">
        <ele>1620.0</ele>
        <time>2016-08-30T15:25:01Z</time>
      </trkpt>
      <trkpt lat="42.8628199" lon="-5.2939954">
        <ele>1618.0</ele>
        <time>2016-08-30T15:25:03Z</time>
      </trkpt>
      <trkpt lat="42.8629084" lon="-5.2937107">
        <ele>1615.8</ele>
        <time>2016-08-30T15:25:05Z</time>
      </trkpt>
      <trkpt lat="42.8629764" lon="-5.2934444">
        <ele>1614.2</ele>
        <time>2016-08-30T15:25:07Z</time>
      </trkpt>
      <trkpt lat="42.8630406" lon="-5.2932088">
        <ele>1611.1</ele>
        <time>2016-08-30T15:25:09Z</time>
      </trkpt>
      <trkpt lat="42.8630975" lon="-5.2929486">
        <ele>1608.2</ele>
        <time>2016-08-30T15:25:11Z</time>
      </trkpt>
      <trkpt lat="42.8631371" lon="-5.2926667">
        <ele>1607.0</ele>
        <time>2016-08-30T15:25:13Z</time>
      </trkpt>
      <trkpt lat="42.863178" lon="-5.2923829">
        <ele>1606.1</ele>
        <time>2016-08-30T15:25:15Z</time>
      </trkpt>
      <trkpt lat="42.8632175" lon="-5.2921152">
        <ele>1604.1</ele>
        <time>2016-08-30T15:25:17Z</time>
      </trkpt>
      <trkpt lat="42.8632454" lon="-5.2918535">
        <ele>1603.0</ele>
        <time>2016-08-30T15:25:19Z</time>
      </trkpt>
      <trkpt lat="42.8632609" lon="-5.2915731">
        <ele>1600.4</ele>
        <time>2016-08-30T15:25:21Z</time>
      </trkpt>
      <trkpt lat="42.8632853" lon="-5.2912809">
        <ele>1596.4</ele>
        <time>2016-08-30T15:25:23Z</time>
      </trkpt>
      <trkpt lat="42.8633131" lon="-5.2909894">
        <ele>1592.7</ele>
        <time>2016-08-30T15:25:25Z</time>
      </trkpt>
      <trkpt lat="42.8633413" lon="-5.2906938">
        <ele>1589.1</ele>
        <time>2016-08-30T15:25:27Z</time>
      </trkpt>
      <trkpt lat="42.8633546" lon="-5.2903907">
        <ele>1583.5</ele>
        <time>2016-08-30T15:25:29Z</time>
      </trkpt>
      <trkpt lat="42.8633599" lon="-5.290092">
        <ele>1577.5</ele>
        <time>2016-08-30T15:25:31Z</time>
      </trkpt>
      <trkpt lat="42.8633516" lon="-5.2897977">
        <ele>1572.9</ele>
        <time>2016-08-30T15:25:33Z</time>
      </trkpt>
      <trkpt lat="42.8633423" lon="-5.2895063">
        <ele>1568.7</ele>
        <time>2016-08-30T15:25:35Z</time>
      </trkpt>
      <trkpt lat="42.8633301" lon="-5.2891751">
        <ele>1564.9</ele>
        <time>2016-08-30T15:25:37Z</time>
      </trkpt>
      <trkpt lat="42.863316" lon="-5.2888581">
        <ele>1563.0</ele>
        <time>2016-08-30T15:25:39Z</time>
      </trkpt>
      <trkpt lat="42.8633012" lon="-5.288584">
        <ele>1560.1</ele>
        <time>2016-08-30T15:25:41Z</time>
      </trkpt>
      <trkpt lat="42.8633002" lon="-5.2883317">
        <ele>1556.0</ele>
        <time>2016-08-30T15:25:43Z</time>
      </trkpt>
      <trkpt lat="42.8633594" lon="-5.2880444">
        <ele>1553.0</ele>
        <time>2016-08-30T15:25:45Z</time>
      </trkpt>
      <trkpt lat="42.8634359" lon="-5.2877333">
        <ele>1550.6</ele>
        <time>2016-08-30T15:25:47Z</time>
      </trkpt>
      <trkpt lat="42.8634085" lon="-5.2874288">
        <ele>1547.5</ele>
        <time>2016-08-30T15:25:49Z</time>
      </trkpt>
      <trkpt lat="42.8633264" lon="-5.2871857">
        <ele>1543.3</ele>
        <time>2016-08-30T15:25:51Z</time>
      </trkpt>
      <trkpt lat="42.8632442" lon="-5.2869879">
        <ele>1540.0</ele>
        <time>2016-08-30T15:25:53Z</time>
      </trkpt>
      <trkpt lat="42.8631369" lon="-5.2868285">
        <ele>1536.9</ele>
        <time>2016-08-30T15:25:55Z</time>
      </trkpt>
      <trkpt lat="42.8629973" lon="-5.2868903">
        <ele>1532.3</ele>
        <time>2016-08-30T15:25:58Z</time>
      </trkpt>
      <trkpt lat="42.8630672" lon="-5.2871091">
        <ele>1529.3</ele>
        <time>2016-08-30T15:26:01Z</time>
      </trkpt>
      <trkpt lat="42.8632321" lon="-5.2872197">
        <ele>1528.9</ele>
        <time>2016-08-30T15:26:03Z</time>
      </trkpt>
      <trkpt lat="42.8634334" lon="-5.287145">
        <ele>1528.8</ele>
        <time>2016-08-30T15:26:05Z</time>
      </trkpt>
      <trkpt lat="42.8635671" lon="-5.2868966">
        <ele>1528.8</ele>
        <time>2016-08-30T15:26:07Z</time>
      </trkpt>
      <trkpt lat="42.8635951" lon="-5.2866011">
        <ele>1528.8</ele>
        <time>2016-08-30T15:26:09Z</time>
      </trkpt>
      <trkpt lat="42.863538" lon="-5.2863896">
        <ele>1528.8</ele>
        <time>2016-08-30T15:26:11Z</time>
      </trkpt>
      <trkpt lat="42.8634202" lon="-5.2862793">
        <ele>1528.8</ele>
        <time>2016-08-30T15:26:13Z</time>
      </trkpt>
      <trkpt lat="42.8633032" lon="-5.2862959">
        <ele>1528.8</ele>
        <time>2016-08-30T15:26:15Z</time>
      </trkpt>
      <trkpt lat="42.8632433" lon="-5.286402">
        <ele>1528.8</ele>
        <time>2016-08-30T15:26:17Z</time>
      </trkpt>
      <trkpt lat="42.8633122" lon="-5.2865913">
        <ele>1528.8</ele>
        <time>2016-08-30T15:26:20Z</time>
      </trkpt>
      <trkpt lat="42.8634737" lon="-5.2866879">
        <ele>1528.8</ele>
        <time>2016-08-30T15:26:22Z</time>
      </trkpt>
      <trkpt lat="42.8635847" lon="-5.2866807">
        <ele>1528.8</ele>
        <time>2016-08-30T15:26:23Z</time>
      </trkpt>
      <trkpt lat="42.8636945" lon="-5.2866156">
        <ele>1528.8</ele>
        <time>2016-08-30T15:26:24Z</time>
      </trkpt>
      <trkpt lat="42.8637866" lon="-5.2865058">
        <ele>1528.8</ele>
        <time>2016-08-30T15:26:25Z</time>
      </trkpt>
      <trkpt lat="42.8638528" lon="-5.286367">
        <ele>1528.8</ele>
        <time>2016-08-30T15:26:26Z</time>
      </trkpt>
      <trkpt lat="42.8638952" lon="-5.2862218">
        <ele>1528.8</ele>
        <time>2016-08-30T15:26:27Z</time>
      </trkpt>
      <trkpt lat="42.8639471" lon="-5.2859758">
        <ele>1529.4</ele>
        <time>2016-08-30T15:26:29Z</time>
      </trkpt>
      <trkpt lat="42.8639527" lon="-5.2857314">
        <ele>1531.3</ele>
        <time>2016-08-30T15:26:31Z</time>
      </trkpt>
      <trkpt lat="42.8638856" lon="-5.2854687">
        <ele>1532.2</ele>
        <time>2016-08-30T15:26:33Z</time>
      </trkpt>
      <trkpt lat="42.8637575" lon="-5.2852994">
        <ele>1532.6</ele>
        <time>2016-08-30T15:26:35Z</time>
      </trkpt>
      <trkpt lat="42.8636583" lon="-5.2851555">
        <ele>1532.9</ele>
        <time>2016-08-30T15:26:37Z</time>
      </trkpt>
      <trkpt lat="42.8635838" lon="-5.2849698">
        <ele>1534.4</ele>
        <time>2016-08-30T15:26:39Z</time>
      </trkpt>
      <trkpt lat="42.863453" lon="-5.2849103">
        <ele>1537.9</ele>
        <time>2016-08-30T15:26:41Z</time>
      </trkpt>
      <trkpt lat="42.8633474" lon="-5.2850286">
        <ele>1539.2</ele>
        <time>2016-08-30T15:26:43Z</time>
      </trkpt>
      <trkpt lat="42.8633659" lon="-5.2852474">
        <ele>1541.1</ele>
        <time>2016-08-30T15:26:46Z</time>
      </trkpt>
      <trkpt lat="42.8634879" lon="-5.2853677">
        <ele>1544.6</ele>
        <time>2016-08-30T15:26:48Z</time>
      </trkpt>
      <trkpt lat="42.8636944" lon="-5.2854456">
        <ele>1546.7</ele>
        <time>2016-08-30T15:26:50Z</time>
      </trkpt>
      <trkpt lat="42.8638058" lon="-5.2854303">
        <ele>1548.4</ele>
        <time>2016-08-30T15:26:51Z</time>
      </trkpt>
      <trkpt lat="42.8639122" lon="-5.2853639">
        <ele>1548.4</ele>
        <time>2016-08-30T15:26:52Z</time>
      </trkpt>
      <trkpt lat="42.8639975" lon="-5.2852581">
        <ele>1548.4</ele>
        <time>2016-08-30T15:26:53Z</time>
      </trkpt>
      <trkpt lat="42.8640525" lon="-5.2851186">
        <ele>1548.4</ele>
        <time>2016-08-30T15:26:54Z</time>
      </trkpt>
      <trkpt lat="42.8640694" lon="-5.2849712">
        <ele>1548.4</ele>
        <time>2016-08-30T15:26:55Z</time>
      </trkpt>
      <trkpt lat="42.8639542" lon="-5.2847852">
        <ele>1549.1</ele>
        <time>2016-08-30T15:26:57Z</time>
      </trkpt>
      <trkpt lat="42.8638219" lon="-5.2848253">
        <ele>1550.1</ele>
        <time>2016-08-30T15:26:59Z</time>
      </trkpt>
      <trkpt lat="42.8637803" lon="-5.2850573">
        <ele>1551.5</ele>
        <time>2016-08-30T15:27:02Z</time>
      </trkpt>
      <trkpt lat="42.8638788" lon="-5.2852032">
        <ele>1552.0</ele>
        <time>2016-08-30T15:27:04Z</time>
      </trkpt>
      <trkpt lat="42.8640876" lon="-5.285251">
        <ele>1552.2</ele>
        <time>2016-08-30T15:27:05Z</time>
      </trkpt>
      <trkpt lat="42.864324" lon="-5.2850987">
        <ele>1552.6</ele>
        <time>2016-08-30T15:27:07Z</time>
      </trkpt>
      <trkpt lat="42.8644691" lon="-5.2848728">
        <ele>1553.2</ele>
        <time>2016-08-30T15:27:09Z</time>
      </trkpt>
      <trkpt lat="42.864542" lon="-5.2846273">
        <ele>1554.0</ele>
        <time>2016-08-30T15:27:11Z</time>
      </trkpt>
      <trkpt lat="42.8645701" lon="-5.2843138">
        <ele>1554.6</ele>
        <time>2016-08-30T15:27:13Z</time>
      </trkpt>
      <trkpt lat="42.8644779" lon="-5.2840718">
        <ele>1554.8</ele>
        <time>2016-08-30T15:27:15Z</time>
      </trkpt>
      <trkpt lat="42.8643054" lon="-5.2840472">
        <ele>1555.4</ele>
        <time>2016-08-30T15:27:18Z</time>
      </trkpt>
      <trkpt lat="42.8642366" lon="-5.2841592">
        <ele>1556.7</ele>
        <time>2016-08-30T15:27:20Z</time>
      </trkpt>
      <trkpt lat="42.8642647" lon="-5.2843491">
        <ele>1557.1</ele>
        <time>2016-08-30T15:27:22Z</time>
      </trkpt>
      <trkpt lat="42.864435" lon="-5.2845126">
        <ele>1558.0</ele>
        <time>2016-08-30T15:27:24Z</time>
      </trkpt>
      <trkpt lat="42.8646636" lon="-5.2845314">
        <ele>1558.7</ele>
        <time>2016-08-30T15:27:26Z</time>
      </trkpt>
      <trkpt lat="42.8648979" lon="-5.284414">
        <ele>1559.3</ele>
        <time>2016-08-30T15:27:28Z</time>
      </trkpt>
      <trkpt lat="42.8651293" lon="-5.2845248">
        <ele>1562.0</ele>
        <time>2016-08-30T15:27:31Z</time>
      </trkpt>
      <trkpt lat="42.8650099" lon="-5.2846579">
        <ele>1565.2</ele>
        <time>2016-08-30T15:27:34Z</time>
      </trkpt>
      <trkpt lat="42.8648745" lon="-5.2844256">
        <ele>1566.0</ele>
        <time>2016-08-30T15:27:36Z</time>
      </trkpt>
      <trkpt lat="42.864887" lon="-5.2841181">
        <ele>1568.5</ele>
        <time>2016-08-30T15:27:38Z</time>
      </trkpt>
      <trkpt lat="42.8650178" lon="-5.2838643">
        <ele>1572.8</ele>
        <time>2016-08-30T15:27:40Z</time>
      </trkpt>
      <trkpt lat="42.8652281" lon="-5.2836928">
        <ele>1575.2</ele>
        <time>2016-08-30T15:27:42Z</time>
      </trkpt>
      <trkpt lat="42.8654974" lon="-5.2837979">
        <ele>1576.4</ele>
        <time>2016-08-30T15:27:45Z</time>
      </trkpt>
      <trkpt lat="42.8654121" lon="-5.2839446">
        <ele>1576.9</ele>
        <time>2016-08-30T15:27:48Z</time>
      </trkpt>
      <trkpt lat="42.8652725" lon="-5.2838418">
        <ele>1577.5</ele>
        <time>2016-08-30T15:27:50Z</time>
      </trkpt>
      <trkpt lat="42.8651783" lon="-5.2836332">
        <ele>1578.1</ele>
        <time>2016-08-30T15:27:52Z</time>
      </trkpt>
      <trkpt lat="42.865154" lon="-5.2833827">
        <ele>1578.6</ele>
        <time>2016-08-30T15:27:54Z</time>
      </trkpt>
      <trkpt lat="42.8651575" lon="-5.2830854">
        <ele>1578.8</ele>
        <time>2016-08-30T15:27:56Z</time>
      </trkpt>
      <trkpt lat="42.8650836" lon="-5.2828698">
        <ele>1579.6</ele>
        <time>2016-08-30T15:27:58Z</time>
      </trkpt>
      <trkpt lat="42.8649642" lon="-5.2827799">
        <ele>1581.4</ele>
        <time>2016-08-30T15:28:00Z</time>
      </trkpt>
      <trkpt lat="42.8648648" lon="-5.2828568">
        <ele>1582.2</ele>
        <time>2016-08-30T15:28:02Z</time>
      </trkpt>
      <trkpt lat="42.8649272" lon="-5.2831196">
        <ele>1582.6</ele>
        <time>2016-08-30T15:28:05Z</time>
      </trkpt>
      <trkpt lat="42.8650953" lon="-5.2832228">
        <ele>1584.8</ele>
        <time>2016-08-30T15:28:07Z</time>
      </trkpt>
      <trkpt lat="42.8653155" lon="-5.2831946">
        <ele>1585.9</ele>
        <time>2016-08-30T15:28:09Z</time>
      </trkpt>
      <trkpt lat="42.8655291" lon="-5.2831832">
        <ele>1586.2</ele>
        <time>2016-08-30T15:28:11Z</time>
      </trkpt>
      <trkpt lat="42.8656741" lon="-5.2833394">
        <ele>1586.3</ele>
        <time>2016-08-30T15:28:13Z</time>
      </trkpt>
      <trkpt lat="42.8656661" lon="-5.2835419">
        <ele>1586.3</ele>
        <time>2016-08-30T15:28:15Z</time>
      </trkpt>
      <trkpt lat="42.8655324" lon="-5.2836272">
        <ele>1586.3</ele>
        <time>2016-08-30T15:28:18Z</time>
      </trkpt>
      <trkpt lat="42.8654212" lon="-5.2837112">
        <ele>1586.5</ele>
        <time>2016-08-30T15:28:21Z</time>
      </trkpt>
      <trkpt lat="42.8653539" lon="-5.2839016">
        <ele>1586.7</ele>
        <time>2016-08-30T15:28:24Z</time>
      </trkpt>
      <trkpt lat="42.8653294" lon="-5.2840922">
        <ele>1587.3</ele>
        <time>2016-08-30T15:28:28Z</time>
      </trkpt>
      <trkpt lat="42.8651968" lon="-5.2841981">
        <ele>1589.7</ele>
        <time>2016-08-30T15:28:32Z</time>
      </trkpt>
      <trkpt lat="42.8651239" lon="-5.283983">
        <ele>1590.4</ele>
        <time>2016-08-30T15:28:34Z</time>
      </trkpt>
      <trkpt lat="42.8651329" lon="-5.2837329">
        <ele>1590.7</ele>
        <time>2016-08-30T15:28:36Z</time>
      </trkpt>
      <trkpt lat="42.8651614" lon="-5.2834709">
        <ele>1590.8</ele>
        <time>2016-08-30T15:28:38Z</time>
      </trkpt>
      <trkpt lat="42.8651918" lon="-5.2831759">
        <ele>1590.9</ele>
        <time>2016-08-30T15:28:40Z</time>
      </trkpt>
      <trkpt lat="42.865126" lon="-5.2829381">
        <ele>1590.9</ele>
        <time>2016-08-30T15:28:42Z</time>
      </trkpt>
      <trkpt lat="42.8649755" lon="-5.28288">
        <ele>1590.9</ele>
        <time>2016-08-30T15:28:44Z</time>
      </trkpt>
      <trkpt lat="42.864879" lon="-5.2829598">
        <ele>1590.7</ele>
        <time>2016-08-30T15:28:46Z</time>
      </trkpt>
      <trkpt lat="42.8648577" lon="-5.2831556">
        <ele>1590.5</ele>
        <time>2016-08-30T15:28:49Z</time>
      </trkpt>
      <trkpt lat="42.8649517" lon="-5.2833594">
        <ele>1590.4</ele>
        <time>2016-08-30T15:28:51Z</time>
      </trkpt>
      <trkpt lat="42.8651689" lon="-5.283501">
        <ele>1590.3</ele>
        <time>2016-08-30T15:28:53Z</time>
      </trkpt>
      <trkpt lat="42.8652974" lon="-5.2834907">
        <ele>1589.2</ele>
        <time>2016-08-30T15:28:54Z</time>
      </trkpt>
      <trkpt lat="42.8654171" lon="-5.2834421">
        <ele>1589.2</ele>
        <time>2016-08-30T15:28:55Z</time>
      </trkpt>
      <trkpt lat="42.8655359" lon="-5.2833609">
        <ele>1589.2</ele>
        <time>2016-08-30T15:28:56Z</time>
      </trkpt>
      <trkpt lat="42.8656328" lon="-5.2832544">
        <ele>1589.2</ele>
        <time>2016-08-30T15:28:57Z</time>
      </trkpt>
      <trkpt lat="42.8657067" lon="-5.2831278">
        <ele>1589.2</ele>
        <time>2016-08-30T15:28:58Z</time>
      </trkpt>
      <trkpt lat="42.8657709" lon="-5.2828278">
        <ele>1588.5</ele>
        <time>2016-08-30T15:29:00Z</time>
      </trkpt>
      <trkpt lat="42.8657361" lon="-5.2825666">
        <ele>1588.1</ele>
        <time>2016-08-30T15:29:02Z</time>
      </trkpt>
      <trkpt lat="42.865662" lon="-5.2824018">
        <ele>1587.9</ele>
        <time>2016-08-30T15:29:04Z</time>
      </trkpt>
      <trkpt lat="42.8655138" lon="-5.2822549">
        <ele>1587.7</ele>
        <time>2016-08-30T15:29:07Z</time>
      </trkpt>
      <trkpt lat="42.8653803" lon="-5.2821108">
        <ele>1587.7</ele>
        <time>2016-08-30T15:29:10Z</time>
      </trkpt>
      <trkpt lat="42.8652555" lon="-5.2818906">
        <ele>1587.7</ele>
        <time>2016-08-30T15:29:13Z</time>
      </trkpt>
      <trkpt lat="42.8651155" lon="-5.2816985">
        <ele>1587.7</ele>
        <time>2016-08-30T15:29:16Z</time>
      </trkpt>
      <trkpt lat="42.8650199" lon="-5.2815565">
        <ele>1587.7</ele>
        <time>2016-08-30T15:29:18Z</time>
      </trkpt>
      <trkpt lat="42.8648534" lon="-5.2814499">
        <ele>1587.7</ele>
        <time>2016-08-30T15:29:21Z</time>
      </trkpt>
      <trkpt lat="42.8647298" lon="-5.2814949">
        <ele>1587.7</ele>
        <time>2016-08-30T15:29:23Z</time>
      </trkpt>
      <trkpt lat="42.8646445" lon="-5.2816221">
        <ele>1587.7</ele>
        <time>2016-08-30T15:29:25Z</time>
      </trkpt>
      <trkpt lat="42.8645781" lon="-5.2817907">
        <ele>1587.4</ele>
        <time>2016-08-30T15:29:27Z</time>
      </trkpt>
      <trkpt lat="42.8645248" lon="-5.2819849">
        <ele>1586.3</ele>
        <time>2016-08-30T15:29:29Z</time>
      </trkpt>
      <trkpt lat="42.8644629" lon="-5.2821939">
        <ele>1585.5</ele>
        <time>2016-08-30T15:29:32Z</time>
      </trkpt>
      <trkpt lat="42.8644164" lon="-5.2824413">
        <ele>1584.7</ele>
        <time>2016-08-30T15:29:35Z</time>
      </trkpt>
      <trkpt lat="42.8644736" lon="-5.2826662">
        <ele>1584.2</ele>
        <time>2016-08-30T15:29:37Z</time>
      </trkpt>
      <trkpt lat="42.8646351" lon="-5.2828659">
        <ele>1583.6</ele>
        <time>2016-08-30T15:29:39Z</time>
      </trkpt>
      <trkpt lat="42.8648529" lon="-5.2829857">
        <ele>1583.0</ele>
        <time>2016-08-30T15:29:41Z</time>
      </trkpt>
      <trkpt lat="42.8649901" lon="-5.2830056">
        <ele>1582.5</ele>
        <time>2016-08-30T15:29:42Z</time>
      </trkpt>
      <trkpt lat="42.8651151" lon="-5.2829909">
        <ele>1578.2</ele>
        <time>2016-08-30T15:29:43Z</time>
      </trkpt>
      <trkpt lat="42.8652327" lon="-5.282944">
        <ele>1578.2</ele>
        <time>2016-08-30T15:29:44Z</time>
      </trkpt>
      <trkpt lat="42.8653523" lon="-5.2828611">
        <ele>1578.2</ele>
        <time>2016-08-30T15:29:45Z</time>
      </trkpt>
      <trkpt lat="42.8654377" lon="-5.2827383">
        <ele>1578.2</ele>
        <time>2016-08-30T15:29:46Z</time>
      </trkpt>
      <trkpt lat="42.8654952" lon="-5.2825969">
        <ele>1578.2</ele>
        <time>2016-08-30T15:29:47Z</time>
      </trkpt>
      <trkpt lat="42.8655487" lon="-5.2823236">
        <ele>1575.3</ele>
        <time>2016-08-30T15:29:49Z</time>
      </trkpt>
      <trkpt lat="42.8655264" lon="-5.2821041">
        <ele>1572.6</ele>
        <time>2016-08-30T15:29:51Z</time>
      </trkpt>
      <trkpt lat="42.865399" lon="-5.2819048">
        <ele>1567.4</ele>
        <time>2016-08-30T15:29:54Z</time>
      </trkpt>
      <trkpt lat="42.8652596" lon="-5.2817571">
        <ele>1563.3</ele>
        <time>2016-08-30T15:29:57Z</time>
      </trkpt>
      <trkpt lat="42.8651125" lon="-5.2816425">
        <ele>1559.1</ele>
        <time>2016-08-30T15:30:00Z</time>
      </trkpt>
      <trkpt lat="42.8650116" lon="-5.2815692">
        <ele>1556.9</ele>
        <time>2016-08-30T15:30:02Z</time>
      </trkpt>
      <trkpt lat="42.8649164" lon="-5.2815131">
        <ele>1554.8</ele>
        <time>2016-08-30T15:30:04Z</time>
      </trkpt>
      <trkpt lat="42.8648199" lon="-5.2814818">
        <ele>1551.4</ele>
        <time>2016-08-30T15:30:06Z</time>
      </trkpt>
      <trkpt lat="42.8647176" lon="-5.2814534">
        <ele>1547.5</ele>
        <time>2016-08-30T15:30:08Z</time>
      </trkpt>
      <trkpt lat="42.8645901" lon="-5.2814534">
        <ele>1543.9</ele>
        <time>2016-08-30T15:30:10Z</time>
      </trkpt>
      <trkpt lat="42.8644821" lon="-5.2814861">
        <ele>1541.2</ele>
        <time>2016-08-30T15:30:12Z</time>
      </trkpt>
      <trkpt lat="42.8643682" lon="-5.2814951">
        <ele>1539.1</ele>
        <time>2016-08-30T15:30:14Z</time>
      </trkpt>
      <trkpt lat="42.8641969" lon="-5.2815311">
        <ele>1536.8</ele>
        <time>2016-08-30T15:30:17Z</time>
      </trkpt>
      <trkpt lat="42.8638698" lon="-5.2815281">
        <ele>1532.9</ele>
        <time>2016-08-30T15:30:22Z</time>
      </trkpt>
      <trkpt lat="42.8637469" lon="-5.2815299">
        <ele>1526.6</ele>
        <time>2016-08-30T15:30:24Z</time>
      </trkpt>
      <trkpt lat="42.8636854" lon="-5.2815048">
        <ele>1526.6</ele>
        <time>2016-08-30T15:30:25Z</time>
      </trkpt>
      <trkpt lat="42.8636376" lon="-5.28145">
        <ele>1526.6</ele>
        <time>2016-08-30T15:30:26Z</time>
      </trkpt>
      <trkpt lat="42.8635941" lon="-5.2813705">
        <ele>1526.6</ele>
        <time>2016-08-30T15:30:27Z</time>
      </trkpt>
      <trkpt lat="42.8635556" lon="-5.2813026">
        <ele>1526.6</ele>
        <time>2016-08-30T15:30:28Z</time>
      </trkpt>
      <trkpt lat="42.8635177" lon="-5.2811058">
        <ele>1524.0</ele>
        <time>2016-08-30T15:30:30Z</time>
      </trkpt>
      <trkpt lat="42.8634287" lon="-5.2809471">
        <ele>1521.2</ele>
        <time>2016-08-30T15:30:32Z</time>
      </trkpt>
      <trkpt lat="42.8632595" lon="-5.280807">
        <ele>1516.2</ele>
        <time>2016-08-30T15:30:35Z</time>
      </trkpt>
      <trkpt lat="42.8631807" lon="-5.2806044">
        <ele>1510.2</ele>
        <time>2016-08-30T15:30:38Z</time>
      </trkpt>
      <trkpt lat="42.8630557" lon="-5.2804247">
        <ele>1503.0</ele>
        <time>2016-08-30T15:30:41Z</time>
      </trkpt>
      <trkpt lat="42.8629385" lon="-5.2802371">
        <ele>1497.9</ele>
        <time>2016-08-30T15:30:43Z</time>
      </trkpt>
      <trkpt lat="42.8628276" lon="-5.2800951">
        <ele>1493.1</ele>
        <time>2016-08-30T15:30:45Z</time>
      </trkpt>
      <trkpt lat="42.8627106" lon="-5.2799932">
        <ele>1489.4</ele>
        <time>2016-08-30T15:30:47Z</time>
      </trkpt>
      <trkpt lat="42.8626118" lon="-5.2798634">
        <ele>1485.1</ele>
        <time>2016-08-30T15:30:49Z</time>
      </trkpt>
      <trkpt lat="42.8625371" lon="-5.2797088">
        <ele>1482.7</ele>
        <time>2016-08-30T15:30:51Z</time>
      </trkpt>
      <trkpt lat="42.8623829" lon="-5.2795388">
        <ele>1481.4</ele>
        <time>2016-08-30T15:30:54Z</time>
      </trkpt>
      <trkpt lat="42.8622677" lon="-5.2794113">
        <ele>1480.3</ele>
        <time>2016-08-30T15:30:56Z</time>
      </trkpt>
      <trkpt lat="42.8621598" lon="-5.2792904">
        <ele>1480.0</ele>
        <time>2016-08-30T15:30:58Z</time>
      </trkpt>
      <trkpt lat="42.8620422" lon="-5.2791338">
        <ele>1479.2</ele>
        <time>2016-08-30T15:31:00Z</time>
      </trkpt>
      <trkpt lat="42.8619265" lon="-5.2790088">
        <ele>1478.7</ele>
        <time>2016-08-30T15:31:02Z</time>
      </trkpt>
      <trkpt lat="42.8618166" lon="-5.2788941">
        <ele>1478.3</ele>
        <time>2016-08-30T15:31:04Z</time>
      </trkpt>
      <trkpt lat="42.8617167" lon="-5.2787568">
        <ele>1476.8</ele>
        <time>2016-08-30T15:31:06Z</time>
      </trkpt>
      <trkpt lat="42.8616181" lon="-5.2786309">
        <ele>1476.0</ele>
        <time>2016-08-30T15:31:08Z</time>
      </trkpt>
      <trkpt lat="42.8615006" lon="-5.2785151">
        <ele>1473.4</ele>
        <time>2016-08-30T15:31:10Z</time>
      </trkpt>
      <trkpt lat="42.8613784" lon="-5.2784038">
        <ele>1468.3</ele>
        <time>2016-08-30T15:31:12Z</time>
      </trkpt>
      <trkpt lat="42.8612314" lon="-5.2782943">
        <ele>1464.0</ele>
        <time>2016-08-30T15:31:14Z</time>
      </trkpt>
      <trkpt lat="42.8611062" lon="-5.2782172">
        <ele>1461.6</ele>
        <time>2016-08-30T15:31:16Z</time>
      </trkpt>
      <trkpt lat="42.8609728" lon="-5.2781119">
        <ele>1459.2</ele>
        <time>2016-08-30T15:31:18Z</time>
      </trkpt>
      <trkpt lat="42.8609185" lon="-5.2780561">
        <ele>1459.2</ele>
        <time>2016-08-30T15:31:19Z</time>
      </trkpt>
      <trkpt lat="42.8608566" lon="-5.2779841">
        <ele>1459.2</ele>
        <time>2016-08-30T15:31:20Z</time>
      </trkpt>
      <trkpt lat="42.8607397" lon="-5.2778543">
        <ele>1459.2</ele>
        <time>2016-08-30T15:31:22Z</time>
      </trkpt>
      <trkpt lat="42.8606277" lon="-5.2777276">
        <ele>1455.3</ele>
        <time>2016-08-30T15:31:24Z</time>
      </trkpt>
      <trkpt lat="42.8605086" lon="-5.277586">
        <ele>1451.7</ele>
        <time>2016-08-30T15:31:26Z</time>
      </trkpt>
      <trkpt lat="42.8604168" lon="-5.277438">
        <ele>1447.7</ele>
        <time>2016-08-30T15:31:28Z</time>
      </trkpt>
      <trkpt lat="42.8603487" lon="-5.2772503">
        <ele>1444.7</ele>
        <time>2016-08-30T15:31:30Z</time>
      </trkpt>
      <trkpt lat="42.8602598" lon="-5.2770834">
        <ele>1442.3</ele>
        <time>2016-08-30T15:31:32Z</time>
      </trkpt>
      <trkpt lat="42.8600954" lon="-5.2770458">
        <ele>1439.1</ele>
        <time>2016-08-30T15:31:35Z</time>
      </trkpt>
      <trkpt lat="42.8599636" lon="-5.2771798">
        <ele>1435.2</ele>
        <time>2016-08-30T15:31:37Z</time>
      </trkpt>
      <trkpt lat="42.8599408" lon="-5.2773776">
        <ele>1431.6</ele>
        <time>2016-08-30T15:31:39Z</time>
      </trkpt>
      <trkpt lat="42.8599982" lon="-5.2775451">
        <ele>1427.5</ele>
        <time>2016-08-30T15:31:41Z</time>
      </trkpt>
      <trkpt lat="42.8600366" lon="-5.2777396">
        <ele>1423.2</ele>
        <time>2016-08-30T15:31:43Z</time>
      </trkpt>
      <trkpt lat="42.8598725" lon="-5.2778296">
        <ele>1417.8</ele>
        <time>2016-08-30T15:31:46Z</time>
      </trkpt>
      <trkpt lat="42.8597652" lon="-5.2776548">
        <ele>1416.0</ele>
        <time>2016-08-30T15:31:48Z</time>
      </trkpt>
      <trkpt lat="42.859738" lon="-5.2773612">
        <ele>1415.3</ele>
        <time>2016-08-30T15:31:50Z</time>
      </trkpt>
      <trkpt lat="42.8597318" lon="-5.2770572">
        <ele>1415.0</ele>
        <time>2016-08-30T15:31:52Z</time>
      </trkpt>
      <trkpt lat="42.8596412" lon="-5.2768354">
        <ele>1414.8</ele>
        <time>2016-08-30T15:31:54Z</time>
      </trkpt>
      <trkpt lat="42.8595016" lon="-5.2767356">
        <ele>1414.1</ele>
        <time>2016-08-30T15:31:56Z</time>
      </trkpt>
      <trkpt lat="42.8593224" lon="-5.2765935">
        <ele>1413.5</ele>
        <time>2016-08-30T15:31:59Z</time>
      </trkpt>
      <trkpt lat="42.8592079" lon="-5.2765329">
        <ele>1412.7</ele>
        <time>2016-08-30T15:32:01Z</time>
      </trkpt>
      <trkpt lat="42.8590607" lon="-5.2764899">
        <ele>1412.3</ele>
        <time>2016-08-30T15:32:03Z</time>
      </trkpt>
      <trkpt lat="42.858823" lon="-5.2764039">
        <ele>1411.6</ele>
        <time>2016-08-30T15:32:07Z</time>
      </trkpt>
      <trkpt lat="42.8587215" lon="-5.2763891">
        <ele>1411.3</ele>
        <time>2016-08-30T15:32:09Z</time>
      </trkpt>
      <trkpt lat="42.8585962" lon="-5.2763825">
        <ele>1411.0</ele>
        <time>2016-08-30T15:32:11Z</time>
      </trkpt>
      <trkpt lat="42.8583648" lon="-5.2764248">
        <ele>1410.2</ele>
        <time>2016-08-30T15:32:14Z</time>
      </trkpt>
      <trkpt lat="42.8581785" lon="-5.2765003">
        <ele>1408.5</ele>
        <time>2016-08-30T15:32:17Z</time>
      </trkpt>
      <trkpt lat="42.8580336" lon="-5.2765268">
        <ele>1407.3</ele>
        <time>2016-08-30T15:32:19Z</time>
      </trkpt>
      <trkpt lat="42.8579213" lon="-5.2766149">
        <ele>1406.1</ele>
        <time>2016-08-30T15:32:21Z</time>
      </trkpt>
      <trkpt lat="42.8578166" lon="-5.2767339">
        <ele>1405.2</ele>
        <time>2016-08-30T15:32:23Z</time>
      </trkpt>
      <trkpt lat="42.8576838" lon="-5.2768974">
        <ele>1402.3</ele>
        <time>2016-08-30T15:32:26Z</time>
      </trkpt>
      <trkpt lat="42.8575571" lon="-5.2770232">
        <ele>1400.7</ele>
        <time>2016-08-30T15:32:29Z</time>
      </trkpt>
      <trkpt lat="42.8574443" lon="-5.2771528">
        <ele>1397.7</ele>
        <time>2016-08-30T15:32:32Z</time>
      </trkpt>
      <trkpt lat="42.857296" lon="-5.2772735">
        <ele>1392.3</ele>
        <time>2016-08-30T15:32:35Z</time>
      </trkpt>
      <trkpt lat="42.8572127" lon="-5.2774368">
        <ele>1390.3</ele>
        <time>2016-08-30T15:32:38Z</time>
      </trkpt>
      <trkpt lat="42.8571439" lon="-5.2776438">
        <ele>1386.6</ele>
        <time>2016-08-30T15:32:41Z</time>
      </trkpt>
      <trkpt lat="42.857042" lon="-5.2777984">
        <ele>1379.1</ele>
        <time>2016-08-30T15:32:44Z</time>
      </trkpt>
      <trkpt lat="42.8568686" lon="-5.2777269">
        <ele>1375.7</ele>
        <time>2016-08-30T15:32:47Z</time>
      </trkpt>
      <trkpt lat="42.8567419" lon="-5.2776853">
        <ele>1375.1</ele>
        <time>2016-08-30T15:32:49Z</time>
      </trkpt>
      <trkpt lat="42.8566033" lon="-5.2776673">
        <ele>1373.5</ele>
        <time>2016-08-30T15:32:51Z</time>
      </trkpt>
      <trkpt lat="42.8564709" lon="-5.2776139">
        <ele>1371.9</ele>
        <time>2016-08-30T15:32:53Z</time>
      </trkpt>
      <trkpt lat="42.8563643" lon="-5.2775343">
        <ele>1367.3</ele>
        <time>2016-08-30T15:32:55Z</time>
      </trkpt>
      <trkpt lat="42.8563178" lon="-5.2774782">
        <ele>1367.3</ele>
        <time>2016-08-30T15:32:56Z</time>
      </trkpt>
      <trkpt lat="42.8562698" lon="-5.2774291">
        <ele>1367.3</ele>
        <time>2016-08-30T15:32:57Z</time>
      </trkpt>
      <trkpt lat="42.8562308" lon="-5.2773585">
        <ele>1367.3</ele>
        <time>2016-08-30T15:32:58Z</time>
      </trkpt>
      <trkpt lat="42.8561864" lon="-5.2772865">
        <ele>1367.3</ele>
        <time>2016-08-30T15:32:59Z</time>
      </trkpt>
      <trkpt lat="42.8560803" lon="-5.2771171">
        <ele>1366.6</ele>
        <time>2016-08-30T15:33:01Z</time>
      </trkpt>
      <trkpt lat="42.8559801" lon="-5.2769214">
        <ele>1365.6</ele>
        <time>2016-08-30T15:33:03Z</time>
      </trkpt>
      <trkpt lat="42.8558857" lon="-5.2767392">
        <ele>1365.0</ele>
        <time>2016-08-30T15:33:05Z</time>
      </trkpt>
      <trkpt lat="42.8557653" lon="-5.2765383">
        <ele>1364.7</ele>
        <time>2016-08-30T15:33:07Z</time>
      </trkpt>
      <trkpt lat="42.8556431" lon="-5.2763678">
        <ele>1364.1</ele>
        <time>2016-08-30T15:33:09Z</time>
      </trkpt>
      <trkpt lat="42.855536" lon="-5.276253">
        <ele>1362.5</ele>
        <time>2016-08-30T15:33:11Z</time>
      </trkpt>
      <trkpt lat="42.8554231" lon="-5.2760457">
        <ele>1358.9</ele>
        <time>2016-08-30T15:33:14Z</time>
      </trkpt>
      <trkpt lat="42.8553213" lon="-5.2759027">
        <ele>1356.8</ele>
        <time>2016-08-30T15:33:16Z</time>
      </trkpt>
      <trkpt lat="42.8552421" lon="-5.2756973">
        <ele>1353.8</ele>
        <time>2016-08-30T15:33:18Z</time>
      </trkpt>
      <trkpt lat="42.8551429" lon="-5.2755299">
        <ele>1350.4</ele>
        <time>2016-08-30T15:33:20Z</time>
      </trkpt>
      <trkpt lat="42.8550329" lon="-5.2754077">
        <ele>1345.0</ele>
        <time>2016-08-30T15:33:22Z</time>
      </trkpt>
      <trkpt lat="42.8549051" lon="-5.2752129">
        <ele>1341.7</ele>
        <time>2016-08-30T15:33:25Z</time>
      </trkpt>
      <trkpt lat="42.8547721" lon="-5.2750034">
        <ele>1340.6</ele>
        <time>2016-08-30T15:33:28Z</time>
      </trkpt>
      <trkpt lat="42.8546641" lon="-5.2748501">
        <ele>1340.2</ele>
        <time>2016-08-30T15:33:30Z</time>
      </trkpt>
      <trkpt lat="42.8545412" lon="-5.2747105">
        <ele>1337.9</ele>
        <time>2016-08-30T15:33:32Z</time>
      </trkpt>
      <trkpt lat="42.8544341" lon="-5.2745894">
        <ele>1335.3</ele>
        <time>2016-08-30T15:33:34Z</time>
      </trkpt>
      <trkpt lat="42.8542624" lon="-5.2744121">
        <ele>1331.0</ele>
        <time>2016-08-30T15:33:37Z</time>
      </trkpt>
      <trkpt lat="42.8541231" lon="-5.2742932">
        <ele>1327.2</ele>
        <time>2016-08-30T15:33:39Z</time>
      </trkpt>
      <trkpt lat="42.8539942" lon="-5.2741744">
        <ele>1325.6</ele>
        <time>2016-08-30T15:33:41Z</time>
      </trkpt>
      <trkpt lat="42.8538735" lon="-5.2740717">
        <ele>1324.7</ele>
        <time>2016-08-30T15:33:43Z</time>
      </trkpt>
      <trkpt lat="42.8537376" lon="-5.2739677">
        <ele>1322.7</ele>
        <time>2016-08-30T15:33:45Z</time>
      </trkpt>
      <trkpt lat="42.853659" lon="-5.2739065">
        <ele>1320.5</ele>
        <time>2016-08-30T15:33:46Z</time>
      </trkpt>
      <trkpt lat="42.8535168" lon="-5.2738367">
        <ele>1316.0</ele>
        <time>2016-08-30T15:33:48Z</time>
      </trkpt>
      <trkpt lat="42.8532861" lon="-5.2735975">
        <ele>1308.8</ele>
        <time>2016-08-30T15:33:52Z</time>
      </trkpt>
      <trkpt lat="42.8531675" lon="-5.2734833">
        <ele>1307.5</ele>
        <time>2016-08-30T15:33:54Z</time>
      </trkpt>
      <trkpt lat="42.853035" lon="-5.2733544">
        <ele>1306.1</ele>
        <time>2016-08-30T15:33:56Z</time>
      </trkpt>
      <trkpt lat="42.852884" lon="-5.2731949">
        <ele>1303.4</ele>
        <time>2016-08-30T15:33:58Z</time>
      </trkpt>
      <trkpt lat="42.852725" lon="-5.2730399">
        <ele>1298.4</ele>
        <time>2016-08-30T15:34:00Z</time>
      </trkpt>
      <trkpt lat="42.8526038" lon="-5.272885">
        <ele>1293.3</ele>
        <time>2016-08-30T15:34:02Z</time>
      </trkpt>
      <trkpt lat="42.8525233" lon="-5.2726699">
        <ele>1289.9</ele>
        <time>2016-08-30T15:34:04Z</time>
      </trkpt>
      <trkpt lat="42.852438" lon="-5.2724583">
        <ele>1286.1</ele>
        <time>2016-08-30T15:34:06Z</time>
      </trkpt>
      <trkpt lat="42.8522705" lon="-5.2723723">
        <ele>1280.2</ele>
        <time>2016-08-30T15:34:08Z</time>
      </trkpt>
      <trkpt lat="42.8521245" lon="-5.2724115">
        <ele>1274.5</ele>
        <time>2016-08-30T15:34:10Z</time>
      </trkpt>
      <trkpt lat="42.8520752" lon="-5.2725349">
        <ele>1270.2</ele>
        <time>2016-08-30T15:34:12Z</time>
      </trkpt>
      <trkpt lat="42.8520597" lon="-5.2727572">
        <ele>1264.1</ele>
        <time>2016-08-30T15:34:15Z</time>
      </trkpt>
      <trkpt lat="42.8519473" lon="-5.2728622">
        <ele>1259.8</ele>
        <time>2016-08-30T15:34:17Z</time>
      </trkpt>
      <trkpt lat="42.8517481" lon="-5.2727379">
        <ele>1256.9</ele>
        <time>2016-08-30T15:34:19Z</time>
      </trkpt>
      <trkpt lat="42.8517072" lon="-5.2724112">
        <ele>1255.3</ele>
        <time>2016-08-30T15:34:21Z</time>
      </trkpt>
      <trkpt lat="42.8518086" lon="-5.2721394">
        <ele>1253.0</ele>
        <time>2016-08-30T15:34:23Z</time>
      </trkpt>
      <trkpt lat="42.8519815" lon="-5.2720027">
        <ele>1252.1</ele>
        <time>2016-08-30T15:34:25Z</time>
      </trkpt>
      <trkpt lat="42.8522337" lon="-5.2721168">
        <ele>1251.4</ele>
        <time>2016-08-30T15:34:28Z</time>
      </trkpt>
      <trkpt lat="42.8522586" lon="-5.2723339">
        <ele>1251.0</ele>
        <time>2016-08-30T15:34:30Z</time>
      </trkpt>
      <trkpt lat="42.8521616" lon="-5.2724903">
        <ele>1250.7</ele>
        <time>2016-08-30T15:34:32Z</time>
      </trkpt>
      <trkpt lat="42.852106" lon="-5.2726687">
        <ele>1250.3</ele>
        <time>2016-08-30T15:34:34Z</time>
      </trkpt>
      <trkpt lat="42.8521392" lon="-5.2728634">
        <ele>1250.2</ele>
        <time>2016-08-30T15:34:36Z</time>
      </trkpt>
      <trkpt lat="42.852024" lon="-5.2730688">
        <ele>1250.2</ele>
        <time>2016-08-30T15:34:39Z</time>
      </trkpt>
      <trkpt lat="42.8518267" lon="-5.2729699">
        <ele>1250.1</ele>
        <time>2016-08-30T15:34:41Z</time>
      </trkpt>
      <trkpt lat="42.851762" lon="-5.2727246">
        <ele>1249.9</ele>
        <time>2016-08-30T15:34:43Z</time>
      </trkpt>
      <trkpt lat="42.8518435" lon="-5.2724416">
        <ele>1249.9</ele>
        <time>2016-08-30T15:34:45Z</time>
      </trkpt>
      <trkpt lat="42.8520346" lon="-5.2722924">
        <ele>1249.9</ele>
        <time>2016-08-30T15:34:47Z</time>
      </trkpt>
      <trkpt lat="42.8521914" lon="-5.272399">
        <ele>1249.8</ele>
        <time>2016-08-30T15:34:49Z</time>
      </trkpt>
      <trkpt lat="42.8522254" lon="-5.2725786">
        <ele>1249.8</ele>
        <time>2016-08-30T15:34:51Z</time>
      </trkpt>
      <trkpt lat="42.8521122" lon="-5.2727368">
        <ele>1249.8</ele>
        <time>2016-08-30T15:34:54Z</time>
      </trkpt>
      <trkpt lat="42.8519768" lon="-5.2727374">
        <ele>1249.9</ele>
        <time>2016-08-30T15:34:56Z</time>
      </trkpt>
      <trkpt lat="42.8518832" lon="-5.2725665">
        <ele>1250.1</ele>
        <time>2016-08-30T15:34:58Z</time>
      </trkpt>
      <trkpt lat="42.8519115" lon="-5.2722645">
        <ele>1250.4</ele>
        <time>2016-08-30T15:35:00Z</time>
      </trkpt>
      <trkpt lat="42.8520618" lon="-5.2720051">
        <ele>1250.6</ele>
        <time>2016-08-30T15:35:02Z</time>
      </trkpt>
      <trkpt lat="42.8522672" lon="-5.2719367">
        <ele>1250.7</ele>
        <time>2016-08-30T15:35:04Z</time>
      </trkpt>
      <trkpt lat="42.8524235" lon="-5.272034">
        <ele>1250.9</ele>
        <time>2016-08-30T15:35:06Z</time>
      </trkpt>
      <trkpt lat="42.8524655" lon="-5.2722207">
        <ele>1251.4</ele>
        <time>2016-08-30T15:35:09Z</time>
      </trkpt>
      <trkpt lat="42.8523253" lon="-5.2724061">
        <ele>1252.0</ele>
        <time>2016-08-30T15:35:13Z</time>
      </trkpt>
      <trkpt lat="42.8522344" lon="-5.2723714">
        <ele>1252.2</ele>
        <time>2016-08-30T15:35:14Z</time>
      </trkpt>
      <trkpt lat="42.8521307" lon="-5.2721401">
        <ele>1252.7</ele>
        <time>2016-08-30T15:35:16Z</time>
      </trkpt>
      <trkpt lat="42.8521639" lon="-5.2718772">
        <ele>1253.0</ele>
        <time>2016-08-30T15:35:18Z</time>
      </trkpt>
      <trkpt lat="42.8523214" lon="-5.2717148">
        <ele>1253.5</ele>
        <time>2016-08-30T15:35:20Z</time>
      </trkpt>
      <trkpt lat="42.8525857" lon="-5.2717884">
        <ele>1254.4</ele>
        <time>2016-08-30T15:35:23Z</time>
      </trkpt>
      <trkpt lat="42.85265" lon="-5.2719742">
        <ele>1255.5</ele>
        <time>2016-08-30T15:35:25Z</time>
      </trkpt>
      <trkpt lat="42.8526971" lon="-5.272178">
        <ele>1256.7</ele>
        <time>2016-08-30T15:35:28Z</time>
      </trkpt>
      <trkpt lat="42.8527374" lon="-5.2723928">
        <ele>1258.3</ele>
        <time>2016-08-30T15:35:32Z</time>
      </trkpt>
      <trkpt lat="42.852847" lon="-5.2726169">
        <ele>1259.2</ele>
        <time>2016-08-30T15:35:36Z</time>
      </trkpt>
      <trkpt lat="42.8528667" lon="-5.2728162">
        <ele>1259.8</ele>
        <time>2016-08-30T15:35:39Z</time>
      </trkpt>
      <trkpt lat="42.8527218" lon="-5.2728742">
        <ele>1260.7</ele>
        <time>2016-08-30T15:35:42Z</time>
      </trkpt>
      <trkpt lat="42.852629" lon="-5.2728514">
        <ele>1262.0</ele>
        <time>2016-08-30T15:35:44Z</time>
      </trkpt>
      <trkpt lat="42.8525759" lon="-5.2728019">
        <ele>1262.0</ele>
        <time>2016-08-30T15:35:45Z</time>
      </trkpt>
      <trkpt lat="42.8525081" lon="-5.2727139">
        <ele>1262.0</ele>
        <time>2016-08-30T15:35:46Z</time>
      </trkpt>
      <trkpt lat="42.8524565" lon="-5.2726032">
        <ele>1262.0</ele>
        <time>2016-08-30T15:35:47Z</time>
      </trkpt>
      <trkpt lat="42.8524259" lon="-5.2724593">
        <ele>1262.0</ele>
        <time>2016-08-30T15:35:48Z</time>
      </trkpt>
      <trkpt lat="42.8524289" lon="-5.272144">
        <ele>1262.7</ele>
        <time>2016-08-30T15:35:50Z</time>
      </trkpt>
      <trkpt lat="42.8525342" lon="-5.271884">
        <ele>1263.1</ele>
        <time>2016-08-30T15:35:52Z</time>
      </trkpt>
      <trkpt lat="42.8527344" lon="-5.2717701">
        <ele>1263.9</ele>
        <time>2016-08-30T15:35:54Z</time>
      </trkpt>
      <trkpt lat="42.8529522" lon="-5.2718288">
        <ele>1265.2</ele>
        <time>2016-08-30T15:35:57Z</time>
      </trkpt>
      <trkpt lat="42.8528313" lon="-5.2719422">
        <ele>1267.6</ele>
        <time>2016-08-30T15:36:02Z</time>
      </trkpt>
      <trkpt lat="42.8527157" lon="-5.2717159">
        <ele>1268.2</ele>
        <time>2016-08-30T15:36:04Z</time>
      </trkpt>
      <trkpt lat="42.8527099" lon="-5.2713925">
        <ele>1269.1</ele>
        <time>2016-08-30T15:36:06Z</time>
      </trkpt>
      <trkpt lat="42.8528316" lon="-5.2711326">
        <ele>1270.4</ele>
        <time>2016-08-30T15:36:08Z</time>
      </trkpt>
      <trkpt lat="42.8529906" lon="-5.2709947">
        <ele>1270.9</ele>
        <time>2016-08-30T15:36:10Z</time>
      </trkpt>
      <trkpt lat="42.8532611" lon="-5.2708812">
        <ele>1271.8</ele>
        <time>2016-08-30T15:36:13Z</time>
      </trkpt>
      <trkpt lat="42.8533723" lon="-5.2709352">
        <ele>1272.8</ele>
        <time>2016-08-30T15:36:15Z</time>
      </trkpt>
      <trkpt lat="42.8532348" lon="-5.2710485">
        <ele>1274.0</ele>
        <time>2016-08-30T15:36:19Z</time>
      </trkpt>
      <trkpt lat="42.8531537" lon="-5.2709943">
        <ele>1274.3</ele>
        <time>2016-08-30T15:36:20Z</time>
      </trkpt>
      <trkpt lat="42.8530398" lon="-5.2707793">
        <ele>1274.8</ele>
        <time>2016-08-30T15:36:22Z</time>
      </trkpt>
      <trkpt lat="42.8529868" lon="-5.2704939">
        <ele>1275.3</ele>
        <time>2016-08-30T15:36:24Z</time>
      </trkpt>
      <trkpt lat="42.8529562" lon="-5.2701773">
        <ele>1276.2</ele>
        <time>2016-08-30T15:36:26Z</time>
      </trkpt>
      <trkpt lat="42.8529276" lon="-5.269877">
        <ele>1276.5</ele>
        <time>2016-08-30T15:36:28Z</time>
      </trkpt>
      <trkpt lat="42.852968" lon="-5.2695763">
        <ele>1277.0</ele>
        <time>2016-08-30T15:36:30Z</time>
      </trkpt>
      <trkpt lat="42.8530608" lon="-5.2693056">
        <ele>1277.4</ele>
        <time>2016-08-30T15:36:32Z</time>
      </trkpt>
      <trkpt lat="42.8530703" lon="-5.2690248">
        <ele>1278.1</ele>
        <time>2016-08-30T15:36:34Z</time>
      </trkpt>
      <trkpt lat="42.852982" lon="-5.2687787">
        <ele>1278.7</ele>
        <time>2016-08-30T15:36:36Z</time>
      </trkpt>
      <trkpt lat="42.8528318" lon="-5.2686516">
        <ele>1278.8</ele>
        <time>2016-08-30T15:36:38Z</time>
      </trkpt>
      <trkpt lat="42.8527414" lon="-5.2687148">
        <ele>1279.2</ele>
        <time>2016-08-30T15:36:40Z</time>
      </trkpt>
      <trkpt lat="42.8527165" lon="-5.2689194">
        <ele>1279.8</ele>
        <time>2016-08-30T15:36:43Z</time>
      </trkpt>
      <trkpt lat="42.8528564" lon="-5.2691469">
        <ele>1280.6</ele>
        <time>2016-08-30T15:36:46Z</time>
      </trkpt>
      <trkpt lat="42.8529294" lon="-5.2693388">
        <ele>1281.1</ele>
        <time>2016-08-30T15:36:48Z</time>
      </trkpt>
      <trkpt lat="42.8529983" lon="-5.2695042">
        <ele>1281.4</ele>
        <time>2016-08-30T15:36:50Z</time>
      </trkpt>
      <trkpt lat="42.8530754" lon="-5.2696806">
        <ele>1282.4</ele>
        <time>2016-08-30T15:36:52Z</time>
      </trkpt>
      <trkpt lat="42.8531524" lon="-5.2698708">
        <ele>1283.0</ele>
        <time>2016-08-30T15:36:54Z</time>
      </trkpt>
      <trkpt lat="42.8532801" lon="-5.2700031">
        <ele>1284.3</ele>
        <time>2016-08-30T15:36:57Z</time>
      </trkpt>
      <trkpt lat="42.8534037" lon="-5.2700443">
        <ele>1285.6</ele>
        <time>2016-08-30T15:36:59Z</time>
      </trkpt>
      <trkpt lat="42.8534889" lon="-5.2701384">
        <ele>1286.6</ele>
        <time>2016-08-30T15:37:01Z</time>
      </trkpt>
      <trkpt lat="42.8533102" lon="-5.2701164">
        <ele>1288.0</ele>
        <time>2016-08-30T15:37:05Z</time>
      </trkpt>
      <trkpt lat="42.8532274" lon="-5.2698557">
        <ele>1288.3</ele>
        <time>2016-08-30T15:37:07Z</time>
      </trkpt>
      <trkpt lat="42.8532438" lon="-5.2695537">
        <ele>1288.6</ele>
        <time>2016-08-30T15:37:09Z</time>
      </trkpt>
      <trkpt lat="42.8533651" lon="-5.269277">
        <ele>1289.1</ele>
        <time>2016-08-30T15:37:11Z</time>
      </trkpt>
      <trkpt lat="42.8535648" lon="-5.2691151">
        <ele>1289.4</ele>
        <time>2016-08-30T15:37:13Z</time>
      </trkpt>
      <trkpt lat="42.8537186" lon="-5.2691518">
        <ele>1289.8</ele>
        <time>2016-08-30T15:37:15Z</time>
      </trkpt>
      <trkpt lat="42.8537999" lon="-5.2692687">
        <ele>1290.2</ele>
        <time>2016-08-30T15:37:17Z</time>
      </trkpt>
      <trkpt lat="42.8536605" lon="-5.2693209">
        <ele>1291.8</ele>
        <time>2016-08-30T15:37:21Z</time>
      </trkpt>
      <trkpt lat="42.8535486" lon="-5.2691193">
        <ele>1293.1</ele>
        <time>2016-08-30T15:37:23Z</time>
      </trkpt>
      <trkpt lat="42.8535712" lon="-5.2688152">
        <ele>1296.2</ele>
        <time>2016-08-30T15:37:25Z</time>
      </trkpt>
      <trkpt lat="42.85373" lon="-5.2685409">
        <ele>1299.5</ele>
        <time>2016-08-30T15:37:27Z</time>
      </trkpt>
      <trkpt lat="42.8539434" lon="-5.2684035">
        <ele>1300.8</ele>
        <time>2016-08-30T15:37:29Z</time>
      </trkpt>
      <trkpt lat="42.8541478" lon="-5.2685059">
        <ele>1301.8</ele>
        <time>2016-08-30T15:37:32Z</time>
      </trkpt>
      <trkpt lat="42.8540405" lon="-5.2686334">
        <ele>1304.0</ele>
        <time>2016-08-30T15:37:37Z</time>
      </trkpt>
      <trkpt lat="42.8539453" lon="-5.2684482">
        <ele>1304.5</ele>
        <time>2016-08-30T15:37:39Z</time>
      </trkpt>
      <trkpt lat="42.8539564" lon="-5.2681453">
        <ele>1307.1</ele>
        <time>2016-08-30T15:37:41Z</time>
      </trkpt>
      <trkpt lat="42.8540245" lon="-5.2678211">
        <ele>1310.7</ele>
        <time>2016-08-30T15:37:43Z</time>
      </trkpt>
      <trkpt lat="42.8542106" lon="-5.2676155">
        <ele>1312.2</ele>
        <time>2016-08-30T15:37:45Z</time>
      </trkpt>
      <trkpt lat="42.8544238" lon="-5.267611">
        <ele>1313.3</ele>
        <time>2016-08-30T15:37:47Z</time>
      </trkpt>
      <trkpt lat="42.8545565" lon="-5.2677345">
        <ele>1314.2</ele>
        <time>2016-08-30T15:37:49Z</time>
      </trkpt>
      <trkpt lat="42.8547125" lon="-5.2678248">
        <ele>1315.3</ele>
        <time>2016-08-30T15:37:52Z</time>
      </trkpt>
      <trkpt lat="42.8548111" lon="-5.2679294">
        <ele>1317.0</ele>
        <time>2016-08-30T15:37:54Z</time>
      </trkpt>
      <trkpt lat="42.8547295" lon="-5.2681297">
        <ele>1319.5</ele>
        <time>2016-08-30T15:37:58Z</time>
      </trkpt>
      <trkpt lat="42.8545901" lon="-5.2681459">
        <ele>1320.0</ele>
        <time>2016-08-30T15:38:01Z</time>
      </trkpt>
      <trkpt lat="42.854444" lon="-5.2680817">
        <ele>1320.0</ele>
        <time>2016-08-30T15:38:03Z</time>
      </trkpt>
      <trkpt lat="42.8543805" lon="-5.2680286">
        <ele>1320.0</ele>
        <time>2016-08-30T15:38:04Z</time>
      </trkpt>
      <trkpt lat="42.8543182" lon="-5.2679691">
        <ele>1320.0</ele>
        <time>2016-08-30T15:38:05Z</time>
      </trkpt>
      <trkpt lat="42.8542662" lon="-5.2679127">
        <ele>1320.0</ele>
        <time>2016-08-30T15:38:06Z</time>
      </trkpt>
      <trkpt lat="42.8542173" lon="-5.2678522">
        <ele>1320.0</ele>
        <time>2016-08-30T15:38:07Z</time>
      </trkpt>
      <trkpt lat="42.8541109" lon="-5.2677169">
        <ele>1320.0</ele>
        <time>2016-08-30T15:38:09Z</time>
      </trkpt>
      <trkpt lat="42.8539924" lon="-5.2675662">
        <ele>1320.0</ele>
        <time>2016-08-30T15:38:11Z</time>
      </trkpt>
      <trkpt lat="42.8538741" lon="-5.2674376">
        <ele>1320.0</ele>
        <time>2016-08-30T15:38:13Z</time>
      </trkpt>
      <trkpt lat="42.8537578" lon="-5.2673143">
        <ele>1320.0</ele>
        <time>2016-08-30T15:38:15Z</time>
      </trkpt>
      <trkpt lat="42.8536328" lon="-5.2671964">
        <ele>1320.0</ele>
        <time>2016-08-30T15:38:17Z</time>
      </trkpt>
      <trkpt lat="42.8534991" lon="-5.2670888">
        <ele>1320.0</ele>
        <time>2016-08-30T15:38:19Z</time>
      </trkpt>
      <trkpt lat="42.8532967" lon="-5.2669554">
        <ele>1320.0</ele>
        <time>2016-08-30T15:38:22Z</time>
      </trkpt>
      <trkpt lat="42.8531981" lon="-5.2669026">
        <ele>1320.0</ele>
        <time>2016-08-30T15:38:24Z</time>
      </trkpt>
      <trkpt lat="42.8531452" lon="-5.2668562">
        <ele>1320.0</ele>
        <time>2016-08-30T15:38:25Z</time>
      </trkpt>
      <trkpt lat="42.8530907" lon="-5.2667891">
        <ele>1320.0</ele>
        <time>2016-08-30T15:38:26Z</time>
      </trkpt>
      <trkpt lat="42.8530337" lon="-5.2667127">
        <ele>1320.0</ele>
        <time>2016-08-30T15:38:27Z</time>
      </trkpt>
      <trkpt lat="42.8529799" lon="-5.2666259">
        <ele>1320.0</ele>
        <time>2016-08-30T15:38:28Z</time>
      </trkpt>
      <trkpt lat="42.8528419" lon="-5.2664439">
        <ele>1319.3</ele>
        <time>2016-08-30T15:38:31Z</time>
      </trkpt>
      <trkpt lat="42.8527336" lon="-5.2664433">
        <ele>1319.0</ele>
        <time>2016-08-30T15:38:33Z</time>
      </trkpt>
      <trkpt lat="42.8526367" lon="-5.2665196">
        <ele>1318.8</ele>
        <time>2016-08-30T15:38:35Z</time>
      </trkpt>
      <trkpt lat="42.8526101" lon="-5.266769">
        <ele>1318.7</ele>
        <time>2016-08-30T15:38:38Z</time>
      </trkpt>
      <trkpt lat="42.8525138" lon="-5.2669288">
        <ele>1318.7</ele>
        <time>2016-08-30T15:38:42Z</time>
      </trkpt>
      <trkpt lat="42.8524057" lon="-5.2668798">
        <ele>1318.7</ele>
        <time>2016-08-30T15:38:44Z</time>
      </trkpt>
      <trkpt lat="42.8523573" lon="-5.2668524">
        <ele>1318.7</ele>
        <time>2016-08-30T15:38:45Z</time>
      </trkpt>
      <trkpt lat="42.8523281" lon="-5.2667998">
        <ele>1318.7</ele>
        <time>2016-08-30T15:38:46Z</time>
      </trkpt>
      <trkpt lat="42.8522677" lon="-5.2667003">
        <ele>1318.7</ele>
        <time>2016-08-30T15:38:48Z</time>
      </trkpt>
      <trkpt lat="42.8521304" lon="-5.2665222">
        <ele>1318.7</ele>
        <time>2016-08-30T15:38:51Z</time>
      </trkpt>
      <trkpt lat="42.8520434" lon="-5.2663438">
        <ele>1318.7</ele>
        <time>2016-08-30T15:38:54Z</time>
      </trkpt>
      <trkpt lat="42.851912" lon="-5.2661134">
        <ele>1318.7</ele>
        <time>2016-08-30T15:38:57Z</time>
      </trkpt>
      <trkpt lat="42.8518202" lon="-5.2659617">
        <ele>1318.7</ele>
        <time>2016-08-30T15:38:59Z</time>
      </trkpt>
      <trkpt lat="42.8517228" lon="-5.2657422">
        <ele>1318.7</ele>
        <time>2016-08-30T15:39:02Z</time>
      </trkpt>
      <trkpt lat="42.8516455" lon="-5.2655905">
        <ele>1319.1</ele>
        <time>2016-08-30T15:39:04Z</time>
      </trkpt>
      <trkpt lat="42.851541" lon="-5.2654722">
        <ele>1319.6</ele>
        <time>2016-08-30T15:39:06Z</time>
      </trkpt>
      <trkpt lat="42.8513406" lon="-5.265384">
        <ele>1320.5</ele>
        <time>2016-08-30T15:39:09Z</time>
      </trkpt>
      <trkpt lat="42.8512134" lon="-5.2653582">
        <ele>1321.1</ele>
        <time>2016-08-30T15:39:11Z</time>
      </trkpt>
      <trkpt lat="42.8510835" lon="-5.2653851">
        <ele>1321.4</ele>
        <time>2016-08-30T15:39:13Z</time>
      </trkpt>
      <trkpt lat="42.8509633" lon="-5.2655156">
        <ele>1321.8</ele>
        <time>2016-08-30T15:39:15Z</time>
      </trkpt>
      <trkpt lat="42.850839" lon="-5.2655873">
        <ele>1322.0</ele>
        <time>2016-08-30T15:39:17Z</time>
      </trkpt>
      <trkpt lat="42.8507119" lon="-5.2654783">
        <ele>1322.2</ele>
        <time>2016-08-30T15:39:19Z</time>
      </trkpt>
      <trkpt lat="42.8506404" lon="-5.265296">
        <ele>1322.6</ele>
        <time>2016-08-30T15:39:21Z</time>
      </trkpt>
      <trkpt lat="42.850654" lon="-5.2650916">
        <ele>1323.3</ele>
        <time>2016-08-30T15:39:23Z</time>
      </trkpt>
      <trkpt lat="42.8507547" lon="-5.2649269">
        <ele>1323.7</ele>
        <time>2016-08-30T15:39:25Z</time>
      </trkpt>
      <trkpt lat="42.8509263" lon="-5.2648762">
        <ele>1324.3</ele>
        <time>2016-08-30T15:39:27Z</time>
      </trkpt>
      <trkpt lat="42.8511228" lon="-5.2649285">
        <ele>1324.7</ele>
        <time>2016-08-30T15:39:29Z</time>
      </trkpt>
      <trkpt lat="42.8512484" lon="-5.2651336">
        <ele>1326.7</ele>
        <time>2016-08-30T15:39:31Z</time>
      </trkpt>
      <trkpt lat="42.8512236" lon="-5.2653516">
        <ele>1328.5</ele>
        <time>2016-08-30T15:39:33Z</time>
      </trkpt>
      <trkpt lat="42.8510667" lon="-5.2654848">
        <ele>1329.2</ele>
        <time>2016-08-30T15:39:35Z</time>
      </trkpt>
      <trkpt lat="42.8509279" lon="-5.2654321">
        <ele>1330.0</ele>
        <time>2016-08-30T15:39:37Z</time>
      </trkpt>
      <trkpt lat="42.8508406" lon="-5.2652375">
        <ele>1331.2</ele>
        <time>2016-08-30T15:39:39Z</time>
      </trkpt>
      <trkpt lat="42.8509014" lon="-5.2650028">
        <ele>1333.6</ele>
        <time>2016-08-30T15:39:41Z</time>
      </trkpt>
      <trkpt lat="42.8510665" lon="-5.264896">
        <ele>1335.8</ele>
        <time>2016-08-30T15:39:43Z</time>
      </trkpt>
      <trkpt lat="42.8512532" lon="-5.2649726">
        <ele>1336.6</ele>
        <time>2016-08-30T15:39:45Z</time>
      </trkpt>
      <trkpt lat="42.8513721" lon="-5.2652423">
        <ele>1337.6</ele>
        <time>2016-08-30T15:39:47Z</time>
      </trkpt>
      <trkpt lat="42.8513333" lon="-5.2655044">
        <ele>1338.6</ele>
        <time>2016-08-30T15:39:49Z</time>
      </trkpt>
      <trkpt lat="42.8512176" lon="-5.2656248">
        <ele>1339.0</ele>
        <time>2016-08-30T15:39:51Z</time>
      </trkpt>
      <trkpt lat="42.851048" lon="-5.2655765">
        <ele>1341.6</ele>
        <time>2016-08-30T15:39:54Z</time>
      </trkpt>
      <trkpt lat="42.8509941" lon="-5.2653751">
        <ele>1342.2</ele>
        <time>2016-08-30T15:39:56Z</time>
      </trkpt>
      <trkpt lat="42.8511293" lon="-5.2652008">
        <ele>1342.8</ele>
        <time>2016-08-30T15:39:58Z</time>
      </trkpt>
      <trkpt lat="42.8514153" lon="-5.2653368">
        <ele>1343.8</ele>
        <time>2016-08-30T15:40:01Z</time>
      </trkpt>
      <trkpt lat="42.8514721" lon="-5.2656065">
        <ele>1344.2</ele>
        <time>2016-08-30T15:40:03Z</time>
      </trkpt>
      <trkpt lat="42.8513971" lon="-5.2658047">
        <ele>1344.4</ele>
        <time>2016-08-30T15:40:05Z</time>
      </trkpt>
      <trkpt lat="42.8512606" lon="-5.2657754">
        <ele>1344.7</ele>
        <time>2016-08-30T15:40:07Z</time>
      </trkpt>
      <trkpt lat="42.8511654" lon="-5.2655853">
        <ele>1345.0</ele>
        <time>2016-08-30T15:40:09Z</time>
      </trkpt>
      <trkpt lat="42.8511917" lon="-5.2653698">
        <ele>1346.2</ele>
        <time>2016-08-30T15:40:11Z</time>
      </trkpt>
      <trkpt lat="42.8513448" lon="-5.2652252">
        <ele>1347.1</ele>
        <time>2016-08-30T15:40:13Z</time>
      </trkpt>
      <trkpt lat="42.851604" lon="-5.2653288">
        <ele>1348.5</ele>
        <time>2016-08-30T15:40:16Z</time>
      </trkpt>
      <trkpt lat="42.851663" lon="-5.2655635">
        <ele>1349.7</ele>
        <time>2016-08-30T15:40:18Z</time>
      </trkpt>
      <trkpt lat="42.8515732" lon="-5.2657458">
        <ele>1352.9</ele>
        <time>2016-08-30T15:40:20Z</time>
      </trkpt>
      <trkpt lat="42.8514211" lon="-5.2657593">
        <ele>1356.5</ele>
        <time>2016-08-30T15:40:22Z</time>
      </trkpt>
      <trkpt lat="42.8512901" lon="-5.265554">
        <ele>1358.7</ele>
        <time>2016-08-30T15:40:25Z</time>
      </trkpt>
      <trkpt lat="42.8513173" lon="-5.2653202">
        <ele>1359.9</ele>
        <time>2016-08-30T15:40:27Z</time>
      </trkpt>
      <trkpt lat="42.8514757" lon="-5.265168">
        <ele>1361.0</ele>
        <time>2016-08-30T15:40:29Z</time>
      </trkpt>
      <trkpt lat="42.8517737" lon="-5.2652609">
        <ele>1364.8</ele>
        <time>2016-08-30T15:40:32Z</time>
      </trkpt>
      <trkpt lat="42.8518473" lon="-5.2654791">
        <ele>1368.3</ele>
        <time>2016-08-30T15:40:34Z</time>
      </trkpt>
      <trkpt lat="42.851789" lon="-5.2656929">
        <ele>1372.2</ele>
        <time>2016-08-30T15:40:36Z</time>
      </trkpt>
      <trkpt lat="42.8516465" lon="-5.2657761">
        <ele>1376.0</ele>
        <time>2016-08-30T15:40:38Z</time>
      </trkpt>
      <trkpt lat="42.8515169" lon="-5.2656732">
        <ele>1378.5</ele>
        <time>2016-08-30T15:40:40Z</time>
      </trkpt>
      <trkpt lat="42.8514646" lon="-5.265469">
        <ele>1382.3</ele>
        <time>2016-08-30T15:40:42Z</time>
      </trkpt>
      <trkpt lat="42.8514747" lon="-5.2652566">
        <ele>1385.2</ele>
        <time>2016-08-30T15:40:44Z</time>
      </trkpt>
      <trkpt lat="42.8515794" lon="-5.2650735">
        <ele>1387.9</ele>
        <time>2016-08-30T15:40:46Z</time>
      </trkpt>
      <trkpt lat="42.8517491" lon="-5.2649914">
        <ele>1390.3</ele>
        <time>2016-08-30T15:40:48Z</time>
      </trkpt>
      <trkpt lat="42.8519057" lon="-5.2650872">
        <ele>1393.0</ele>
        <time>2016-08-30T15:40:50Z</time>
      </trkpt>
      <trkpt lat="42.8519439" lon="-5.2653235">
        <ele>1396.3</ele>
        <time>2016-08-30T15:40:52Z</time>
      </trkpt>
      <trkpt lat="42.8518275" lon="-5.2654719">
        <ele>1400.8</ele>
        <time>2016-08-30T15:40:54Z</time>
      </trkpt>
      <trkpt lat="42.8516832" lon="-5.2654169">
        <ele>1404.7</ele>
        <time>2016-08-30T15:40:56Z</time>
      </trkpt>
      <trkpt lat="42.8516309" lon="-5.2652323">
        <ele>1408.4</ele>
        <time>2016-08-30T15:40:58Z</time>
      </trkpt>
      <trkpt lat="42.8516536" lon="-5.2649864">
        <ele>1412.2</ele>
        <time>2016-08-30T15:41:00Z</time>
      </trkpt>
      <trkpt lat="42.8517901" lon="-5.2648067">
        <ele>1415.9</ele>
        <time>2016-08-30T15:41:02Z</time>
      </trkpt>
      <trkpt lat="42.8520564" lon="-5.2648916">
        <ele>1422.0</ele>
        <time>2016-08-30T15:41:05Z</time>
      </trkpt>
      <trkpt lat="42.8520852" lon="-5.2651004">
        <ele>1425.9</ele>
        <time>2016-08-30T15:41:07Z</time>
      </trkpt>
      <trkpt lat="42.8519894" lon="-5.2652553">
        <ele>1430.0</ele>
        <time>2016-08-30T15:41:09Z</time>
      </trkpt>
      <trkpt lat="42.8518162" lon="-5.2651941">
        <ele>1439.8</ele>
        <time>2016-08-30T15:41:12Z</time>
      </trkpt>
      <trkpt lat="42.8517585" lon="-5.2649966">
        <ele>1445.8</ele>
        <time>2016-08-30T15:41:14Z</time>
      </trkpt>
      <trkpt lat="42.8517985" lon="-5.264763">
        <ele>1451.9</ele>
        <time>2016-08-30T15:41:16Z</time>
      </trkpt>
      <trkpt lat="42.8519615" lon="-5.2646064">
        <ele>1457.4</ele>
        <time>2016-08-30T15:41:18Z</time>
      </trkpt>
      <trkpt lat="42.8521556" lon="-5.2645774">
        <ele>1459.9</ele>
        <time>2016-08-30T15:41:20Z</time>
      </trkpt>
      <trkpt lat="42.8522669" lon="-5.2646989">
        <ele>1462.4</ele>
        <time>2016-08-30T15:41:22Z</time>
      </trkpt>
      <trkpt lat="42.8522318" lon="-5.2648961">
        <ele>1467.7</ele>
        <time>2016-08-30T15:41:24Z</time>
      </trkpt>
      <trkpt lat="42.8521011" lon="-5.2649497">
        <ele>1473.5</ele>
        <time>2016-08-30T15:41:26Z</time>
      </trkpt>
      <trkpt lat="42.8519843" lon="-5.2649971">
        <ele>1480.5</ele>
        <time>2016-08-30T15:41:28Z</time>
      </trkpt>
      <trkpt lat="42.8518873" lon="-5.2651391">
        <ele>1488.6</ele>
        <time>2016-08-30T15:41:31Z</time>
      </trkpt>
      <trkpt lat="42.8517582" lon="-5.2650525">
        <ele>1491.6</ele>
        <time>2016-08-30T15:41:33Z</time>
      </trkpt>
      <trkpt lat="42.8516674" lon="-5.2648146">
        <ele>1494.8</ele>
        <time>2016-08-30T15:41:35Z</time>
      </trkpt>
      <trkpt lat="42.8517207" lon="-5.2645162">
        <ele>1499.2</ele>
        <time>2016-08-30T15:41:37Z</time>
      </trkpt>
      <trkpt lat="42.8518725" lon="-5.2643032">
        <ele>1504.1</ele>
        <time>2016-08-30T15:41:39Z</time>
      </trkpt>
      <trkpt lat="42.8520595" lon="-5.2642017">
        <ele>1508.5</ele>
        <time>2016-08-30T15:41:41Z</time>
      </trkpt>
      <trkpt lat="42.8522446" lon="-5.2642157">
        <ele>1514.1</ele>
        <time>2016-08-30T15:41:43Z</time>
      </trkpt>
      <trkpt lat="42.8523823" lon="-5.2642818">
        <ele>1518.3</ele>
        <time>2016-08-30T15:41:45Z</time>
      </trkpt>
      <trkpt lat="42.8524361" lon="-5.2644507">
        <ele>1524.0</ele>
        <time>2016-08-30T15:41:47Z</time>
      </trkpt>
      <trkpt lat="42.8523421" lon="-5.2646043">
        <ele>1527.1</ele>
        <time>2016-08-30T15:41:49Z</time>
      </trkpt>
      <trkpt lat="42.8521691" lon="-5.2645198">
        <ele>1531.0</ele>
        <time>2016-08-30T15:41:51Z</time>
      </trkpt>
      <trkpt lat="42.8520914" lon="-5.2642999">
        <ele>1533.3</ele>
        <time>2016-08-30T15:41:53Z</time>
      </trkpt>
      <trkpt lat="42.8520921" lon="-5.2640435">
        <ele>1535.3</ele>
        <time>2016-08-30T15:41:55Z</time>
      </trkpt>
      <trkpt lat="42.8521563" lon="-5.2637655">
        <ele>1541.3</ele>
        <time>2016-08-30T15:41:57Z</time>
      </trkpt>
      <trkpt lat="42.8523215" lon="-5.2635524">
        <ele>1548.3</ele>
        <time>2016-08-30T15:41:59Z</time>
      </trkpt>
      <trkpt lat="42.852549" lon="-5.263498">
        <ele>1550.8</ele>
        <time>2016-08-30T15:42:01Z</time>
      </trkpt>
      <trkpt lat="42.852705" lon="-5.2635718">
        <ele>1552.2</ele>
        <time>2016-08-30T15:42:03Z</time>
      </trkpt>
      <trkpt lat="42.8527611" lon="-5.2637396">
        <ele>1553.2</ele>
        <time>2016-08-30T15:42:05Z</time>
      </trkpt>
      <trkpt lat="42.8525954" lon="-5.2638842">
        <ele>1555.0</ele>
        <time>2016-08-30T15:42:08Z</time>
      </trkpt>
      <trkpt lat="42.8524641" lon="-5.2637304">
        <ele>1558.5</ele>
        <time>2016-08-30T15:42:10Z</time>
      </trkpt>
      <trkpt lat="42.8523839" lon="-5.2634783">
        <ele>1563.6</ele>
        <time>2016-08-30T15:42:12Z</time>
      </trkpt>
      <trkpt lat="42.8524202" lon="-5.2631685">
        <ele>1568.4</ele>
        <time>2016-08-30T15:42:14Z</time>
      </trkpt>
      <trkpt lat="42.8526003" lon="-5.2628945">
        <ele>1573.2</ele>
        <time>2016-08-30T15:42:16Z</time>
      </trkpt>
      <trkpt lat="42.852863" lon="-5.2628394">
        <ele>1575.0</ele>
        <time>2016-08-30T15:42:18Z</time>
      </trkpt>
      <trkpt lat="42.8530197" lon="-5.2629299">
        <ele>1576.4</ele>
        <time>2016-08-30T15:42:20Z</time>
      </trkpt>
      <trkpt lat="42.8530948" lon="-5.2630828">
        <ele>1580.3</ele>
        <time>2016-08-30T15:42:22Z</time>
      </trkpt>
      <trkpt lat="42.8530288" lon="-5.2633032">
        <ele>1583.6</ele>
        <time>2016-08-30T15:42:25Z</time>
      </trkpt>
      <trkpt lat="42.8528561" lon="-5.2631322">
        <ele>1585.2</ele>
        <time>2016-08-30T15:42:28Z</time>
      </trkpt>
      <trkpt lat="42.8528092" lon="-5.2628641">
        <ele>1587.0</ele>
        <time>2016-08-30T15:42:30Z</time>
      </trkpt>
      <trkpt lat="42.8528799" lon="-5.2625668">
        <ele>1589.1</ele>
        <time>2016-08-30T15:42:32Z</time>
      </trkpt>
      <trkpt lat="42.8530954" lon="-5.2623624">
        <ele>1594.1</ele>
        <time>2016-08-30T15:42:34Z</time>
      </trkpt>
      <trkpt lat="42.8532865" lon="-5.262468">
        <ele>1596.3</ele>
        <time>2016-08-30T15:42:36Z</time>
      </trkpt>
      <trkpt lat="42.8532886" lon="-5.2627054">
        <ele>1599.5</ele>
        <time>2016-08-30T15:42:39Z</time>
      </trkpt>
      <trkpt lat="42.8532352" lon="-5.262935">
        <ele>1603.2</ele>
        <time>2016-08-30T15:42:43Z</time>
      </trkpt>
      <trkpt lat="42.8530575" lon="-5.2629527">
        <ele>1604.4</ele>
        <time>2016-08-30T15:42:46Z</time>
      </trkpt>
      <trkpt lat="42.8529357" lon="-5.2628128">
        <ele>1604.9</ele>
        <time>2016-08-30T15:42:48Z</time>
      </trkpt>
      <trkpt lat="42.8528763" lon="-5.2626262">
        <ele>1609.5</ele>
        <time>2016-08-30T15:42:50Z</time>
      </trkpt>
      <trkpt lat="42.8529048" lon="-5.2623725">
        <ele>1615.7</ele>
        <time>2016-08-30T15:42:52Z</time>
      </trkpt>
      <trkpt lat="42.8529836" lon="-5.2621374">
        <ele>1618.2</ele>
        <time>2016-08-30T15:42:54Z</time>
      </trkpt>
      <trkpt lat="42.8531564" lon="-5.2619979">
        <ele>1621.9</ele>
        <time>2016-08-30T15:42:56Z</time>
      </trkpt>
      <trkpt lat="42.8534828" lon="-5.2620971">
        <ele>1624.4</ele>
        <time>2016-08-30T15:42:59Z</time>
      </trkpt>
      <trkpt lat="42.8535816" lon="-5.2623265">
        <ele>1625.6</ele>
        <time>2016-08-30T15:43:01Z</time>
      </trkpt>
      <trkpt lat="42.8536197" lon="-5.2625504">
        <ele>1626.4</ele>
        <time>2016-08-30T15:43:04Z</time>
      </trkpt>
      <trkpt lat="42.8536332" lon="-5.2627955">
        <ele>1628.9</ele>
        <time>2016-08-30T15:43:07Z</time>
      </trkpt>
      <trkpt lat="42.8536657" lon="-5.2630572">
        <ele>1636.2</ele>
        <time>2016-08-30T15:43:10Z</time>
      </trkpt>
      <trkpt lat="42.8537567" lon="-5.2632369">
        <ele>1639.6</ele>
        <time>2016-08-30T15:43:12Z</time>
      </trkpt>
      <trkpt lat="42.8538505" lon="-5.2633956">
        <ele>1641.1</ele>
        <time>2016-08-30T15:43:14Z</time>
      </trkpt>
      <trkpt lat="42.8537932" lon="-5.2635754">
        <ele>1642.6</ele>
        <time>2016-08-30T15:43:17Z</time>
      </trkpt>
      <trkpt lat="42.8536292" lon="-5.2634485">
        <ele>1643.5</ele>
        <time>2016-08-30T15:43:20Z</time>
      </trkpt>
      <trkpt lat="42.8536203" lon="-5.2632092">
        <ele>1643.8</ele>
        <time>2016-08-30T15:43:22Z</time>
      </trkpt>
      <trkpt lat="42.8537024" lon="-5.2629781">
        <ele>1644.2</ele>
        <time>2016-08-30T15:43:24Z</time>
      </trkpt>
      <trkpt lat="42.8538788" lon="-5.2628192">
        <ele>1644.7</ele>
        <time>2016-08-30T15:43:26Z</time>
      </trkpt>
      <trkpt lat="42.8541087" lon="-5.2627768">
        <ele>1645.1</ele>
        <time>2016-08-30T15:43:28Z</time>
      </trkpt>
      <trkpt lat="42.8543091" lon="-5.2628735">
        <ele>1645.3</ele>
        <time>2016-08-30T15:43:30Z</time>
      </trkpt>
      <trkpt lat="42.854416" lon="-5.2630169">
        <ele>1645.9</ele>
        <time>2016-08-30T15:43:32Z</time>
      </trkpt>
      <trkpt lat="42.8544956" lon="-5.2631893">
        <ele>1648.6</ele>
        <time>2016-08-30T15:43:35Z</time>
      </trkpt>
      <trkpt lat="42.854457" lon="-5.2633858">
        <ele>1650.5</ele>
        <time>2016-08-30T15:43:38Z</time>
      </trkpt>
      <trkpt lat="42.854298" lon="-5.2634563">
        <ele>1656.2</ele>
        <time>2016-08-30T15:43:41Z</time>
      </trkpt>
      <trkpt lat="42.8541582" lon="-5.2633377">
        <ele>1661.1</ele>
        <time>2016-08-30T15:43:44Z</time>
      </trkpt>
      <trkpt lat="42.8540932" lon="-5.2631438">
        <ele>1661.1</ele>
        <time>2016-08-30T15:43:46Z</time>
      </trkpt>
      <trkpt lat="42.8539284" lon="-5.2630729">
        <ele>1662.4</ele>
        <time>2016-08-30T15:43:49Z</time>
      </trkpt>
      <trkpt lat="42.8538471" lon="-5.2632085">
        <ele>1663.3</ele>
        <time>2016-08-30T15:43:51Z</time>
      </trkpt>
      <trkpt lat="42.8538743" lon="-5.2634102">
        <ele>1663.8</ele>
        <time>2016-08-30T15:43:53Z</time>
      </trkpt>
      <trkpt lat="42.853982" lon="-5.2636075">
        <ele>1665.9</ele>
        <time>2016-08-30T15:43:55Z</time>
      </trkpt>
      <trkpt lat="42.8541833" lon="-5.2637277">
        <ele>1668.0</ele>
        <time>2016-08-30T15:43:57Z</time>
      </trkpt>
      <trkpt lat="42.8543202" lon="-5.2637276">
        <ele>1669.5</ele>
        <time>2016-08-30T15:43:58Z</time>
      </trkpt>
      <trkpt lat="42.8544576" lon="-5.2636906">
        <ele>1670.3</ele>
        <time>2016-08-30T15:43:59Z</time>
      </trkpt>
      <trkpt lat="42.8546404" lon="-5.2635458">
        <ele>1673.9</ele>
        <time>2016-08-30T15:44:01Z</time>
      </trkpt>
      <trkpt lat="42.8547324" lon="-5.2632973">
        <ele>1676.1</ele>
        <time>2016-08-30T15:44:03Z</time>
      </trkpt>
      <trkpt lat="42.8547029" lon="-5.2630537">
        <ele>1677.9</ele>
        <time>2016-08-30T15:44:05Z</time>
      </trkpt>
      <trkpt lat="42.8545336" lon="-5.2629718">
        <ele>1679.7</ele>
        <time>2016-08-30T15:44:08Z</time>
      </trkpt>
      <trkpt lat="42.854454" lon="-5.2631065">
        <ele>1680.7</ele>
        <time>2016-08-30T15:44:10Z</time>
      </trkpt>
      <trkpt lat="42.8544715" lon="-5.2633308">
        <ele>1681.6</ele>
        <time>2016-08-30T15:44:12Z</time>
      </trkpt>
      <trkpt lat="42.8545902" lon="-5.2635124">
        <ele>1681.8</ele>
        <time>2016-08-30T15:44:15Z</time>
      </trkpt>
      <trkpt lat="42.8547919" lon="-5.2636341">
        <ele>1682.4</ele>
        <time>2016-08-30T15:44:17Z</time>
      </trkpt>
      <trkpt lat="42.855168" lon="-5.2635925">
        <ele>1682.8</ele>
        <time>2016-08-30T15:44:20Z</time>
      </trkpt>
      <trkpt lat="42.8553541" lon="-5.2633973">
        <ele>1683.7</ele>
        <time>2016-08-30T15:44:22Z</time>
      </trkpt>
      <trkpt lat="42.8554414" lon="-5.2631339">
        <ele>1684.3</ele>
        <time>2016-08-30T15:44:24Z</time>
      </trkpt>
      <trkpt lat="42.8553985" lon="-5.2629148">
        <ele>1684.6</ele>
        <time>2016-08-30T15:44:26Z</time>
      </trkpt>
      <trkpt lat="42.855248" lon="-5.2628124">
        <ele>1684.9</ele>
        <time>2016-08-30T15:44:29Z</time>
      </trkpt>
      <trkpt lat="42.8551721" lon="-5.2629163">
        <ele>1685.2</ele>
        <time>2016-08-30T15:44:31Z</time>
      </trkpt>
      <trkpt lat="42.8551923" lon="-5.2631155">
        <ele>1685.6</ele>
        <time>2016-08-30T15:44:33Z</time>
      </trkpt>
      <trkpt lat="42.8553312" lon="-5.2632799">
        <ele>1685.8</ele>
        <time>2016-08-30T15:44:35Z</time>
      </trkpt>
      <trkpt lat="42.8555236" lon="-5.2633604">
        <ele>1686.0</ele>
        <time>2016-08-30T15:44:37Z</time>
      </trkpt>
      <trkpt lat="42.8556389" lon="-5.2633425">
        <ele>1687.3</ele>
        <time>2016-08-30T15:44:38Z</time>
      </trkpt>
      <trkpt lat="42.8557532" lon="-5.2632767">
        <ele>1687.3</ele>
        <time>2016-08-30T15:44:39Z</time>
      </trkpt>
      <trkpt lat="42.8558574" lon="-5.2631715">
        <ele>1687.3</ele>
        <time>2016-08-30T15:44:40Z</time>
      </trkpt>
      <trkpt lat="42.8559475" lon="-5.2630397">
        <ele>1687.3</ele>
        <time>2016-08-30T15:44:41Z</time>
      </trkpt>
      <trkpt lat="42.8560269" lon="-5.2628942">
        <ele>1687.3</ele>
        <time>2016-08-30T15:44:42Z</time>
      </trkpt>
      <trkpt lat="42.8561987" lon="-5.262677">
        <ele>1688.2</ele>
        <time>2016-08-30T15:44:44Z</time>
      </trkpt>
      <trkpt lat="42.8564146" lon="-5.2626048">
        <ele>1688.8</ele>
        <time>2016-08-30T15:44:46Z</time>
      </trkpt>
      <trkpt lat="42.8566183" lon="-5.2626881">
        <ele>1689.2</ele>
        <time>2016-08-30T15:44:48Z</time>
      </trkpt>
      <trkpt lat="42.8567001" lon="-5.2628942">
        <ele>1690.0</ele>
        <time>2016-08-30T15:44:50Z</time>
      </trkpt>
      <trkpt lat="42.8565521" lon="-5.263019">
        <ele>1692.5</ele>
        <time>2016-08-30T15:44:53Z</time>
      </trkpt>
      <trkpt lat="42.8564428" lon="-5.2628114">
        <ele>1694.0</ele>
        <time>2016-08-30T15:44:55Z</time>
      </trkpt>
      <trkpt lat="42.856454" lon="-5.2625103">
        <ele>1695.7</ele>
        <time>2016-08-30T15:44:57Z</time>
      </trkpt>
      <trkpt lat="42.8565937" lon="-5.2622541">
        <ele>1697.6</ele>
        <time>2016-08-30T15:44:59Z</time>
      </trkpt>
      <trkpt lat="42.8567125" lon="-5.2619974">
        <ele>1698.4</ele>
        <time>2016-08-30T15:45:01Z</time>
      </trkpt>
      <trkpt lat="42.8566884" lon="-5.2617452">
        <ele>1698.9</ele>
        <time>2016-08-30T15:45:03Z</time>
      </trkpt>
      <trkpt lat="42.8565432" lon="-5.2616524">
        <ele>1699.2</ele>
        <time>2016-08-30T15:45:06Z</time>
      </trkpt>
      <trkpt lat="42.8565565" lon="-5.2618468">
        <ele>1699.8</ele>
        <time>2016-08-30T15:45:08Z</time>
      </trkpt>
      <trkpt lat="42.8567308" lon="-5.2619939">
        <ele>1700.4</ele>
        <time>2016-08-30T15:45:10Z</time>
      </trkpt>
      <trkpt lat="42.8569844" lon="-5.2619805">
        <ele>1701.4</ele>
        <time>2016-08-30T15:45:12Z</time>
      </trkpt>
      <trkpt lat="42.8570991" lon="-5.2618829">
        <ele>1703.9</ele>
        <time>2016-08-30T15:45:13Z</time>
      </trkpt>
      <trkpt lat="42.8572269" lon="-5.261637">
        <ele>1705.9</ele>
        <time>2016-08-30T15:45:15Z</time>
      </trkpt>
      <trkpt lat="42.857207" lon="-5.2613821">
        <ele>1706.6</ele>
        <time>2016-08-30T15:45:17Z</time>
      </trkpt>
      <trkpt lat="42.8570466" lon="-5.2613109">
        <ele>1707.8</ele>
        <time>2016-08-30T15:45:20Z</time>
      </trkpt>
      <trkpt lat="42.8570313" lon="-5.2614532">
        <ele>1710.5</ele>
        <time>2016-08-30T15:45:22Z</time>
      </trkpt>
      <trkpt lat="42.8571159" lon="-5.2616308">
        <ele>1711.1</ele>
        <time>2016-08-30T15:45:24Z</time>
      </trkpt>
      <trkpt lat="42.8573141" lon="-5.2617387">
        <ele>1712.1</ele>
        <time>2016-08-30T15:45:26Z</time>
      </trkpt>
      <trkpt lat="42.8574456" lon="-5.2617277">
        <ele>1714.5</ele>
        <time>2016-08-30T15:45:27Z</time>
      </trkpt>
      <trkpt lat="42.8575723" lon="-5.2616677">
        <ele>1714.5</ele>
        <time>2016-08-30T15:45:28Z</time>
      </trkpt>
      <trkpt lat="42.8576677" lon="-5.2615618">
        <ele>1714.5</ele>
        <time>2016-08-30T15:45:29Z</time>
      </trkpt>
      <trkpt lat="42.8577311" lon="-5.2614409">
        <ele>1714.5</ele>
        <time>2016-08-30T15:45:30Z</time>
      </trkpt>
      <trkpt lat="42.8577578" lon="-5.2613135">
        <ele>1714.5</ele>
        <time>2016-08-30T15:45:31Z</time>
      </trkpt>
      <trkpt lat="42.8577202" lon="-5.2610915">
        <ele>1715.2</ele>
        <time>2016-08-30T15:45:33Z</time>
      </trkpt>
      <trkpt lat="42.8575682" lon="-5.2609962">
        <ele>1715.6</ele>
        <time>2016-08-30T15:45:36Z</time>
      </trkpt>
      <trkpt lat="42.8574995" lon="-5.2611236">
        <ele>1715.8</ele>
        <time>2016-08-30T15:45:38Z</time>
      </trkpt>
      <trkpt lat="42.8575541" lon="-5.2613262">
        <ele>1716.1</ele>
        <time>2016-08-30T15:45:40Z</time>
      </trkpt>
      <trkpt lat="42.8577515" lon="-5.2614834">
        <ele>1716.6</ele>
        <time>2016-08-30T15:45:42Z</time>
      </trkpt>
      <trkpt lat="42.8580057" lon="-5.2614802">
        <ele>1717.5</ele>
        <time>2016-08-30T15:45:44Z</time>
      </trkpt>
      <trkpt lat="42.858219" lon="-5.2613198">
        <ele>1718.2</ele>
        <time>2016-08-30T15:45:46Z</time>
      </trkpt>
      <trkpt lat="42.8583064" lon="-5.2610723">
        <ele>1719.1</ele>
        <time>2016-08-30T15:45:48Z</time>
      </trkpt>
      <trkpt lat="42.8582427" lon="-5.2608492">
        <ele>1720.6</ele>
        <time>2016-08-30T15:45:50Z</time>
      </trkpt>
      <trkpt lat="42.858119" lon="-5.2607696">
        <ele>1723.0</ele>
        <time>2016-08-30T15:45:52Z</time>
      </trkpt>
      <trkpt lat="42.8580542" lon="-5.2608617">
        <ele>1724.8</ele>
        <time>2016-08-30T15:45:53Z</time>
      </trkpt>
      <trkpt lat="42.8580563" lon="-5.2610485">
        <ele>1726.4</ele>
        <time>2016-08-30T15:45:55Z</time>
      </trkpt>
      <trkpt lat="42.8581446" lon="-5.2612871">
        <ele>1727.6</ele>
        <time>2016-08-30T15:45:57Z</time>
      </trkpt>
      <trkpt lat="42.8583489" lon="-5.2614266">
        <ele>1729.5</ele>
        <time>2016-08-30T15:45:59Z</time>
      </trkpt>
      <trkpt lat="42.8585823" lon="-5.2614253">
        <ele>1733.6</ele>
        <time>2016-08-30T15:46:01Z</time>
      </trkpt>
      <trkpt lat="42.8587882" lon="-5.2612902">
        <ele>1737.6</ele>
        <time>2016-08-30T15:46:03Z</time>
      </trkpt>
      <trkpt lat="42.8588922" lon="-5.2610606">
        <ele>1740.1</ele>
        <time>2016-08-30T15:46:05Z</time>
      </trkpt>
      <trkpt lat="42.8588596" lon="-5.2607868">
        <ele>1742.3</ele>
        <time>2016-08-30T15:46:07Z</time>
      </trkpt>
      <trkpt lat="42.8587508" lon="-5.2606585">
        <ele>1743.8</ele>
        <time>2016-08-30T15:46:09Z</time>
      </trkpt>
      <trkpt lat="42.8586195" lon="-5.2606663">
        <ele>1744.6</ele>
        <time>2016-08-30T15:46:11Z</time>
      </trkpt>
      <trkpt lat="42.8585554" lon="-5.2607797">
        <ele>1745.9</ele>
        <time>2016-08-30T15:46:13Z</time>
      </trkpt>
      <trkpt lat="42.8585727" lon="-5.2609962">
        <ele>1749.0</ele>
        <time>2016-08-30T15:46:15Z</time>
      </trkpt>
      <trkpt lat="42.8587097" lon="-5.2612008">
        <ele>1753.2</ele>
        <time>2016-08-30T15:46:17Z</time>
      </trkpt>
      <trkpt lat="42.8589474" lon="-5.2612952">
        <ele>1756.2</ele>
        <time>2016-08-30T15:46:19Z</time>
      </trkpt>
      <trkpt lat="42.8590719" lon="-5.2612852">
        <ele>1765.1</ele>
        <time>2016-08-30T15:46:20Z</time>
      </trkpt>
      <trkpt lat="42.8591915" lon="-5.2612276">
        <ele>1765.1</ele>
        <time>2016-08-30T15:46:21Z</time>
      </trkpt>
      <trkpt lat="42.8592824" lon="-5.2611371">
        <ele>1765.1</ele>
        <time>2016-08-30T15:46:22Z</time>
      </trkpt>
      <trkpt lat="42.8593727" lon="-5.2610375">
        <ele>1765.1</ele>
        <time>2016-08-30T15:46:23Z</time>
      </trkpt>
      <trkpt lat="42.8594663" lon="-5.2609214">
        <ele>1765.1</ele>
        <time>2016-08-30T15:46:24Z</time>
      </trkpt>
      <trkpt lat="42.8596401" lon="-5.2607094">
        <ele>1766.7</ele>
        <time>2016-08-30T15:46:26Z</time>
      </trkpt>
      <trkpt lat="42.8598248" lon="-5.2605359">
        <ele>1767.4</ele>
        <time>2016-08-30T15:46:28Z</time>
      </trkpt>
      <trkpt lat="42.8601288" lon="-5.2606608">
        <ele>1769.0</ele>
        <time>2016-08-30T15:46:31Z</time>
      </trkpt>
      <trkpt lat="42.8602003" lon="-5.2608907">
        <ele>1771.6</ele>
        <time>2016-08-30T15:46:33Z</time>
      </trkpt>
      <trkpt lat="42.860065" lon="-5.2610221">
        <ele>1776.2</ele>
        <time>2016-08-30T15:46:36Z</time>
      </trkpt>
      <trkpt lat="42.8599549" lon="-5.2608127">
        <ele>1784.6</ele>
        <time>2016-08-30T15:46:39Z</time>
      </trkpt>
      <trkpt lat="42.8600324" lon="-5.2605821">
        <ele>1785.8</ele>
        <time>2016-08-30T15:46:41Z</time>
      </trkpt>
      <trkpt lat="42.8602644" lon="-5.2604292">
        <ele>1788.1</ele>
        <time>2016-08-30T15:46:43Z</time>
      </trkpt>
      <trkpt lat="42.8604779" lon="-5.2605095">
        <ele>1789.3</ele>
        <time>2016-08-30T15:46:45Z</time>
      </trkpt>
      <trkpt lat="42.8605651" lon="-5.2607549">
        <ele>1790.2</ele>
        <time>2016-08-30T15:46:47Z</time>
      </trkpt>
      <trkpt lat="42.8605057" lon="-5.2609366">
        <ele>1791.4</ele>
        <time>2016-08-30T15:46:49Z</time>
      </trkpt>
      <trkpt lat="42.8603796" lon="-5.2607999">
        <ele>1793.1</ele>
        <time>2016-08-30T15:46:52Z</time>
      </trkpt>
      <trkpt lat="42.8604468" lon="-5.2605722">
        <ele>1793.9</ele>
        <time>2016-08-30T15:46:54Z</time>
      </trkpt>
      <trkpt lat="42.8606593" lon="-5.2603724">
        <ele>1795.4</ele>
        <time>2016-08-30T15:46:56Z</time>
      </trkpt>
      <trkpt lat="42.8608997" lon="-5.2603514">
        <ele>1800.0</ele>
        <time>2016-08-30T15:46:58Z</time>
      </trkpt>
      <trkpt lat="42.8610759" lon="-5.260518">
        <ele>1806.0</ele>
        <time>2016-08-30T15:47:00Z</time>
      </trkpt>
      <trkpt lat="42.8611283" lon="-5.2607535">
        <ele>1809.8</ele>
        <time>2016-08-30T15:47:02Z</time>
      </trkpt>
      <trkpt lat="42.8610119" lon="-5.2609326">
        <ele>1815.5</ele>
        <time>2016-08-30T15:47:05Z</time>
      </trkpt>
      <trkpt lat="42.8609054" lon="-5.260731">
        <ele>1821.0</ele>
        <time>2016-08-30T15:47:08Z</time>
      </trkpt>
      <trkpt lat="42.8609998" lon="-5.2605055">
        <ele>1826.3</ele>
        <time>2016-08-30T15:47:10Z</time>
      </trkpt>
      <trkpt lat="42.8611937" lon="-5.2603388">
        <ele>1829.4</ele>
        <time>2016-08-30T15:47:12Z</time>
      </trkpt>
      <trkpt lat="42.8614196" lon="-5.2602933">
        <ele>1834.0</ele>
        <time>2016-08-30T15:47:14Z</time>
      </trkpt>
      <trkpt lat="42.8616085" lon="-5.260414">
        <ele>1839.4</ele>
        <time>2016-08-30T15:47:16Z</time>
      </trkpt>
      <trkpt lat="42.8616908" lon="-5.2606282">
        <ele>1843.2</ele>
        <time>2016-08-30T15:47:18Z</time>
      </trkpt>
      <trkpt lat="42.8616864" lon="-5.2608189">
        <ele>1847.0</ele>
        <time>2016-08-30T15:47:20Z</time>
      </trkpt>
      <trkpt lat="42.861548" lon="-5.2608535">
        <ele>1852.6</ele>
        <time>2016-08-30T15:47:23Z</time>
      </trkpt>
      <trkpt lat="42.8614834" lon="-5.2606625">
        <ele>1856.4</ele>
        <time>2016-08-30T15:47:25Z</time>
      </trkpt>
      <trkpt lat="42.8615778" lon="-5.2603948">
        <ele>1859.1</ele>
        <time>2016-08-30T15:47:27Z</time>
      </trkpt>
      <trkpt lat="42.8617859" lon="-5.2602299">
        <ele>1865.4</ele>
        <time>2016-08-30T15:47:29Z</time>
      </trkpt>
      <trkpt lat="42.8621041" lon="-5.2603696">
        <ele>1871.3</ele>
        <time>2016-08-30T15:47:32Z</time>
      </trkpt>
      <trkpt lat="42.8621382" lon="-5.2606034">
        <ele>1874.1</ele>
        <time>2016-08-30T15:47:34Z</time>
      </trkpt>
      <trkpt lat="42.8619584" lon="-5.2606567">
        <ele>1877.3</ele>
        <time>2016-08-30T15:47:37Z</time>
      </trkpt>
      <trkpt lat="42.8618736" lon="-5.2604696">
        <ele>1881.1</ele>
        <time>2016-08-30T15:47:39Z</time>
      </trkpt>
      <trkpt lat="42.8619133" lon="-5.2602328">
        <ele>1883.9</ele>
        <time>2016-08-30T15:47:41Z</time>
      </trkpt>
      <trkpt lat="42.8620557" lon="-5.2599958">
        <ele>1887.1</ele>
        <time>2016-08-30T15:47:43Z</time>
      </trkpt>
      <trkpt lat="42.862295" lon="-5.2599208">
        <ele>1891.3</ele>
        <time>2016-08-30T15:47:45Z</time>
      </trkpt>
      <trkpt lat="42.862467" lon="-5.260097">
        <ele>1895.4</ele>
        <time>2016-08-30T15:47:47Z</time>
      </trkpt>
      <trkpt lat="42.8625063" lon="-5.2602961">
        <ele>1899.4</ele>
        <time>2016-08-30T15:47:49Z</time>
      </trkpt>
      <trkpt lat="42.8624168" lon="-5.2604854">
        <ele>1902.6</ele>
        <time>2016-08-30T15:47:52Z</time>
      </trkpt>
      <trkpt lat="42.8622858" lon="-5.2604395">
        <ele>1903.3</ele>
        <time>2016-08-30T15:47:54Z</time>
      </trkpt>
      <trkpt lat="42.8622105" lon="-5.260245">
        <ele>1904.5</ele>
        <time>2016-08-30T15:47:56Z</time>
      </trkpt>
      <trkpt lat="42.8622622" lon="-5.259956">
        <ele>1906.6</ele>
        <time>2016-08-30T15:47:58Z</time>
      </trkpt>
      <trkpt lat="42.8624245" lon="-5.2597397">
        <ele>1908.8</ele>
        <time>2016-08-30T15:48:00Z</time>
      </trkpt>
      <trkpt lat="42.8626485" lon="-5.2597104">
        <ele>1910.9</ele>
        <time>2016-08-30T15:48:02Z</time>
      </trkpt>
      <trkpt lat="42.8628127" lon="-5.2598581">
        <ele>1912.3</ele>
        <time>2016-08-30T15:48:04Z</time>
      </trkpt>
      <trkpt lat="42.8628584" lon="-5.2600897">
        <ele>1913.6</ele>
        <time>2016-08-30T15:48:06Z</time>
      </trkpt>
      <trkpt lat="42.8627342" lon="-5.2602644">
        <ele>1916.5</ele>
        <time>2016-08-30T15:48:09Z</time>
      </trkpt>
      <trkpt lat="42.8625814" lon="-5.2601139">
        <ele>1921.5</ele>
        <time>2016-08-30T15:48:12Z</time>
      </trkpt>
      <trkpt lat="42.8625648" lon="-5.2598695">
        <ele>1922.8</ele>
        <time>2016-08-30T15:48:14Z</time>
      </trkpt>
      <trkpt lat="42.8626695" lon="-5.259623">
        <ele>1925.0</ele>
        <time>2016-08-30T15:48:16Z</time>
      </trkpt>
      <trkpt lat="42.8628621" lon="-5.2594984">
        <ele>1927.6</ele>
        <time>2016-08-30T15:48:18Z</time>
      </trkpt>
      <trkpt lat="42.8630807" lon="-5.2595569">
        <ele>1931.6</ele>
        <time>2016-08-30T15:48:20Z</time>
      </trkpt>
      <trkpt lat="42.8632353" lon="-5.2597169">
        <ele>1933.2</ele>
        <time>2016-08-30T15:48:22Z</time>
      </trkpt>
      <trkpt lat="42.8632761" lon="-5.2599343">
        <ele>1934.2</ele>
        <time>2016-08-30T15:48:24Z</time>
      </trkpt>
      <trkpt lat="42.8631984" lon="-5.2601187">
        <ele>1935.1</ele>
        <time>2016-08-30T15:48:26Z</time>
      </trkpt>
      <trkpt lat="42.863037" lon="-5.2601273">
        <ele>1936.8</ele>
        <time>2016-08-30T15:48:29Z</time>
      </trkpt>
      <trkpt lat="42.8629642" lon="-5.2599593">
        <ele>1938.6</ele>
        <time>2016-08-30T15:48:31Z</time>
      </trkpt>
      <trkpt lat="42.8630179" lon="-5.2597043">
        <ele>1940.7</ele>
        <time>2016-08-30T15:48:33Z</time>
      </trkpt>
      <trkpt lat="42.8631807" lon="-5.2595186">
        <ele>1943.4</ele>
        <time>2016-08-30T15:48:35Z</time>
      </trkpt>
      <trkpt lat="42.8633851" lon="-5.2595069">
        <ele>1945.3</ele>
        <time>2016-08-30T15:48:37Z</time>
      </trkpt>
      <trkpt lat="42.8635808" lon="-5.2596872">
        <ele>1946.6</ele>
        <time>2016-08-30T15:48:39Z</time>
      </trkpt>
      <trkpt lat="42.863642" lon="-5.2599515">
        <ele>1948.7</ele>
        <time>2016-08-30T15:48:41Z</time>
      </trkpt>
      <trkpt lat="42.8635204" lon="-5.2600772">
        <ele>1950.5</ele>
        <time>2016-08-30T15:48:43Z</time>
      </trkpt>
      <trkpt lat="42.8634007" lon="-5.2598778">
        <ele>1953.5</ele>
        <time>2016-08-30T15:48:46Z</time>
      </trkpt>
      <trkpt lat="42.8634547" lon="-5.2596398">
        <ele>1955.9</ele>
        <time>2016-08-30T15:48:48Z</time>
      </trkpt>
      <trkpt lat="42.8636308" lon="-5.2594914">
        <ele>1960.9</ele>
        <time>2016-08-30T15:48:50Z</time>
      </trkpt>
      <trkpt lat="42.863952" lon="-5.2596106">
        <ele>1964.4</ele>
        <time>2016-08-30T15:48:53Z</time>
      </trkpt>
      <trkpt lat="42.8640255" lon="-5.2598529">
        <ele>1967.5</ele>
        <time>2016-08-30T15:48:55Z</time>
      </trkpt>
      <trkpt lat="42.8639374" lon="-5.2600042">
        <ele>1968.8</ele>
        <time>2016-08-30T15:48:57Z</time>
      </trkpt>
      <trkpt lat="42.8637988" lon="-5.2600052">
        <ele>1972.1</ele>
        <time>2016-08-30T15:49:00Z</time>
      </trkpt>
      <trkpt lat="42.8636908" lon="-5.2597678">
        <ele>1974.3</ele>
        <time>2016-08-30T15:49:03Z</time>
      </trkpt>
      <trkpt lat="42.8637278" lon="-5.2595503">
        <ele>1977.1</ele>
        <time>2016-08-30T15:49:05Z</time>
      </trkpt>
      <trkpt lat="42.8638354" lon="-5.2593628">
        <ele>1980.7</ele>
        <time>2016-08-30T15:49:07Z</time>
      </trkpt>
      <trkpt lat="42.8640122" lon="-5.2591768">
        <ele>1982.2</ele>
        <time>2016-08-30T15:49:09Z</time>
      </trkpt>
      <trkpt lat="42.8642604" lon="-5.2591703">
        <ele>1983.2</ele>
        <time>2016-08-30T15:49:11Z</time>
      </trkpt>
      <trkpt lat="42.8644579" lon="-5.2593189">
        <ele>1985.2</ele>
        <time>2016-08-30T15:49:13Z</time>
      </trkpt>
      <trkpt lat="42.8645607" lon="-5.2595028">
        <ele>1988.4</ele>
        <time>2016-08-30T15:49:15Z</time>
      </trkpt>
      <trkpt lat="42.8645536" lon="-5.2596997">
        <ele>1992.2</ele>
        <time>2016-08-30T15:49:17Z</time>
      </trkpt>
      <trkpt lat="42.8644042" lon="-5.2597706">
        <ele>1995.2</ele>
        <time>2016-08-30T15:49:20Z</time>
      </trkpt>
      <trkpt lat="42.8643303" lon="-5.2595655">
        <ele>1996.7</ele>
        <time>2016-08-30T15:49:22Z</time>
      </trkpt>
      <trkpt lat="42.8643655" lon="-5.2593214">
        <ele>1997.9</ele>
        <time>2016-08-30T15:49:24Z</time>
      </trkpt>
      <trkpt lat="42.8644757" lon="-5.2591187">
        <ele>1998.9</ele>
        <time>2016-08-30T15:49:26Z</time>
      </trkpt>
      <trkpt lat="42.8646913" lon="-5.258982">
        <ele>2001.7</ele>
        <time>2016-08-30T15:49:28Z</time>
      </trkpt>
      <trkpt lat="42.8649276" lon="-5.2589811">
        <ele>2007.7</ele>
        <time>2016-08-30T15:49:30Z</time>
      </trkpt>
      <trkpt lat="42.8651066" lon="-5.2591365">
        <ele>2011.2</ele>
        <time>2016-08-30T15:49:32Z</time>
      </trkpt>
      <trkpt lat="42.8651758" lon="-5.2593717">
        <ele>2014.4</ele>
        <time>2016-08-30T15:49:34Z</time>
      </trkpt>
      <trkpt lat="42.8650734" lon="-5.2595172">
        <ele>2020.0</ele>
        <time>2016-08-30T15:49:37Z</time>
      </trkpt>
      <trkpt lat="42.8649672" lon="-5.2593971">
        <ele>2022.1</ele>
        <time>2016-08-30T15:49:39Z</time>
      </trkpt>
      <trkpt lat="42.8649681" lon="-5.2591814">
        <ele>2024.8</ele>
        <time>2016-08-30T15:49:41Z</time>
      </trkpt>
      <trkpt lat="42.8651071" lon="-5.2589707">
        <ele>2026.0</ele>
        <time>2016-08-30T15:49:43Z</time>
      </trkpt>
      <trkpt lat="42.8653275" lon="-5.258865">
        <ele>2030.2</ele>
        <time>2016-08-30T15:49:45Z</time>
      </trkpt>
      <trkpt lat="42.8655597" lon="-5.2590022">
        <ele>2032.7</ele>
        <time>2016-08-30T15:49:47Z</time>
      </trkpt>
      <trkpt lat="42.8656855" lon="-5.2592464">
        <ele>2034.6</ele>
        <time>2016-08-30T15:49:49Z</time>
      </trkpt>
      <trkpt lat="42.8656395" lon="-5.2594588">
        <ele>2039.6</ele>
        <time>2016-08-30T15:49:52Z</time>
      </trkpt>
      <trkpt lat="42.8654776" lon="-5.2593826">
        <ele>2045.7</ele>
        <time>2016-08-30T15:49:55Z</time>
      </trkpt>
      <trkpt lat="42.8654383" lon="-5.2591148">
        <ele>2050.3</ele>
        <time>2016-08-30T15:49:57Z</time>
      </trkpt>
      <trkpt lat="42.8655515" lon="-5.2588686">
        <ele>2051.7</ele>
        <time>2016-08-30T15:49:59Z</time>
      </trkpt>
      <trkpt lat="42.8657815" lon="-5.2587896">
        <ele>2053.9</ele>
        <time>2016-08-30T15:50:01Z</time>
      </trkpt>
      <trkpt lat="42.866016" lon="-5.2588726">
        <ele>2055.9</ele>
        <time>2016-08-30T15:50:03Z</time>
      </trkpt>
      <trkpt lat="42.8661754" lon="-5.2590722">
        <ele>2057.2</ele>
        <time>2016-08-30T15:50:05Z</time>
      </trkpt>
      <trkpt lat="42.8662176" lon="-5.2592849">
        <ele>2061.5</ele>
        <time>2016-08-30T15:50:07Z</time>
      </trkpt>
      <trkpt lat="42.866077" lon="-5.2593998">
        <ele>2066.4</ele>
        <time>2016-08-30T15:50:10Z</time>
      </trkpt>
      <trkpt lat="42.8659727" lon="-5.2592251">
        <ele>2073.5</ele>
        <time>2016-08-30T15:50:12Z</time>
      </trkpt>
      <trkpt lat="42.8660224" lon="-5.2589503">
        <ele>2077.1</ele>
        <time>2016-08-30T15:50:14Z</time>
      </trkpt>
      <trkpt lat="42.8662127" lon="-5.25876">
        <ele>2078.8</ele>
        <time>2016-08-30T15:50:16Z</time>
      </trkpt>
      <trkpt lat="42.866533" lon="-5.2588482">
        <ele>2080.3</ele>
        <time>2016-08-30T15:50:19Z</time>
      </trkpt>
      <trkpt lat="42.8666567" lon="-5.2590991">
        <ele>2085.4</ele>
        <time>2016-08-30T15:50:21Z</time>
      </trkpt>
      <trkpt lat="42.8666574" lon="-5.259318">
        <ele>2088.6</ele>
        <time>2016-08-30T15:50:23Z</time>
      </trkpt>
      <trkpt lat="42.8665357" lon="-5.2594177">
        <ele>2091.2</ele>
        <time>2016-08-30T15:50:26Z</time>
      </trkpt>
      <trkpt lat="42.8664096" lon="-5.2592147">
        <ele>2095.3</ele>
        <time>2016-08-30T15:50:29Z</time>
      </trkpt>
      <trkpt lat="42.8664294" lon="-5.258964">
        <ele>2098.8</ele>
        <time>2016-08-30T15:50:31Z</time>
      </trkpt>
      <trkpt lat="42.8665781" lon="-5.2587413">
        <ele>2100.3</ele>
        <time>2016-08-30T15:50:33Z</time>
      </trkpt>
      <trkpt lat="42.8668191" lon="-5.2586781">
        <ele>2101.1</ele>
        <time>2016-08-30T15:50:35Z</time>
      </trkpt>
      <trkpt lat="42.8670399" lon="-5.2588261">
        <ele>2103.5</ele>
        <time>2016-08-30T15:50:37Z</time>
      </trkpt>
      <trkpt lat="42.8671504" lon="-5.2590919">
        <ele>2105.3</ele>
        <time>2016-08-30T15:50:39Z</time>
      </trkpt>
      <trkpt lat="42.8671473" lon="-5.2593517">
        <ele>2106.2</ele>
        <time>2016-08-30T15:50:41Z</time>
      </trkpt>
      <trkpt lat="42.8671705" lon="-5.2595533">
        <ele>2107.2</ele>
        <time>2016-08-30T15:50:43Z</time>
      </trkpt>
      <trkpt lat="42.8671887" lon="-5.2597498">
        <ele>2109.4</ele>
        <time>2016-08-30T15:50:45Z</time>
      </trkpt>
      <trkpt lat="42.867042" lon="-5.2598714">
        <ele>2111.0</ele>
        <time>2016-08-30T15:50:48Z</time>
      </trkpt>
      <trkpt lat="42.8669474" lon="-5.2596284">
        <ele>2112.6</ele>
        <time>2016-08-30T15:50:51Z</time>
      </trkpt>
      <trkpt lat="42.867011" lon="-5.2593867">
        <ele>2113.2</ele>
        <time>2016-08-30T15:50:53Z</time>
      </trkpt>
      <trkpt lat="42.8671783" lon="-5.2591489">
        <ele>2114.7</ele>
        <time>2016-08-30T15:50:55Z</time>
      </trkpt>
      <trkpt lat="42.8672553" lon="-5.2589184">
        <ele>2115.5</ele>
        <time>2016-08-30T15:50:57Z</time>
      </trkpt>
      <trkpt lat="42.8671986" lon="-5.2587234">
        <ele>2116.4</ele>
        <time>2016-08-30T15:50:59Z</time>
      </trkpt>
      <trkpt lat="42.8670488" lon="-5.2585874">
        <ele>2116.8</ele>
        <time>2016-08-30T15:51:02Z</time>
      </trkpt>
      <trkpt lat="42.8669431" lon="-5.2586825">
        <ele>2116.8</ele>
        <time>2016-08-30T15:51:04Z</time>
      </trkpt>
      <trkpt lat="42.8668823" lon="-5.2589143">
        <ele>2116.8</ele>
        <time>2016-08-30T15:51:06Z</time>
      </trkpt>
      <trkpt lat="42.866865" lon="-5.2591179">
        <ele>2116.8</ele>
        <time>2016-08-30T15:51:08Z</time>
      </trkpt>
      <trkpt lat="42.8668283" lon="-5.2593602">
        <ele>2116.8</ele>
        <time>2016-08-30T15:51:11Z</time>
      </trkpt>
      <trkpt lat="42.8666521" lon="-5.2593872">
        <ele>2116.8</ele>
        <time>2016-08-30T15:51:15Z</time>
      </trkpt>
      <trkpt lat="42.8665897" lon="-5.2592008">
        <ele>2116.8</ele>
        <time>2016-08-30T15:51:17Z</time>
      </trkpt>
      <trkpt lat="42.8666217" lon="-5.2589439">
        <ele>2116.8</ele>
        <time>2016-08-30T15:51:19Z</time>
      </trkpt>
      <trkpt lat="42.8667786" lon="-5.2586635">
        <ele>2116.8</ele>
        <time>2016-08-30T15:51:21Z</time>
      </trkpt>
      <trkpt lat="42.8669147" lon="-5.2583999">
        <ele>2116.8</ele>
        <time>2016-08-30T15:51:23Z</time>
      </trkpt>
      <trkpt lat="42.8669134" lon="-5.2581462">
        <ele>2116.8</ele>
        <time>2016-08-30T15:51:25Z</time>
      </trkpt>
      <trkpt lat="42.8668499" lon="-5.257912">
        <ele>2116.6</ele>
        <time>2016-08-30T15:51:27Z</time>
      </trkpt>
      <trkpt lat="42.8667904" lon="-5.2576712">
        <ele>2115.7</ele>
        <time>2016-08-30T15:51:29Z</time>
      </trkpt>
      <trkpt lat="42.8667434" lon="-5.2574499">
        <ele>2115.1</ele>
        <time>2016-08-30T15:51:31Z</time>
      </trkpt>
      <trkpt lat="42.8666786" lon="-5.2572256">
        <ele>2114.4</ele>
        <time>2016-08-30T15:51:33Z</time>
      </trkpt>
      <trkpt lat="42.8666276" lon="-5.257011">
        <ele>2113.1</ele>
        <time>2016-08-30T15:51:35Z</time>
      </trkpt>
      <trkpt lat="42.8665933" lon="-5.256749">
        <ele>2112.1</ele>
        <time>2016-08-30T15:51:37Z</time>
      </trkpt>
      <trkpt lat="42.866523" lon="-5.2565395">
        <ele>2111.7</ele>
        <time>2016-08-30T15:51:39Z</time>
      </trkpt>
      <trkpt lat="42.8664668" lon="-5.256318">
        <ele>2111.2</ele>
        <time>2016-08-30T15:51:41Z</time>
      </trkpt>
      <trkpt lat="42.8664278" lon="-5.256064">
        <ele>2110.7</ele>
        <time>2016-08-30T15:51:43Z</time>
      </trkpt>
      <trkpt lat="42.8663383" lon="-5.2558287">
        <ele>2110.0</ele>
        <time>2016-08-30T15:51:45Z</time>
      </trkpt>
      <trkpt lat="42.8662604" lon="-5.2555928">
        <ele>2109.4</ele>
        <time>2016-08-30T15:51:47Z</time>
      </trkpt>
      <trkpt lat="42.8662137" lon="-5.2553838">
        <ele>2108.8</ele>
        <time>2016-08-30T15:51:49Z</time>
      </trkpt>
      <trkpt lat="42.866162" lon="-5.2551546">
        <ele>2108.5</ele>
        <time>2016-08-30T15:51:51Z</time>
      </trkpt>
      <trkpt lat="42.8661367" lon="-5.2549308">
        <ele>2108.1</ele>
        <time>2016-08-30T15:51:53Z</time>
      </trkpt>
      <trkpt lat="42.8661585" lon="-5.2546535">
        <ele>2108.0</ele>
        <time>2016-08-30T15:51:55Z</time>
      </trkpt>
      <trkpt lat="42.8661148" lon="-5.2544152">
        <ele>2108.0</ele>
        <time>2016-08-30T15:51:57Z</time>
      </trkpt>
      <trkpt lat="42.8660123" lon="-5.2542125">
        <ele>2108.0</ele>
        <time>2016-08-30T15:51:59Z</time>
      </trkpt>
      <trkpt lat="42.8659202" lon="-5.2540171">
        <ele>2108.0</ele>
        <time>2016-08-30T15:52:01Z</time>
      </trkpt>
      <trkpt lat="42.8658707" lon="-5.2537793">
        <ele>2108.0</ele>
        <time>2016-08-30T15:52:03Z</time>
      </trkpt>
      <trkpt lat="42.8657229" lon="-5.2536225">
        <ele>2108.0</ele>
        <time>2016-08-30T15:52:05Z</time>
      </trkpt>
      <trkpt lat="42.8656339" lon="-5.2535977">
        <ele>2108.1</ele>
        <time>2016-08-30T15:52:06Z</time>
      </trkpt>
      <trkpt lat="42.8655313" lon="-5.2536274">
        <ele>2108.3</ele>
        <time>2016-08-30T15:52:07Z</time>
      </trkpt>
      <trkpt lat="42.8654371" lon="-5.2537029">
        <ele>2108.4</ele>
        <time>2016-08-30T15:52:08Z</time>
      </trkpt>
      <trkpt lat="42.8653997" lon="-5.2539138">
        <ele>2108.5</ele>
        <time>2016-08-30T15:52:10Z</time>
      </trkpt>
      <trkpt lat="42.8655737" lon="-5.2540552">
        <ele>2108.5</ele>
        <time>2016-08-30T15:52:13Z</time>
      </trkpt>
      <trkpt lat="42.865773" lon="-5.2540277">
        <ele>2108.5</ele>
        <time>2016-08-30T15:52:15Z</time>
      </trkpt>
      <trkpt lat="42.8659538" lon="-5.253814">
        <ele>2108.5</ele>
        <time>2016-08-30T15:52:17Z</time>
      </trkpt>
      <trkpt lat="42.8659874" lon="-5.2535222">
        <ele>2108.5</ele>
        <time>2016-08-30T15:52:19Z</time>
      </trkpt>
      <trkpt lat="42.8659047" lon="-5.2532835">
        <ele>2108.9</ele>
        <time>2016-08-30T15:52:21Z</time>
      </trkpt>
      <trkpt lat="42.8657365" lon="-5.2531755">
        <ele>2109.6</ele>
        <time>2016-08-30T15:52:23Z</time>
      </trkpt>
      <trkpt lat="42.8656457" lon="-5.2531686">
        <ele>2110.3</ele>
        <time>2016-08-30T15:52:24Z</time>
      </trkpt>
      <trkpt lat="42.865493" lon="-5.2532023">
        <ele>2112.3</ele>
        <time>2016-08-30T15:52:26Z</time>
      </trkpt>
      <trkpt lat="42.8653909" lon="-5.2533542">
        <ele>2114.9</ele>
        <time>2016-08-30T15:52:28Z</time>
      </trkpt>
      <trkpt lat="42.8654494" lon="-5.2536072">
        <ele>2121.6</ele>
        <time>2016-08-30T15:52:31Z</time>
      </trkpt>
      <trkpt lat="42.8656279" lon="-5.2536783">
        <ele>2127.5</ele>
        <time>2016-08-30T15:52:33Z</time>
      </trkpt>
      <trkpt lat="42.8658111" lon="-5.2535745">
        <ele>2131.8</ele>
        <time>2016-08-30T15:52:35Z</time>
      </trkpt>
      <trkpt lat="42.8659291" lon="-5.2533606">
        <ele>2135.2</ele>
        <time>2016-08-30T15:52:37Z</time>
      </trkpt>
      <trkpt lat="42.8659516" lon="-5.2531466">
        <ele>2138.9</ele>
        <time>2016-08-30T15:52:39Z</time>
      </trkpt>
      <trkpt lat="42.8658783" lon="-5.2529218">
        <ele>2146.2</ele>
        <time>2016-08-30T15:52:41Z</time>
      </trkpt>
      <trkpt lat="42.8657223" lon="-5.2528142">
        <ele>2153.1</ele>
        <time>2016-08-30T15:52:43Z</time>
      </trkpt>
      <trkpt lat="42.8655693" lon="-5.2528229">
        <ele>2157.6</ele>
        <time>2016-08-30T15:52:45Z</time>
      </trkpt>
      <trkpt lat="42.8654308" lon="-5.2528443">
        <ele>2162.1</ele>
        <time>2016-08-30T15:52:47Z</time>
      </trkpt>
      <trkpt lat="42.8652322" lon="-5.2527774">
        <ele>2173.6</ele>
        <time>2016-08-30T15:52:50Z</time>
      </trkpt>
      <trkpt lat="42.8651662" lon="-5.2525401">
        <ele>2173.6</ele>
        <time>2016-08-30T15:52:52Z</time>
      </trkpt>
      <trkpt lat="42.8651326" lon="-5.2522441">
        <ele>2176.8</ele>
        <time>2016-08-30T15:52:54Z</time>
      </trkpt>
      <trkpt lat="42.8650299" lon="-5.2519709">
        <ele>2179.6</ele>
        <time>2016-08-30T15:52:56Z</time>
      </trkpt>
      <trkpt lat="42.864955" lon="-5.2517522">
        <ele>2182.5</ele>
        <time>2016-08-30T15:52:58Z</time>
      </trkpt>
      <trkpt lat="42.8648991" lon="-5.2514809">
        <ele>2186.3</ele>
        <time>2016-08-30T15:53:00Z</time>
      </trkpt>
      <trkpt lat="42.8648542" lon="-5.2512169">
        <ele>2188.1</ele>
        <time>2016-08-30T15:53:02Z</time>
      </trkpt>
      <trkpt lat="42.864782" lon="-5.250961">
        <ele>2189.3</ele>
        <time>2016-08-30T15:53:04Z</time>
      </trkpt>
      <trkpt lat="42.8647103" lon="-5.2506937">
        <ele>2190.4</ele>
        <time>2016-08-30T15:53:06Z</time>
      </trkpt>
      <trkpt lat="42.8646343" lon="-5.250424">
        <ele>2194.0</ele>
        <time>2016-08-30T15:53:08Z</time>
      </trkpt>
      <trkpt lat="42.8645457" lon="-5.2501856">
        <ele>2195.5</ele>
        <time>2016-08-30T15:53:10Z</time>
      </trkpt>
      <trkpt lat="42.8644857" lon="-5.2499129">
        <ele>2195.9</ele>
        <time>2016-08-30T15:53:12Z</time>
      </trkpt>
      <trkpt lat="42.8644254" lon="-5.2496373">
        <ele>2196.0</ele>
        <time>2016-08-30T15:53:14Z</time>
      </trkpt>
      <trkpt lat="42.8643397" lon="-5.249407">
        <ele>2196.0</ele>
        <time>2016-08-30T15:53:16Z</time>
      </trkpt>
      <trkpt lat="42.8642563" lon="-5.2491537">
        <ele>2196.0</ele>
        <time>2016-08-30T15:53:18Z</time>
      </trkpt>
      <trkpt lat="42.8641635" lon="-5.2489013">
        <ele>2196.0</ele>
        <time>2016-08-30T15:53:20Z</time>
      </trkpt>
      <trkpt lat="42.8640796" lon="-5.2486986">
        <ele>2196.0</ele>
        <time>2016-08-30T15:53:22Z</time>
      </trkpt>
      <trkpt lat="42.8639843" lon="-5.2484852">
        <ele>2196.0</ele>
        <time>2016-08-30T15:53:24Z</time>
      </trkpt>
      <trkpt lat="42.8638716" lon="-5.2482505">
        <ele>2196.0</ele>
        <time>2016-08-30T15:53:26Z</time>
      </trkpt>
      <trkpt lat="42.8637582" lon="-5.2480221">
        <ele>2196.0</ele>
        <time>2016-08-30T15:53:28Z</time>
      </trkpt>
      <trkpt lat="42.8636549" lon="-5.2478077">
        <ele>2196.0</ele>
        <time>2016-08-30T15:53:30Z</time>
      </trkpt>
      <trkpt lat="42.8635506" lon="-5.2475744">
        <ele>2196.0</ele>
        <time>2016-08-30T15:53:32Z</time>
      </trkpt>
      <trkpt lat="42.8634592" lon="-5.2473255">
        <ele>2196.0</ele>
        <time>2016-08-30T15:53:34Z</time>
      </trkpt>
      <trkpt lat="42.8633721" lon="-5.2470664">
        <ele>2196.0</ele>
        <time>2016-08-30T15:53:36Z</time>
      </trkpt>
      <trkpt lat="42.863303" lon="-5.2468255">
        <ele>2196.0</ele>
        <time>2016-08-30T15:53:38Z</time>
      </trkpt>
      <trkpt lat="42.8632254" lon="-5.2465882">
        <ele>2194.6</ele>
        <time>2016-08-30T15:53:40Z</time>
      </trkpt>
      <trkpt lat="42.8631442" lon="-5.2463188">
        <ele>2192.2</ele>
        <time>2016-08-30T15:53:42Z</time>
      </trkpt>
      <trkpt lat="42.8630402" lon="-5.2460362">
        <ele>2188.3</ele>
        <time>2016-08-30T15:53:44Z</time>
      </trkpt>
      <trkpt lat="42.8629462" lon="-5.2457568">
        <ele>2185.8</ele>
        <time>2016-08-30T15:53:46Z</time>
      </trkpt>
      <trkpt lat="42.8628762" lon="-5.2454998">
        <ele>2183.9</ele>
        <time>2016-08-30T15:53:48Z</time>
      </trkpt>
      <trkpt lat="42.8627816" lon="-5.2452497">
        <ele>2180.9</ele>
        <time>2016-08-30T15:53:50Z</time>
      </trkpt>
      <trkpt lat="42.8626755" lon="-5.2449798">
        <ele>2177.2</ele>
        <time>2016-08-30T15:53:52Z</time>
      </trkpt>
      <trkpt lat="42.8625734" lon="-5.2447106">
        <ele>2174.3</ele>
        <time>2016-08-30T15:53:54Z</time>
      </trkpt>
      <trkpt lat="42.8624403" lon="-5.2444463">
        <ele>2169.1</ele>
        <time>2016-08-30T15:53:56Z</time>
      </trkpt>
      <trkpt lat="42.862325" lon="-5.2442074">
        <ele>2163.4</ele>
        <time>2016-08-30T15:53:58Z</time>
      </trkpt>
      <trkpt lat="42.8622189" lon="-5.2440134">
        <ele>2158.7</ele>
        <time>2016-08-30T15:54:00Z</time>
      </trkpt>
      <trkpt lat="42.8621038" lon="-5.2438106">
        <ele>2153.2</ele>
        <time>2016-08-30T15:54:02Z</time>
      </trkpt>
      <trkpt lat="42.8619799" lon="-5.2436143">
        <ele>2148.2</ele>
        <time>2016-08-30T15:54:04Z</time>
      </trkpt>
      <trkpt lat="42.861859" lon="-5.2434449">
        <ele>2142.4</ele>
        <time>2016-08-30T15:54:06Z</time>
      </trkpt>
      <trkpt lat="42.8617291" lon="-5.2432787">
        <ele>2137.1</ele>
        <time>2016-08-30T15:54:08Z</time>
      </trkpt>
      <trkpt lat="42.8615947" lon="-5.2430966">
        <ele>2133.3</ele>
        <time>2016-08-30T15:54:10Z</time>
      </trkpt>
      <trkpt lat="42.8614672" lon="-5.2428956">
        <ele>2128.6</ele>
        <time>2016-08-30T15:54:12Z</time>
      </trkpt>
      <trkpt lat="42.8613409" lon="-5.2427002">
        <ele>2122.7</ele>
        <time>2016-08-30T15:54:14Z</time>
      </trkpt>
      <trkpt lat="42.8612155" lon="-5.2425077">
        <ele>2116.8</ele>
        <time>2016-08-30T15:54:16Z</time>
      </trkpt>
      <trkpt lat="42.8610981" lon="-5.2423059">
        <ele>2111.9</ele>
        <time>2016-08-30T15:54:18Z</time>
      </trkpt>
      <trkpt lat="42.8609708" lon="-5.242096">
        <ele>2107.1</ele>
        <time>2016-08-30T15:54:20Z</time>
      </trkpt>
      <trkpt lat="42.8608491" lon="-5.2419209">
        <ele>2101.1</ele>
        <time>2016-08-30T15:54:22Z</time>
      </trkpt>
      <trkpt lat="42.8607253" lon="-5.2417417">
        <ele>2094.9</ele>
        <time>2016-08-30T15:54:24Z</time>
      </trkpt>
      <trkpt lat="42.8605787" lon="-5.2415605">
        <ele>2091.6</ele>
        <time>2016-08-30T15:54:26Z</time>
      </trkpt>
      <trkpt lat="42.860479" lon="-5.2414118">
        <ele>2087.2</ele>
        <time>2016-08-30T15:54:28Z</time>
      </trkpt>
      <trkpt lat="42.860372" lon="-5.2412569">
        <ele>2083.0</ele>
        <time>2016-08-30T15:54:30Z</time>
      </trkpt>
      <trkpt lat="42.8602223" lon="-5.2410834">
        <ele>2077.6</ele>
        <time>2016-08-30T15:54:32Z</time>
      </trkpt>
      <trkpt lat="42.8601235" lon="-5.2409192">
        <ele>2071.4</ele>
        <time>2016-08-30T15:54:34Z</time>
      </trkpt>
      <trkpt lat="42.8600308" lon="-5.2407648">
        <ele>2064.9</ele>
        <time>2016-08-30T15:54:36Z</time>
      </trkpt>
      <trkpt lat="42.8599106" lon="-5.2405792">
        <ele>2060.2</ele>
        <time>2016-08-30T15:54:38Z</time>
      </trkpt>
      <trkpt lat="42.8597654" lon="-5.2404017">
        <ele>2054.8</ele>
        <time>2016-08-30T15:54:40Z</time>
      </trkpt>
      <trkpt lat="42.8596273" lon="-5.2402533">
        <ele>2049.5</ele>
        <time>2016-08-30T15:54:42Z</time>
      </trkpt>
      <trkpt lat="42.8595033" lon="-5.2401046">
        <ele>2045.3</ele>
        <time>2016-08-30T15:54:44Z</time>
      </trkpt>
      <trkpt lat="42.85939" lon="-5.2399131">
        <ele>2041.0</ele>
        <time>2016-08-30T15:54:46Z</time>
      </trkpt>
      <trkpt lat="42.8593166" lon="-5.239677">
        <ele>2038.2</ele>
        <time>2016-08-30T15:54:48Z</time>
      </trkpt>
      <trkpt lat="42.8592811" lon="-5.2394346">
        <ele>2034.0</ele>
        <time>2016-08-30T15:54:50Z</time>
      </trkpt>
      <trkpt lat="42.8592408" lon="-5.2391904">
        <ele>2029.0</ele>
        <time>2016-08-30T15:54:52Z</time>
      </trkpt>
      <trkpt lat="42.8591837" lon="-5.2389176">
        <ele>2024.7</ele>
        <time>2016-08-30T15:54:54Z</time>
      </trkpt>
      <trkpt lat="42.8591406" lon="-5.238654">
        <ele>2019.8</ele>
        <time>2016-08-30T15:54:56Z</time>
      </trkpt>
      <trkpt lat="42.859113" lon="-5.2384263">
        <ele>2013.9</ele>
        <time>2016-08-30T15:54:58Z</time>
      </trkpt>
      <trkpt lat="42.8590733" lon="-5.2381867">
        <ele>2009.9</ele>
        <time>2016-08-30T15:55:00Z</time>
      </trkpt>
      <trkpt lat="42.8590422" lon="-5.2379593">
        <ele>2005.2</ele>
        <time>2016-08-30T15:55:02Z</time>
      </trkpt>
      <trkpt lat="42.8590371" lon="-5.2377365">
        <ele>1998.7</ele>
        <time>2016-08-30T15:55:04Z</time>
      </trkpt>
      <trkpt lat="42.8590056" lon="-5.2375055">
        <ele>1996.1</ele>
        <time>2016-08-30T15:55:06Z</time>
      </trkpt>
      <trkpt lat="42.8589586" lon="-5.2372553">
        <ele>1991.8</ele>
        <time>2016-08-30T15:55:08Z</time>
      </trkpt>
      <trkpt lat="42.8589075" lon="-5.2370253">
        <ele>1984.3</ele>
        <time>2016-08-30T15:55:10Z</time>
      </trkpt>
      <trkpt lat="42.8588466" lon="-5.2367849">
        <ele>1979.1</ele>
        <time>2016-08-30T15:55:12Z</time>
      </trkpt>
      <trkpt lat="42.8587447" lon="-5.2365568">
        <ele>1975.8</ele>
        <time>2016-08-30T15:55:14Z</time>
      </trkpt>
      <trkpt lat="42.8586636" lon="-5.2363277">
        <ele>1970.7</ele>
        <time>2016-08-30T15:55:16Z</time>
      </trkpt>
      <trkpt lat="42.8586083" lon="-5.2360926">
        <ele>1965.3</ele>
        <time>2016-08-30T15:55:18Z</time>
      </trkpt>
      <trkpt lat="42.8585206" lon="-5.2358748">
        <ele>1961.2</ele>
        <time>2016-08-30T15:55:20Z</time>
      </trkpt>
      <trkpt lat="42.8584216" lon="-5.2356601">
        <ele>1958.3</ele>
        <time>2016-08-30T15:55:22Z</time>
      </trkpt>
      <trkpt lat="42.8583223" lon="-5.2354597">
        <ele>1953.7</ele>
        <time>2016-08-30T15:55:24Z</time>
      </trkpt>
      <trkpt lat="42.8582326" lon="-5.2353107">
        <ele>1948.5</ele>
        <time>2016-08-30T15:55:26Z</time>
      </trkpt>
      <trkpt lat="42.8581388" lon="-5.2351542">
        <ele>1945.8</ele>
        <time>2016-08-30T15:55:28Z</time>
      </trkpt>
      <trkpt lat="42.8580359" lon="-5.2350047">
        <ele>1942.4</ele>
        <time>2016-08-30T15:55:30Z</time>
      </trkpt>
      <trkpt lat="42.8579243" lon="-5.2348455">
        <ele>1937.7</ele>
        <time>2016-08-30T15:55:32Z</time>
      </trkpt>
      <trkpt lat="42.8578351" lon="-5.2346766">
        <ele>1934.3</ele>
        <time>2016-08-30T15:55:34Z</time>
      </trkpt>
      <trkpt lat="42.857728" lon="-5.2344704">
        <ele>1931.1</ele>
        <time>2016-08-30T15:55:36Z</time>
      </trkpt>
      <trkpt lat="42.8576113" lon="-5.2343011">
        <ele>1926.2</ele>
        <time>2016-08-30T15:55:38Z</time>
      </trkpt>
      <trkpt lat="42.8575014" lon="-5.2341147">
        <ele>1921.2</ele>
        <time>2016-08-30T15:55:40Z</time>
      </trkpt>
      <trkpt lat="42.8574017" lon="-5.2339497">
        <ele>1917.5</ele>
        <time>2016-08-30T15:55:42Z</time>
      </trkpt>
      <trkpt lat="42.8573009" lon="-5.2337794">
        <ele>1912.3</ele>
        <time>2016-08-30T15:55:44Z</time>
      </trkpt>
      <trkpt lat="42.8572048" lon="-5.2335578">
        <ele>1907.6</ele>
        <time>2016-08-30T15:55:46Z</time>
      </trkpt>
      <trkpt lat="42.8571088" lon="-5.2333485">
        <ele>1903.4</ele>
        <time>2016-08-30T15:55:48Z</time>
      </trkpt>
      <trkpt lat="42.8570272" lon="-5.233142">
        <ele>1899.4</ele>
        <time>2016-08-30T15:55:50Z</time>
      </trkpt>
      <trkpt lat="42.8569309" lon="-5.2329344">
        <ele>1894.3</ele>
        <time>2016-08-30T15:55:52Z</time>
      </trkpt>
      <trkpt lat="42.8568323" lon="-5.2327433">
        <ele>1889.0</ele>
        <time>2016-08-30T15:55:54Z</time>
      </trkpt>
      <trkpt lat="42.8567337" lon="-5.2325207">
        <ele>1886.4</ele>
        <time>2016-08-30T15:55:56Z</time>
      </trkpt>
      <trkpt lat="42.8566354" lon="-5.2322948">
        <ele>1883.5</ele>
        <time>2016-08-30T15:55:58Z</time>
      </trkpt>
      <trkpt lat="42.856515" lon="-5.2320794">
        <ele>1879.0</ele>
        <time>2016-08-30T15:56:00Z</time>
      </trkpt>
      <trkpt lat="42.8564053" lon="-5.2318998">
        <ele>1872.7</ele>
        <time>2016-08-30T15:56:02Z</time>
      </trkpt>
      <trkpt lat="42.8563022" lon="-5.231717">
        <ele>1867.9</ele>
        <time>2016-08-30T15:56:04Z</time>
      </trkpt>
      <trkpt lat="42.8561855" lon="-5.2315584">
        <ele>1862.6</ele>
        <time>2016-08-30T15:56:06Z</time>
      </trkpt>
      <trkpt lat="42.8560551" lon="-5.231382">
        <ele>1855.6</ele>
        <time>2016-08-30T15:56:08Z</time>
      </trkpt>
      <trkpt lat="42.8559329" lon="-5.2312366">
        <ele>1850.0</ele>
        <time>2016-08-30T15:56:10Z</time>
      </trkpt>
      <trkpt lat="42.8558262" lon="-5.2310703">
        <ele>1845.6</ele>
        <time>2016-08-30T15:56:12Z</time>
      </trkpt>
      <trkpt lat="42.8557119" lon="-5.230893">
        <ele>1841.7</ele>
        <time>2016-08-30T15:56:14Z</time>
      </trkpt>
      <trkpt lat="42.8556057" lon="-5.2306852">
        <ele>1838.2</ele>
        <time>2016-08-30T15:56:16Z</time>
      </trkpt>
      <trkpt lat="42.8555078" lon="-5.2304839">
        <ele>1836.4</ele>
        <time>2016-08-30T15:56:18Z</time>
      </trkpt>
      <trkpt lat="42.8553894" lon="-5.2302884">
        <ele>1835.6</ele>
        <time>2016-08-30T15:56:20Z</time>
      </trkpt>
      <trkpt lat="42.8552929" lon="-5.2300885">
        <ele>1835.3</ele>
        <time>2016-08-30T15:56:22Z</time>
      </trkpt>
      <trkpt lat="42.855175" lon="-5.2299021">
        <ele>1834.8</ele>
        <time>2016-08-30T15:56:24Z</time>
      </trkpt>
      <trkpt lat="42.8550667" lon="-5.229705">
        <ele>1833.9</ele>
        <time>2016-08-30T15:56:26Z</time>
      </trkpt>
      <trkpt lat="42.8549184" lon="-5.2295256">
        <ele>1832.3</ele>
        <time>2016-08-30T15:56:28Z</time>
      </trkpt>
      <trkpt lat="42.8547906" lon="-5.2293441">
        <ele>1830.5</ele>
        <time>2016-08-30T15:56:30Z</time>
      </trkpt>
      <trkpt lat="42.8546771" lon="-5.2291622">
        <ele>1829.1</ele>
        <time>2016-08-30T15:56:32Z</time>
      </trkpt>
      <trkpt lat="42.8545504" lon="-5.229001">
        <ele>1827.8</ele>
        <time>2016-08-30T15:56:34Z</time>
      </trkpt>
      <trkpt lat="42.854429" lon="-5.2288251">
        <ele>1826.3</ele>
        <time>2016-08-30T15:56:36Z</time>
      </trkpt>
      <trkpt lat="42.8543216" lon="-5.2286085">
        <ele>1822.5</ele>
        <time>2016-08-30T15:56:38Z</time>
      </trkpt>
      <trkpt lat="42.8542159" lon="-5.2284304">
        <ele>1818.6</ele>
        <time>2016-08-30T15:56:40Z</time>
      </trkpt>
      <trkpt lat="42.8541198" lon="-5.2282707">
        <ele>1816.8</ele>
        <time>2016-08-30T15:56:42Z</time>
      </trkpt>
      <trkpt lat="42.8540183" lon="-5.2280898">
        <ele>1813.8</ele>
        <time>2016-08-30T15:56:44Z</time>
      </trkpt>
      <trkpt lat="42.8538978" lon="-5.2278923">
        <ele>1808.8</ele>
        <time>2016-08-30T15:56:46Z</time>
      </trkpt>
      <trkpt lat="42.8537859" lon="-5.2277037">
        <ele>1804.8</ele>
        <time>2016-08-30T15:56:48Z</time>
      </trkpt>
      <trkpt lat="42.8536847" lon="-5.2274958">
        <ele>1799.1</ele>
        <time>2016-08-30T15:56:50Z</time>
      </trkpt>
      <trkpt lat="42.8535682" lon="-5.227281">
        <ele>1794.3</ele>
        <time>2016-08-30T15:56:52Z</time>
      </trkpt>
      <trkpt lat="42.8534687" lon="-5.2270709">
        <ele>1788.9</ele>
        <time>2016-08-30T15:56:54Z</time>
      </trkpt>
      <trkpt lat="42.8533531" lon="-5.2268692">
        <ele>1783.0</ele>
        <time>2016-08-30T15:56:56Z</time>
      </trkpt>
      <trkpt lat="42.8532491" lon="-5.2266386">
        <ele>1776.0</ele>
        <time>2016-08-30T15:56:58Z</time>
      </trkpt>
      <trkpt lat="42.8531607" lon="-5.2264669">
        <ele>1768.3</ele>
        <time>2016-08-30T15:57:00Z</time>
      </trkpt>
      <trkpt lat="42.8530941" lon="-5.2263026">
        <ele>1763.0</ele>
        <time>2016-08-30T15:57:02Z</time>
      </trkpt>
      <trkpt lat="42.8530258" lon="-5.2260854">
        <ele>1757.4</ele>
        <time>2016-08-30T15:57:04Z</time>
      </trkpt>
      <trkpt lat="42.8529485" lon="-5.2259071">
        <ele>1751.3</ele>
        <time>2016-08-30T15:57:06Z</time>
      </trkpt>
      <trkpt lat="42.8527888" lon="-5.225851">
        <ele>1744.0</ele>
        <time>2016-08-30T15:57:09Z</time>
      </trkpt>
      <trkpt lat="42.852692" lon="-5.2259503">
        <ele>1740.9</ele>
        <time>2016-08-30T15:57:11Z</time>
      </trkpt>
      <trkpt lat="42.8527442" lon="-5.2262359">
        <ele>1737.6</ele>
        <time>2016-08-30T15:57:14Z</time>
      </trkpt>
      <trkpt lat="42.8528478" lon="-5.2264373">
        <ele>1733.7</ele>
        <time>2016-08-30T15:57:16Z</time>
      </trkpt>
      <trkpt lat="42.8528579" lon="-5.2266275">
        <ele>1730.6</ele>
        <time>2016-08-30T15:57:18Z</time>
      </trkpt>
      <trkpt lat="42.852731" lon="-5.2267408">
        <ele>1728.2</ele>
        <time>2016-08-30T15:57:20Z</time>
      </trkpt>
      <trkpt lat="42.8525676" lon="-5.2266717">
        <ele>1726.4</ele>
        <time>2016-08-30T15:57:22Z</time>
      </trkpt>
      <trkpt lat="42.8524296" lon="-5.2265082">
        <ele>1725.4</ele>
        <time>2016-08-30T15:57:24Z</time>
      </trkpt>
      <trkpt lat="42.8523047" lon="-5.2263653">
        <ele>1725.0</ele>
        <time>2016-08-30T15:57:26Z</time>
      </trkpt>
      <trkpt lat="42.8521894" lon="-5.2261843">
        <ele>1724.7</ele>
        <time>2016-08-30T15:57:28Z</time>
      </trkpt>
      <trkpt lat="42.8520849" lon="-5.2259803">
        <ele>1724.5</ele>
        <time>2016-08-30T15:57:30Z</time>
      </trkpt>
      <trkpt lat="42.8519816" lon="-5.2258216">
        <ele>1724.3</ele>
        <time>2016-08-30T15:57:32Z</time>
      </trkpt>
      <trkpt lat="42.8518843" lon="-5.2256387">
        <ele>1724.1</ele>
        <time>2016-08-30T15:57:34Z</time>
      </trkpt>
      <trkpt lat="42.8518274" lon="-5.2254303">
        <ele>1723.4</ele>
        <time>2016-08-30T15:57:36Z</time>
      </trkpt>
      <trkpt lat="42.8518219" lon="-5.2251836">
        <ele>1723.0</ele>
        <time>2016-08-30T15:57:38Z</time>
      </trkpt>
      <trkpt lat="42.8517995" lon="-5.2249679">
        <ele>1722.6</ele>
        <time>2016-08-30T15:57:40Z</time>
      </trkpt>
      <trkpt lat="42.8516853" lon="-5.2248484">
        <ele>1722.2</ele>
        <time>2016-08-30T15:57:42Z</time>
      </trkpt>
      <trkpt lat="42.8515815" lon="-5.2248451">
        <ele>1721.8</ele>
        <time>2016-08-30T15:57:44Z</time>
      </trkpt>
      <trkpt lat="42.8515182" lon="-5.2249773">
        <ele>1721.7</ele>
        <time>2016-08-30T15:57:46Z</time>
      </trkpt>
      <trkpt lat="42.8515634" lon="-5.2251844">
        <ele>1721.7</ele>
        <time>2016-08-30T15:57:48Z</time>
      </trkpt>
      <trkpt lat="42.8517186" lon="-5.2253483">
        <ele>1721.7</ele>
        <time>2016-08-30T15:57:50Z</time>
      </trkpt>
      <trkpt lat="42.8519432" lon="-5.2254187">
        <ele>1721.7</ele>
        <time>2016-08-30T15:57:52Z</time>
      </trkpt>
      <trkpt lat="42.8521591" lon="-5.2252769">
        <ele>1721.7</ele>
        <time>2016-08-30T15:57:54Z</time>
      </trkpt>
      <trkpt lat="42.8522864" lon="-5.225055">
        <ele>1721.7</ele>
        <time>2016-08-30T15:57:56Z</time>
      </trkpt>
      <trkpt lat="42.8523008" lon="-5.2248125">
        <ele>1722.0</ele>
        <time>2016-08-30T15:57:58Z</time>
      </trkpt>
      <trkpt lat="42.8522221" lon="-5.2246029">
        <ele>1722.5</ele>
        <time>2016-08-30T15:58:00Z</time>
      </trkpt>
      <trkpt lat="42.8520797" lon="-5.2245353">
        <ele>1722.8</ele>
        <time>2016-08-30T15:58:02Z</time>
      </trkpt>
      <trkpt lat="42.8519975" lon="-5.2245917">
        <ele>1723.0</ele>
        <time>2016-08-30T15:58:04Z</time>
      </trkpt>
      <trkpt lat="42.8519976" lon="-5.2248613">
        <ele>1724.1</ele>
        <time>2016-08-30T15:58:07Z</time>
      </trkpt>
      <trkpt lat="42.8521452" lon="-5.2250197">
        <ele>1724.3</ele>
        <time>2016-08-30T15:58:09Z</time>
      </trkpt>
      <trkpt lat="42.8523016" lon="-5.2249947">
        <ele>1724.3</ele>
        <time>2016-08-30T15:58:10Z</time>
      </trkpt>
      <trkpt lat="42.8524317" lon="-5.2249455">
        <ele>1724.3</ele>
        <time>2016-08-30T15:58:11Z</time>
      </trkpt>
      <trkpt lat="42.8525707" lon="-5.2248816">
        <ele>1724.4</ele>
        <time>2016-08-30T15:58:12Z</time>
      </trkpt>
      <trkpt lat="42.8527776" lon="-5.2247153">
        <ele>1724.4</ele>
        <time>2016-08-30T15:58:14Z</time>
      </trkpt>
      <trkpt lat="42.8528813" lon="-5.2245071">
        <ele>1727.4</ele>
        <time>2016-08-30T15:58:16Z</time>
      </trkpt>
      <trkpt lat="42.8528605" lon="-5.2242365">
        <ele>1729.4</ele>
        <time>2016-08-30T15:58:18Z</time>
      </trkpt>
      <trkpt lat="42.8527559" lon="-5.2240396">
        <ele>1730.7</ele>
        <time>2016-08-30T15:58:20Z</time>
      </trkpt>
      <trkpt lat="42.8526287" lon="-5.2239341">
        <ele>1731.9</ele>
        <time>2016-08-30T15:58:22Z</time>
      </trkpt>
      <trkpt lat="42.8524988" lon="-5.2237749">
        <ele>1735.2</ele>
        <time>2016-08-30T15:58:25Z</time>
      </trkpt>
      <trkpt lat="42.8523707" lon="-5.2236121">
        <ele>1740.2</ele>
        <time>2016-08-30T15:58:28Z</time>
      </trkpt>
      <trkpt lat="42.8522983" lon="-5.2234535">
        <ele>1741.8</ele>
        <time>2016-08-30T15:58:30Z</time>
      </trkpt>
      <trkpt lat="42.8522124" lon="-5.2232083">
        <ele>1746.6</ele>
        <time>2016-08-30T15:58:33Z</time>
      </trkpt>
      <trkpt lat="42.8521507" lon="-5.2229557">
        <ele>1749.5</ele>
        <time>2016-08-30T15:58:36Z</time>
      </trkpt>
      <trkpt lat="42.8521093" lon="-5.222778">
        <ele>1750.2</ele>
        <time>2016-08-30T15:58:38Z</time>
      </trkpt>
      <trkpt lat="42.8520208" lon="-5.2225605">
        <ele>1752.7</ele>
        <time>2016-08-30T15:58:41Z</time>
      </trkpt>
      <trkpt lat="42.8518462" lon="-5.222565">
        <ele>1754.0</ele>
        <time>2016-08-30T15:58:45Z</time>
      </trkpt>
      <trkpt lat="42.8518047" lon="-5.2227434">
        <ele>1754.2</ele>
        <time>2016-08-30T15:58:47Z</time>
      </trkpt>
      <trkpt lat="42.8518676" lon="-5.2229885">
        <ele>1754.5</ele>
        <time>2016-08-30T15:58:49Z</time>
      </trkpt>
      <trkpt lat="42.8520166" lon="-5.2231724">
        <ele>1754.8</ele>
        <time>2016-08-30T15:58:51Z</time>
      </trkpt>
      <trkpt lat="42.8522396" lon="-5.2231877">
        <ele>1756.1</ele>
        <time>2016-08-30T15:58:53Z</time>
      </trkpt>
      <trkpt lat="42.8524372" lon="-5.2230495">
        <ele>1758.8</ele>
        <time>2016-08-30T15:58:55Z</time>
      </trkpt>
      <trkpt lat="42.8525059" lon="-5.2227888">
        <ele>1761.0</ele>
        <time>2016-08-30T15:58:57Z</time>
      </trkpt>
      <trkpt lat="42.8524555" lon="-5.2225852">
        <ele>1763.6</ele>
        <time>2016-08-30T15:58:59Z</time>
      </trkpt>
      <trkpt lat="42.8522778" lon="-5.2225989">
        <ele>1767.4</ele>
        <time>2016-08-30T15:59:01Z</time>
      </trkpt>
      <trkpt lat="42.8522143" lon="-5.2227461">
        <ele>1772.6</ele>
        <time>2016-08-30T15:59:03Z</time>
      </trkpt>
      <trkpt lat="42.8522668" lon="-5.2229489">
        <ele>1777.8</ele>
        <time>2016-08-30T15:59:05Z</time>
      </trkpt>
      <trkpt lat="42.8523768" lon="-5.2231214">
        <ele>1781.8</ele>
        <time>2016-08-30T15:59:07Z</time>
      </trkpt>
      <trkpt lat="42.8525834" lon="-5.2232473">
        <ele>1786.6</ele>
        <time>2016-08-30T15:59:09Z</time>
      </trkpt>
      <trkpt lat="42.852704" lon="-5.2232346">
        <ele>1792.1</ele>
        <time>2016-08-30T15:59:10Z</time>
      </trkpt>
      <trkpt lat="42.8528177" lon="-5.2231711">
        <ele>1792.1</ele>
        <time>2016-08-30T15:59:11Z</time>
      </trkpt>
      <trkpt lat="42.8528855" lon="-5.2230751">
        <ele>1792.1</ele>
        <time>2016-08-30T15:59:12Z</time>
      </trkpt>
      <trkpt lat="42.8529437" lon="-5.2229525">
        <ele>1792.1</ele>
        <time>2016-08-30T15:59:13Z</time>
      </trkpt>
      <trkpt lat="42.8529693" lon="-5.2228312">
        <ele>1792.1</ele>
        <time>2016-08-30T15:59:14Z</time>
      </trkpt>
      <trkpt lat="42.8529448" lon="-5.2226358">
        <ele>1792.7</ele>
        <time>2016-08-30T15:59:16Z</time>
      </trkpt>
      <trkpt lat="42.8528048" lon="-5.2225093">
        <ele>1793.8</ele>
        <time>2016-08-30T15:59:19Z</time>
      </trkpt>
      <trkpt lat="42.8527264" lon="-5.2226065">
        <ele>1795.5</ele>
        <time>2016-08-30T15:59:21Z</time>
      </trkpt>
      <trkpt lat="42.8527206" lon="-5.2228284">
        <ele>1799.2</ele>
        <time>2016-08-30T15:59:23Z</time>
      </trkpt>
      <trkpt lat="42.852841" lon="-5.223042">
        <ele>1801.9</ele>
        <time>2016-08-30T15:59:25Z</time>
      </trkpt>
      <trkpt lat="42.8530725" lon="-5.2231561">
        <ele>1805.4</ele>
        <time>2016-08-30T15:59:27Z</time>
      </trkpt>
      <trkpt lat="42.8532834" lon="-5.2230494">
        <ele>1809.7</ele>
        <time>2016-08-30T15:59:29Z</time>
      </trkpt>
      <trkpt lat="42.8534011" lon="-5.2227855">
        <ele>1814.1</ele>
        <time>2016-08-30T15:59:31Z</time>
      </trkpt>
      <trkpt lat="42.8533612" lon="-5.2226085">
        <ele>1818.3</ele>
        <time>2016-08-30T15:59:33Z</time>
      </trkpt>
      <trkpt lat="42.8531879" lon="-5.2225977">
        <ele>1825.7</ele>
        <time>2016-08-30T15:59:36Z</time>
      </trkpt>
      <trkpt lat="42.8531199" lon="-5.2227946">
        <ele>1829.0</ele>
        <time>2016-08-30T15:59:38Z</time>
      </trkpt>
      <trkpt lat="42.8531694" lon="-5.2230578">
        <ele>1830.9</ele>
        <time>2016-08-30T15:59:40Z</time>
      </trkpt>
      <trkpt lat="42.853352" lon="-5.2232534">
        <ele>1831.8</ele>
        <time>2016-08-30T15:59:42Z</time>
      </trkpt>
      <trkpt lat="42.8536049" lon="-5.2232978">
        <ele>1834.6</ele>
        <time>2016-08-30T15:59:44Z</time>
      </trkpt>
      <trkpt lat="42.8537882" lon="-5.2231575">
        <ele>1840.5</ele>
        <time>2016-08-30T15:59:46Z</time>
      </trkpt>
      <trkpt lat="42.8538693" lon="-5.2229374">
        <ele>1845.5</ele>
        <time>2016-08-30T15:59:48Z</time>
      </trkpt>
      <trkpt lat="42.8537999" lon="-5.2227413">
        <ele>1850.4</ele>
        <time>2016-08-30T15:59:51Z</time>
      </trkpt>
      <trkpt lat="42.8536795" lon="-5.2227152">
        <ele>1854.5</ele>
        <time>2016-08-30T15:59:53Z</time>
      </trkpt>
      <trkpt lat="42.8535852" lon="-5.2228282">
        <ele>1858.1</ele>
        <time>2016-08-30T15:59:55Z</time>
      </trkpt>
      <trkpt lat="42.8535557" lon="-5.2230297">
        <ele>1861.1</ele>
        <time>2016-08-30T15:59:57Z</time>
      </trkpt>
      <trkpt lat="42.8536179" lon="-5.22327">
        <ele>1863.5</ele>
        <time>2016-08-30T15:59:59Z</time>
      </trkpt>
      <trkpt lat="42.8537995" lon="-5.2234648">
        <ele>1864.5</ele>
        <time>2016-08-30T16:00:01Z</time>
      </trkpt>
      <trkpt lat="42.8540361" lon="-5.2234687">
        <ele>1868.8</ele>
        <time>2016-08-30T16:00:03Z</time>
      </trkpt>
      <trkpt lat="42.8542076" lon="-5.2232906">
        <ele>1873.0</ele>
        <time>2016-08-30T16:00:05Z</time>
      </trkpt>
      <trkpt lat="42.8542762" lon="-5.2230272">
        <ele>1876.1</ele>
        <time>2016-08-30T16:00:07Z</time>
      </trkpt>
      <trkpt lat="42.8542445" lon="-5.2228301">
        <ele>1881.0</ele>
        <time>2016-08-30T16:00:09Z</time>
      </trkpt>
      <trkpt lat="42.854161" lon="-5.2226734">
        <ele>1885.3</ele>
        <time>2016-08-30T16:00:11Z</time>
      </trkpt>
      <trkpt lat="42.8540863" lon="-5.2224963">
        <ele>1888.2</ele>
        <time>2016-08-30T16:00:13Z</time>
      </trkpt>
      <trkpt lat="42.8540858" lon="-5.2222221">
        <ele>1890.9</ele>
        <time>2016-08-30T16:00:16Z</time>
      </trkpt>
      <trkpt lat="42.85399" lon="-5.2220294">
        <ele>1894.5</ele>
        <time>2016-08-30T16:00:19Z</time>
      </trkpt>
      <trkpt lat="42.8538669" lon="-5.2221045">
        <ele>1897.5</ele>
        <time>2016-08-30T16:00:21Z</time>
      </trkpt>
      <trkpt lat="42.8538763" lon="-5.2223455">
        <ele>1899.4</ele>
        <time>2016-08-30T16:00:23Z</time>
      </trkpt>
      <trkpt lat="42.8540392" lon="-5.2225579">
        <ele>1905.7</ele>
        <time>2016-08-30T16:00:25Z</time>
      </trkpt>
      <trkpt lat="42.8542695" lon="-5.2226098">
        <ele>1909.8</ele>
        <time>2016-08-30T16:00:27Z</time>
      </trkpt>
      <trkpt lat="42.8544896" lon="-5.2224941">
        <ele>1914.8</ele>
        <time>2016-08-30T16:00:29Z</time>
      </trkpt>
      <trkpt lat="42.8545674" lon="-5.2222732">
        <ele>1915.3</ele>
        <time>2016-08-30T16:00:31Z</time>
      </trkpt>
      <trkpt lat="42.8545259" lon="-5.222089">
        <ele>1915.9</ele>
        <time>2016-08-30T16:00:33Z</time>
      </trkpt>
      <trkpt lat="42.8544036" lon="-5.2219835">
        <ele>1916.4</ele>
        <time>2016-08-30T16:00:36Z</time>
      </trkpt>
      <trkpt lat="42.854307" lon="-5.2220312">
        <ele>1918.1</ele>
        <time>2016-08-30T16:00:38Z</time>
      </trkpt>
      <trkpt lat="42.8542442" lon="-5.2221892">
        <ele>1920.7</ele>
        <time>2016-08-30T16:00:40Z</time>
      </trkpt>
      <trkpt lat="42.8542962" lon="-5.2224331">
        <ele>1922.8</ele>
        <time>2016-08-30T16:00:42Z</time>
      </trkpt>
      <trkpt lat="42.85446" lon="-5.2226618">
        <ele>1925.7</ele>
        <time>2016-08-30T16:00:44Z</time>
      </trkpt>
      <trkpt lat="42.8546835" lon="-5.2227521">
        <ele>1933.5</ele>
        <time>2016-08-30T16:00:46Z</time>
      </trkpt>
      <trkpt lat="42.8549432" lon="-5.2227365">
        <ele>1939.5</ele>
        <time>2016-08-30T16:00:48Z</time>
      </trkpt>
      <trkpt lat="42.8551519" lon="-5.2225922">
        <ele>1944.0</ele>
        <time>2016-08-30T16:00:50Z</time>
      </trkpt>
      <trkpt lat="42.8552814" lon="-5.2223507">
        <ele>1945.5</ele>
        <time>2016-08-30T16:00:52Z</time>
      </trkpt>
      <trkpt lat="42.8553828" lon="-5.2221165">
        <ele>1946.1</ele>
        <time>2016-08-30T16:00:54Z</time>
      </trkpt>
      <trkpt lat="42.8554173" lon="-5.2218708">
        <ele>1946.6</ele>
        <time>2016-08-30T16:00:56Z</time>
      </trkpt>
      <trkpt lat="42.8554353" lon="-5.2216429">
        <ele>1946.8</ele>
        <time>2016-08-30T16:00:58Z</time>
      </trkpt>
      <trkpt lat="42.8554594" lon="-5.2214248">
        <ele>1947.0</ele>
        <time>2016-08-30T16:01:00Z</time>
      </trkpt>
      <trkpt lat="42.8555242" lon="-5.2212033">
        <ele>1947.2</ele>
        <time>2016-08-30T16:01:02Z</time>
      </trkpt>
      <trkpt lat="42.8555404" lon="-5.2209845">
        <ele>1949.9</ele>
        <time>2016-08-30T16:01:04Z</time>
      </trkpt>
      <trkpt lat="42.8554318" lon="-5.2208352">
        <ele>1955.6</ele>
        <time>2016-08-30T16:01:06Z</time>
      </trkpt>
      <trkpt lat="42.8552774" lon="-5.2208536">
        <ele>1958.2</ele>
        <time>2016-08-30T16:01:08Z</time>
      </trkpt>
      <trkpt lat="42.8552084" lon="-5.2209789">
        <ele>1959.7</ele>
        <time>2016-08-30T16:01:10Z</time>
      </trkpt>
      <trkpt lat="42.8551889" lon="-5.2211988">
        <ele>1960.5</ele>
        <time>2016-08-30T16:01:12Z</time>
      </trkpt>
      <trkpt lat="42.8553111" lon="-5.2214619">
        <ele>1961.5</ele>
        <time>2016-08-30T16:01:14Z</time>
      </trkpt>
      <trkpt lat="42.8555294" lon="-5.2215871">
        <ele>1961.8</ele>
        <time>2016-08-30T16:01:16Z</time>
      </trkpt>
      <trkpt lat="42.855638" lon="-5.2215743">
        <ele>1962.9</ele>
        <time>2016-08-30T16:01:17Z</time>
      </trkpt>
      <trkpt lat="42.8557422" lon="-5.2215197">
        <ele>1962.9</ele>
        <time>2016-08-30T16:01:18Z</time>
      </trkpt>
      <trkpt lat="42.8558412" lon="-5.2214467">
        <ele>1962.9</ele>
        <time>2016-08-30T16:01:19Z</time>
      </trkpt>
      <trkpt lat="42.8559146" lon="-5.2213487">
        <ele>1962.9</ele>
        <time>2016-08-30T16:01:20Z</time>
      </trkpt>
      <trkpt lat="42.8559731" lon="-5.2212426">
        <ele>1962.9</ele>
        <time>2016-08-30T16:01:21Z</time>
      </trkpt>
      <trkpt lat="42.8560397" lon="-5.2210138">
        <ele>1963.6</ele>
        <time>2016-08-30T16:01:23Z</time>
      </trkpt>
      <trkpt lat="42.8560067" lon="-5.2208219">
        <ele>1964.5</ele>
        <time>2016-08-30T16:01:25Z</time>
      </trkpt>
      <trkpt lat="42.8558929" lon="-5.2206771">
        <ele>1967.2</ele>
        <time>2016-08-30T16:01:27Z</time>
      </trkpt>
      <trkpt lat="42.8557642" lon="-5.2207233">
        <ele>1973.4</ele>
        <time>2016-08-30T16:01:29Z</time>
      </trkpt>
      <trkpt lat="42.8557068" lon="-5.2209204">
        <ele>1980.3</ele>
        <time>2016-08-30T16:01:31Z</time>
      </trkpt>
      <trkpt lat="42.8557743" lon="-5.2211456">
        <ele>1986.7</ele>
        <time>2016-08-30T16:01:33Z</time>
      </trkpt>
      <trkpt lat="42.8559572" lon="-5.2213155">
        <ele>1992.0</ele>
        <time>2016-08-30T16:01:35Z</time>
      </trkpt>
      <trkpt lat="42.8562815" lon="-5.2212877">
        <ele>1997.5</ele>
        <time>2016-08-30T16:01:38Z</time>
      </trkpt>
      <trkpt lat="42.8564096" lon="-5.2211214">
        <ele>2001.0</ele>
        <time>2016-08-30T16:01:40Z</time>
      </trkpt>
      <trkpt lat="42.8564696" lon="-5.2209329">
        <ele>2003.9</ele>
        <time>2016-08-30T16:01:42Z</time>
      </trkpt>
      <trkpt lat="42.8564696" lon="-5.2207041">
        <ele>2006.3</ele>
        <time>2016-08-30T16:01:44Z</time>
      </trkpt>
      <trkpt lat="42.8563775" lon="-5.2205266">
        <ele>2010.5</ele>
        <time>2016-08-30T16:01:46Z</time>
      </trkpt>
      <trkpt lat="42.8562472" lon="-5.2205155">
        <ele>2015.6</ele>
        <time>2016-08-30T16:01:48Z</time>
      </trkpt>
      <trkpt lat="42.8561255" lon="-5.2206992">
        <ele>2023.2</ele>
        <time>2016-08-30T16:01:51Z</time>
      </trkpt>
      <trkpt lat="42.856053" lon="-5.2208925">
        <ele>2028.7</ele>
        <time>2016-08-30T16:01:53Z</time>
      </trkpt>
      <trkpt lat="42.8560691" lon="-5.2211149">
        <ele>2035.0</ele>
        <time>2016-08-30T16:01:55Z</time>
      </trkpt>
      <trkpt lat="42.8560786" lon="-5.2213175">
        <ele>2036.7</ele>
        <time>2016-08-30T16:01:57Z</time>
      </trkpt>
      <trkpt lat="42.8559221" lon="-5.2214037">
        <ele>2043.9</ele>
        <time>2016-08-30T16:02:00Z</time>
      </trkpt>
      <trkpt lat="42.8558865" lon="-5.2212208">
        <ele>2046.7</ele>
        <time>2016-08-30T16:02:02Z</time>
      </trkpt>
      <trkpt lat="42.8559994" lon="-5.2209994">
        <ele>2048.8</ele>
        <time>2016-08-30T16:02:04Z</time>
      </trkpt>
      <trkpt lat="42.8562182" lon="-5.2208532">
        <ele>2051.1</ele>
        <time>2016-08-30T16:02:06Z</time>
      </trkpt>
      <trkpt lat="42.8563598" lon="-5.220709">
        <ele>2054.3</ele>
        <time>2016-08-30T16:02:08Z</time>
      </trkpt>
      <trkpt lat="42.8564331" lon="-5.2205192">
        <ele>2060.2</ele>
        <time>2016-08-30T16:02:10Z</time>
      </trkpt>
      <trkpt lat="42.8565361" lon="-5.2202594">
        <ele>2065.6</ele>
        <time>2016-08-30T16:02:12Z</time>
      </trkpt>
      <trkpt lat="42.8565609" lon="-5.2199965">
        <ele>2070.7</ele>
        <time>2016-08-30T16:02:14Z</time>
      </trkpt>
      <trkpt lat="42.8565519" lon="-5.2197869">
        <ele>2074.9</ele>
        <time>2016-08-30T16:02:16Z</time>
      </trkpt>
      <trkpt lat="42.8565609" lon="-5.2195326">
        <ele>2078.4</ele>
        <time>2016-08-30T16:02:18Z</time>
      </trkpt>
      <trkpt lat="42.8565587" lon="-5.2192437">
        <ele>2082.1</ele>
        <time>2016-08-30T16:02:20Z</time>
      </trkpt>
      <trkpt lat="42.8565459" lon="-5.2189392">
        <ele>2084.4</ele>
        <time>2016-08-30T16:02:22Z</time>
      </trkpt>
      <trkpt lat="42.8565673" lon="-5.2186655">
        <ele>2085.4</ele>
        <time>2016-08-30T16:02:24Z</time>
      </trkpt>
      <trkpt lat="42.8565473" lon="-5.2183985">
        <ele>2086.0</ele>
        <time>2016-08-30T16:02:26Z</time>
      </trkpt>
      <trkpt lat="42.8565061" lon="-5.2181513">
        <ele>2086.6</ele>
        <time>2016-08-30T16:02:28Z</time>
      </trkpt>
      <trkpt lat="42.8564647" lon="-5.2178682">
        <ele>2087.0</ele>
        <time>2016-08-30T16:02:30Z</time>
      </trkpt>
      <trkpt lat="42.8564273" lon="-5.2176085">
        <ele>2088.9</ele>
        <time>2016-08-30T16:02:32Z</time>
      </trkpt>
      <trkpt lat="42.8563866" lon="-5.2173542">
        <ele>2090.3</ele>
        <time>2016-08-30T16:02:34Z</time>
      </trkpt>
      <trkpt lat="42.8563501" lon="-5.2170897">
        <ele>2091.1</ele>
        <time>2016-08-30T16:02:36Z</time>
      </trkpt>
      <trkpt lat="42.8563503" lon="-5.2168332">
        <ele>2091.2</ele>
        <time>2016-08-30T16:02:38Z</time>
      </trkpt>
      <trkpt lat="42.8563447" lon="-5.2165549">
        <ele>2091.3</ele>
        <time>2016-08-30T16:02:40Z</time>
      </trkpt>
      <trkpt lat="42.8563255" lon="-5.2163001">
        <ele>2091.3</ele>
        <time>2016-08-30T16:02:42Z</time>
      </trkpt>
      <trkpt lat="42.8563325" lon="-5.2160344">
        <ele>2091.3</ele>
        <time>2016-08-30T16:02:44Z</time>
      </trkpt>
      <trkpt lat="42.8563037" lon="-5.2157289">
        <ele>2091.3</ele>
        <time>2016-08-30T16:02:46Z</time>
      </trkpt>
      <trkpt lat="42.856255" lon="-5.2154704">
        <ele>2091.3</ele>
        <time>2016-08-30T16:02:48Z</time>
      </trkpt>
      <trkpt lat="42.8562141" lon="-5.215206">
        <ele>2091.3</ele>
        <time>2016-08-30T16:02:50Z</time>
      </trkpt>
      <trkpt lat="42.8561785" lon="-5.2149305">
        <ele>2091.3</ele>
        <time>2016-08-30T16:02:52Z</time>
      </trkpt>
      <trkpt lat="42.856104" lon="-5.214673">
        <ele>2091.3</ele>
        <time>2016-08-30T16:02:54Z</time>
      </trkpt>
      <trkpt lat="42.8560369" lon="-5.2144483">
        <ele>2091.3</ele>
        <time>2016-08-30T16:02:56Z</time>
      </trkpt>
      <trkpt lat="42.8559761" lon="-5.2142007">
        <ele>2091.2</ele>
        <time>2016-08-30T16:02:58Z</time>
      </trkpt>
      <trkpt lat="42.8559041" lon="-5.2139356">
        <ele>2091.0</ele>
        <time>2016-08-30T16:03:00Z</time>
      </trkpt>
      <trkpt lat="42.8558257" lon="-5.2136806">
        <ele>2090.7</ele>
        <time>2016-08-30T16:03:02Z</time>
      </trkpt>
      <trkpt lat="42.8557424" lon="-5.2134306">
        <ele>2089.5</ele>
        <time>2016-08-30T16:03:04Z</time>
      </trkpt>
      <trkpt lat="42.8556738" lon="-5.2131906">
        <ele>2089.2</ele>
        <time>2016-08-30T16:03:06Z</time>
      </trkpt>
      <trkpt lat="42.8556269" lon="-5.2129312">
        <ele>2089.1</ele>
        <time>2016-08-30T16:03:08Z</time>
      </trkpt>
      <trkpt lat="42.8555625" lon="-5.2126654">
        <ele>2086.6</ele>
        <time>2016-08-30T16:03:10Z</time>
      </trkpt>
      <trkpt lat="42.8555127" lon="-5.2124158">
        <ele>2082.6</ele>
        <time>2016-08-30T16:03:12Z</time>
      </trkpt>
      <trkpt lat="42.8554578" lon="-5.2121536">
        <ele>2079.4</ele>
        <time>2016-08-30T16:03:14Z</time>
      </trkpt>
      <trkpt lat="42.8554141" lon="-5.2118727">
        <ele>2073.8</ele>
        <time>2016-08-30T16:03:16Z</time>
      </trkpt>
      <trkpt lat="42.8553613" lon="-5.211584">
        <ele>2067.7</ele>
        <time>2016-08-30T16:03:18Z</time>
      </trkpt>
      <trkpt lat="42.8553073" lon="-5.2112881">
        <ele>2062.6</ele>
        <time>2016-08-30T16:03:20Z</time>
      </trkpt>
      <trkpt lat="42.8552422" lon="-5.2110212">
        <ele>2055.9</ele>
        <time>2016-08-30T16:03:22Z</time>
      </trkpt>
      <trkpt lat="42.8551835" lon="-5.2107323">
        <ele>2051.2</ele>
        <time>2016-08-30T16:03:24Z</time>
      </trkpt>
      <trkpt lat="42.8551375" lon="-5.2104405">
        <ele>2045.4</ele>
        <time>2016-08-30T16:03:26Z</time>
      </trkpt>
      <trkpt lat="42.855094" lon="-5.2101647">
        <ele>2039.0</ele>
        <time>2016-08-30T16:03:28Z</time>
      </trkpt>
      <trkpt lat="42.8550509" lon="-5.2098548">
        <ele>2031.5</ele>
        <time>2016-08-30T16:03:30Z</time>
      </trkpt>
      <trkpt lat="42.8549908" lon="-5.2095582">
        <ele>2023.3</ele>
        <time>2016-08-30T16:03:32Z</time>
      </trkpt>
      <trkpt lat="42.8549398" lon="-5.2092583">
        <ele>2016.2</ele>
        <time>2016-08-30T16:03:34Z</time>
      </trkpt>
      <trkpt lat="42.8549137" lon="-5.2089874">
        <ele>2011.2</ele>
        <time>2016-08-30T16:03:36Z</time>
      </trkpt>
      <trkpt lat="42.8548543" lon="-5.2087147">
        <ele>2003.7</ele>
        <time>2016-08-30T16:03:38Z</time>
      </trkpt>
      <trkpt lat="42.8547816" lon="-5.2084782">
        <ele>1997.5</ele>
        <time>2016-08-30T16:03:40Z</time>
      </trkpt>
      <trkpt lat="42.8547398" lon="-5.2082545">
        <ele>1992.7</ele>
        <time>2016-08-30T16:03:42Z</time>
      </trkpt>
      <trkpt lat="42.8546702" lon="-5.2080047">
        <ele>1989.0</ele>
        <time>2016-08-30T16:03:44Z</time>
      </trkpt>
      <trkpt lat="42.8546099" lon="-5.2077616">
        <ele>1984.4</ele>
        <time>2016-08-30T16:03:46Z</time>
      </trkpt>
      <trkpt lat="42.854557" lon="-5.2075289">
        <ele>1979.8</ele>
        <time>2016-08-30T16:03:48Z</time>
      </trkpt>
      <trkpt lat="42.854519" lon="-5.2072473">
        <ele>1975.4</ele>
        <time>2016-08-30T16:03:50Z</time>
      </trkpt>
      <trkpt lat="42.8544753" lon="-5.2069579">
        <ele>1972.6</ele>
        <time>2016-08-30T16:03:52Z</time>
      </trkpt>
      <trkpt lat="42.8544462" lon="-5.2067091">
        <ele>1969.7</ele>
        <time>2016-08-30T16:03:54Z</time>
      </trkpt>
      <trkpt lat="42.8544055" lon="-5.2064108">
        <ele>1966.1</ele>
        <time>2016-08-30T16:03:56Z</time>
      </trkpt>
      <trkpt lat="42.8543959" lon="-5.20612">
        <ele>1963.4</ele>
        <time>2016-08-30T16:03:58Z</time>
      </trkpt>
      <trkpt lat="42.854362" lon="-5.2058692">
        <ele>1960.7</ele>
        <time>2016-08-30T16:04:00Z</time>
      </trkpt>
      <trkpt lat="42.8542945" lon="-5.2056106">
        <ele>1956.4</ele>
        <time>2016-08-30T16:04:02Z</time>
      </trkpt>
      <trkpt lat="42.8542088" lon="-5.2053767">
        <ele>1951.9</ele>
        <time>2016-08-30T16:04:04Z</time>
      </trkpt>
      <trkpt lat="42.8541215" lon="-5.2051687">
        <ele>1948.4</ele>
        <time>2016-08-30T16:04:06Z</time>
      </trkpt>
      <trkpt lat="42.8540389" lon="-5.2049963">
        <ele>1944.1</ele>
        <time>2016-08-30T16:04:08Z</time>
      </trkpt>
      <trkpt lat="42.8539334" lon="-5.2048141">
        <ele>1939.0</ele>
        <time>2016-08-30T16:04:10Z</time>
      </trkpt>
      <trkpt lat="42.8538725" lon="-5.2046229">
        <ele>1935.1</ele>
        <time>2016-08-30T16:04:12Z</time>
      </trkpt>
      <trkpt lat="42.8538048" lon="-5.2044521">
        <ele>1930.9</ele>
        <time>2016-08-30T16:04:14Z</time>
      </trkpt>
      <trkpt lat="42.8537007" lon="-5.2042606">
        <ele>1926.0</ele>
        <time>2016-08-30T16:04:16Z</time>
      </trkpt>
      <trkpt lat="42.8536033" lon="-5.2040527">
        <ele>1921.6</ele>
        <time>2016-08-30T16:04:18Z</time>
      </trkpt>
      <trkpt lat="42.8535251" lon="-5.2038591">
        <ele>1916.7</ele>
        <time>2016-08-30T16:04:20Z</time>
      </trkpt>
      <trkpt lat="42.8534536" lon="-5.2036747">
        <ele>1911.9</ele>
        <time>2016-08-30T16:04:22Z</time>
      </trkpt>
      <trkpt lat="42.8533831" lon="-5.2034831">
        <ele>1906.5</ele>
        <time>2016-08-30T16:04:25Z</time>
      </trkpt>
      <trkpt lat="42.8533539" lon="-5.2032168">
        <ele>1903.7</ele>
        <time>2016-08-30T16:04:27Z</time>
      </trkpt>
      <trkpt lat="42.8533289" lon="-5.2029189">
        <ele>1897.7</ele>
        <time>2016-08-30T16:04:29Z</time>
      </trkpt>
      <trkpt lat="42.8533263" lon="-5.2026381">
        <ele>1892.9</ele>
        <time>2016-08-30T16:04:31Z</time>
      </trkpt>
      <trkpt lat="42.8533474" lon="-5.2023599">
        <ele>1885.9</ele>
        <time>2016-08-30T16:04:33Z</time>
      </trkpt>
      <trkpt lat="42.8533741" lon="-5.2020788">
        <ele>1877.8</ele>
        <time>2016-08-30T16:04:35Z</time>
      </trkpt>
      <trkpt lat="42.8534383" lon="-5.2017706">
        <ele>1872.2</ele>
        <time>2016-08-30T16:04:37Z</time>
      </trkpt>
      <trkpt lat="42.8534353" lon="-5.2015391">
        <ele>1868.1</ele>
        <time>2016-08-30T16:04:39Z</time>
      </trkpt>
      <trkpt lat="42.8533634" lon="-5.2013698">
        <ele>1864.8</ele>
        <time>2016-08-30T16:04:41Z</time>
      </trkpt>
      <trkpt lat="42.8532187" lon="-5.2013264">
        <ele>1863.1</ele>
        <time>2016-08-30T16:04:44Z</time>
      </trkpt>
      <trkpt lat="42.8532225" lon="-5.2015483">
        <ele>1862.3</ele>
        <time>2016-08-30T16:04:47Z</time>
      </trkpt>
      <trkpt lat="42.8530721" lon="-5.2015768">
        <ele>1860.6</ele>
        <time>2016-08-30T16:04:51Z</time>
      </trkpt>
      <trkpt lat="42.8529378" lon="-5.2014233">
        <ele>1858.3</ele>
        <time>2016-08-30T16:04:54Z</time>
      </trkpt>
      <trkpt lat="42.8528379" lon="-5.2012895">
        <ele>1857.9</ele>
        <time>2016-08-30T16:04:56Z</time>
      </trkpt>
      <trkpt lat="42.8527093" lon="-5.2012019">
        <ele>1857.4</ele>
        <time>2016-08-30T16:04:58Z</time>
      </trkpt>
      <trkpt lat="42.8525683" lon="-5.2010263">
        <ele>1856.6</ele>
        <time>2016-08-30T16:05:01Z</time>
      </trkpt>
      <trkpt lat="42.8524939" lon="-5.2008014">
        <ele>1856.1</ele>
        <time>2016-08-30T16:05:03Z</time>
      </trkpt>
      <trkpt lat="42.8524388" lon="-5.200569">
        <ele>1855.6</ele>
        <time>2016-08-30T16:05:05Z</time>
      </trkpt>
      <trkpt lat="42.8523554" lon="-5.2003876">
        <ele>1855.3</ele>
        <time>2016-08-30T16:05:07Z</time>
      </trkpt>
      <trkpt lat="42.852227" lon="-5.200261">
        <ele>1854.9</ele>
        <time>2016-08-30T16:05:09Z</time>
      </trkpt>
      <trkpt lat="42.8520946" lon="-5.2001608">
        <ele>1854.3</ele>
        <time>2016-08-30T16:05:11Z</time>
      </trkpt>
      <trkpt lat="42.8520017" lon="-5.2000879">
        <ele>1853.8</ele>
        <time>2016-08-30T16:05:13Z</time>
      </trkpt>
      <trkpt lat="42.8519057" lon="-5.2001015">
        <ele>1853.6</ele>
        <time>2016-08-30T16:05:15Z</time>
      </trkpt>
      <trkpt lat="42.8518384" lon="-5.2002486">
        <ele>1853.4</ele>
        <time>2016-08-30T16:05:17Z</time>
      </trkpt>
      <trkpt lat="42.8516832" lon="-5.2003046">
        <ele>1853.3</ele>
        <time>2016-08-30T16:05:20Z</time>
      </trkpt>
      <trkpt lat="42.851594" lon="-5.200163">
        <ele>1853.3</ele>
        <time>2016-08-30T16:05:22Z</time>
      </trkpt>
      <trkpt lat="42.8516117" lon="-5.1999702">
        <ele>1853.3</ele>
        <time>2016-08-30T16:05:24Z</time>
      </trkpt>
      <trkpt lat="42.8517322" lon="-5.1997291">
        <ele>1853.0</ele>
        <time>2016-08-30T16:05:26Z</time>
      </trkpt>
      <trkpt lat="42.8518621" lon="-5.1995257">
        <ele>1850.6</ele>
        <time>2016-08-30T16:05:28Z</time>
      </trkpt>
      <trkpt lat="42.852012" lon="-5.1993793">
        <ele>1849.4</ele>
        <time>2016-08-30T16:05:30Z</time>
      </trkpt>
      <trkpt lat="42.8521613" lon="-5.1991949">
        <ele>1848.6</ele>
        <time>2016-08-30T16:05:32Z</time>
      </trkpt>
      <trkpt lat="42.8522221" lon="-5.1989287">
        <ele>1846.3</ele>
        <time>2016-08-30T16:05:34Z</time>
      </trkpt>
      <trkpt lat="42.852192" lon="-5.1987202">
        <ele>1844.7</ele>
        <time>2016-08-30T16:05:36Z</time>
      </trkpt>
      <trkpt lat="42.8520859" lon="-5.1985993">
        <ele>1844.1</ele>
        <time>2016-08-30T16:05:38Z</time>
      </trkpt>
      <trkpt lat="42.8519682" lon="-5.1986354">
        <ele>1843.4</ele>
        <time>2016-08-30T16:05:41Z</time>
      </trkpt>
      <trkpt lat="42.8519374" lon="-5.1989225">
        <ele>1842.2</ele>
        <time>2016-08-30T16:05:44Z</time>
      </trkpt>
      <trkpt lat="42.8521082" lon="-5.1991235">
        <ele>1841.3</ele>
        <time>2016-08-30T16:05:46Z</time>
      </trkpt>
      <trkpt lat="42.8523469" lon="-5.1991879">
        <ele>1840.4</ele>
        <time>2016-08-30T16:05:48Z</time>
      </trkpt>
      <trkpt lat="42.8524592" lon="-5.1991763">
        <ele>1838.1</ele>
        <time>2016-08-30T16:05:49Z</time>
      </trkpt>
      <trkpt lat="42.8525551" lon="-5.1991423">
        <ele>1838.1</ele>
        <time>2016-08-30T16:05:50Z</time>
      </trkpt>
      <trkpt lat="42.8526429" lon="-5.1990665">
        <ele>1838.1</ele>
        <time>2016-08-30T16:05:51Z</time>
      </trkpt>
      <trkpt lat="42.8527374" lon="-5.198969">
        <ele>1838.1</ele>
        <time>2016-08-30T16:05:52Z</time>
      </trkpt>
      <trkpt lat="42.8528232" lon="-5.1988852">
        <ele>1838.1</ele>
        <time>2016-08-30T16:05:53Z</time>
      </trkpt>
      <trkpt lat="42.8529295" lon="-5.1986367">
        <ele>1837.7</ele>
        <time>2016-08-30T16:05:55Z</time>
      </trkpt>
      <trkpt lat="42.8529766" lon="-5.1983832">
        <ele>1837.3</ele>
        <time>2016-08-30T16:05:57Z</time>
      </trkpt>
      <trkpt lat="42.853012" lon="-5.1981574">
        <ele>1836.8</ele>
        <time>2016-08-30T16:05:59Z</time>
      </trkpt>
      <trkpt lat="42.8530588" lon="-5.197899">
        <ele>1836.6</ele>
        <time>2016-08-30T16:06:01Z</time>
      </trkpt>
      <trkpt lat="42.8530972" lon="-5.1976505">
        <ele>1836.3</ele>
        <time>2016-08-30T16:06:03Z</time>
      </trkpt>
      <trkpt lat="42.8531431" lon="-5.1973922">
        <ele>1836.1</ele>
        <time>2016-08-30T16:06:05Z</time>
      </trkpt>
      <trkpt lat="42.8531842" lon="-5.1971673">
        <ele>1835.8</ele>
        <time>2016-08-30T16:06:07Z</time>
      </trkpt>
      <trkpt lat="42.8531565" lon="-5.1969315">
        <ele>1835.6</ele>
        <time>2016-08-30T16:06:09Z</time>
      </trkpt>
      <trkpt lat="42.8530494" lon="-5.1967645">
        <ele>1835.4</ele>
        <time>2016-08-30T16:06:11Z</time>
      </trkpt>
      <trkpt lat="42.8529153" lon="-5.1967208">
        <ele>1834.9</ele>
        <time>2016-08-30T16:06:14Z</time>
      </trkpt>
      <trkpt lat="42.8528396" lon="-5.1968749">
        <ele>1834.8</ele>
        <time>2016-08-30T16:06:17Z</time>
      </trkpt>
      <trkpt lat="42.8529046" lon="-5.1971147">
        <ele>1834.8</ele>
        <time>2016-08-30T16:06:19Z</time>
      </trkpt>
      <trkpt lat="42.8530681" lon="-5.1972608">
        <ele>1834.8</ele>
        <time>2016-08-30T16:06:21Z</time>
      </trkpt>
      <trkpt lat="42.8533893" lon="-5.1972137">
        <ele>1834.8</ele>
        <time>2016-08-30T16:06:24Z</time>
      </trkpt>
      <trkpt lat="42.8535631" lon="-5.196979">
        <ele>1834.9</ele>
        <time>2016-08-30T16:06:26Z</time>
      </trkpt>
      <trkpt lat="42.8536304" lon="-5.1967023">
        <ele>1835.1</ele>
        <time>2016-08-30T16:06:28Z</time>
      </trkpt>
      <trkpt lat="42.853597" lon="-5.1964431">
        <ele>1834.9</ele>
        <time>2016-08-30T16:06:30Z</time>
      </trkpt>
      <trkpt lat="42.853471" lon="-5.1962649">
        <ele>1834.5</ele>
        <time>2016-08-30T16:06:33Z</time>
      </trkpt>
      <trkpt lat="42.8533149" lon="-5.196212">
        <ele>1834.4</ele>
        <time>2016-08-30T16:06:35Z</time>
      </trkpt>
      <trkpt lat="42.8532472" lon="-5.1960153">
        <ele>1834.4</ele>
        <time>2016-08-30T16:06:38Z</time>
      </trkpt>
      <trkpt lat="42.8532099" lon="-5.1957959">
        <ele>1834.4</ele>
        <time>2016-08-30T16:06:41Z</time>
      </trkpt>
      <trkpt lat="42.8530664" lon="-5.1957038">
        <ele>1834.4</ele>
        <time>2016-08-30T16:06:44Z</time>
      </trkpt>
      <trkpt lat="42.8529346" lon="-5.1957798">
        <ele>1834.4</ele>
        <time>2016-08-30T16:06:46Z</time>
      </trkpt>
      <trkpt lat="42.8528879" lon="-5.1959643">
        <ele>1834.6</ele>
        <time>2016-08-30T16:06:48Z</time>
      </trkpt>
      <trkpt lat="42.8529279" lon="-5.1961667">
        <ele>1834.6</ele>
        <time>2016-08-30T16:06:50Z</time>
      </trkpt>
      <trkpt lat="42.8530465" lon="-5.1963796">
        <ele>1834.9</ele>
        <time>2016-08-30T16:06:52Z</time>
      </trkpt>
      <trkpt lat="42.8532641" lon="-5.1965118">
        <ele>1835.9</ele>
        <time>2016-08-30T16:06:54Z</time>
      </trkpt>
      <trkpt lat="42.8534991" lon="-5.1965397">
        <ele>1838.3</ele>
        <time>2016-08-30T16:06:56Z</time>
      </trkpt>
      <trkpt lat="42.8537253" lon="-5.1965207">
        <ele>1838.3</ele>
        <time>2016-08-30T16:06:58Z</time>
      </trkpt>
      <trkpt lat="42.853929" lon="-5.1963911">
        <ele>1839.2</ele>
        <time>2016-08-30T16:07:00Z</time>
      </trkpt>
      <trkpt lat="42.8540497" lon="-5.1961412">
        <ele>1839.2</ele>
        <time>2016-08-30T16:07:02Z</time>
      </trkpt>
      <trkpt lat="42.8540911" lon="-5.1958702">
        <ele>1839.7</ele>
        <time>2016-08-30T16:07:04Z</time>
      </trkpt>
      <trkpt lat="42.8540509" lon="-5.1956451">
        <ele>1840.5</ele>
        <time>2016-08-30T16:07:06Z</time>
      </trkpt>
      <trkpt lat="42.8540438" lon="-5.1954269">
        <ele>1843.9</ele>
        <time>2016-08-30T16:07:08Z</time>
      </trkpt>
      <trkpt lat="42.8540758" lon="-5.1952182">
        <ele>1847.4</ele>
        <time>2016-08-30T16:07:10Z</time>
      </trkpt>
      <trkpt lat="42.8541441" lon="-5.1949924">
        <ele>1850.0</ele>
        <time>2016-08-30T16:07:12Z</time>
      </trkpt>
      <trkpt lat="42.8542239" lon="-5.1947629">
        <ele>1852.6</ele>
        <time>2016-08-30T16:07:14Z</time>
      </trkpt>
      <trkpt lat="42.8542724" lon="-5.1945456">
        <ele>1855.5</ele>
        <time>2016-08-30T16:07:16Z</time>
      </trkpt>
      <trkpt lat="42.8542301" lon="-5.1943521">
        <ele>1856.8</ele>
        <time>2016-08-30T16:07:18Z</time>
      </trkpt>
      <trkpt lat="42.8541097" lon="-5.1942609">
        <ele>1858.0</ele>
        <time>2016-08-30T16:07:20Z</time>
      </trkpt>
      <trkpt lat="42.853974" lon="-5.1943217">
        <ele>1858.6</ele>
        <time>2016-08-30T16:07:22Z</time>
      </trkpt>
      <trkpt lat="42.8539784" lon="-5.1945514">
        <ele>1858.9</ele>
        <time>2016-08-30T16:07:24Z</time>
      </trkpt>
      <trkpt lat="42.8540836" lon="-5.194787">
        <ele>1859.2</ele>
        <time>2016-08-30T16:07:26Z</time>
      </trkpt>
      <trkpt lat="42.8542895" lon="-5.1948918">
        <ele>1859.5</ele>
        <time>2016-08-30T16:07:28Z</time>
      </trkpt>
      <trkpt lat="42.8544112" lon="-5.194887">
        <ele>1860.6</ele>
        <time>2016-08-30T16:07:29Z</time>
      </trkpt>
      <trkpt lat="42.8545286" lon="-5.1948194">
        <ele>1860.6</ele>
        <time>2016-08-30T16:07:30Z</time>
      </trkpt>
      <trkpt lat="42.8546047" lon="-5.1947095">
        <ele>1860.6</ele>
        <time>2016-08-30T16:07:31Z</time>
      </trkpt>
      <trkpt lat="42.8546502" lon="-5.1945676">
        <ele>1860.6</ele>
        <time>2016-08-30T16:07:32Z</time>
      </trkpt>
      <trkpt lat="42.8546384" lon="-5.1944497">
        <ele>1860.6</ele>
        <time>2016-08-30T16:07:33Z</time>
      </trkpt>
      <trkpt lat="42.854607" lon="-5.1942511">
        <ele>1860.8</ele>
        <time>2016-08-30T16:07:35Z</time>
      </trkpt>
      <trkpt lat="42.854634" lon="-5.1940613">
        <ele>1861.2</ele>
        <time>2016-08-30T16:07:37Z</time>
      </trkpt>
      <trkpt lat="42.8546764" lon="-5.1938471">
        <ele>1863.9</ele>
        <time>2016-08-30T16:07:39Z</time>
      </trkpt>
      <trkpt lat="42.8546579" lon="-5.1936486">
        <ele>1867.1</ele>
        <time>2016-08-30T16:07:41Z</time>
      </trkpt>
      <trkpt lat="42.8544847" lon="-5.1936359">
        <ele>1872.8</ele>
        <time>2016-08-30T16:07:44Z</time>
      </trkpt>
      <trkpt lat="42.8544302" lon="-5.1937758">
        <ele>1879.5</ele>
        <time>2016-08-30T16:07:46Z</time>
      </trkpt>
      <trkpt lat="42.8544738" lon="-5.1939781">
        <ele>1881.6</ele>
        <time>2016-08-30T16:07:48Z</time>
      </trkpt>
      <trkpt lat="42.8546338" lon="-5.1941593">
        <ele>1883.8</ele>
        <time>2016-08-30T16:07:50Z</time>
      </trkpt>
      <trkpt lat="42.8548782" lon="-5.1941988">
        <ele>1884.7</ele>
        <time>2016-08-30T16:07:52Z</time>
      </trkpt>
      <trkpt lat="42.8550938" lon="-5.1940614">
        <ele>1885.7</ele>
        <time>2016-08-30T16:07:54Z</time>
      </trkpt>
      <trkpt lat="42.855164" lon="-5.1938523">
        <ele>1887.2</ele>
        <time>2016-08-30T16:07:56Z</time>
      </trkpt>
      <trkpt lat="42.8551245" lon="-5.1936503">
        <ele>1889.9</ele>
        <time>2016-08-30T16:07:58Z</time>
      </trkpt>
      <trkpt lat="42.8549408" lon="-5.1935591">
        <ele>1892.1</ele>
        <time>2016-08-30T16:08:01Z</time>
      </trkpt>
      <trkpt lat="42.8547904" lon="-5.1934224">
        <ele>1893.5</ele>
        <time>2016-08-30T16:08:04Z</time>
      </trkpt>
      <trkpt lat="42.8547351" lon="-5.19318">
        <ele>1898.3</ele>
        <time>2016-08-30T16:08:07Z</time>
      </trkpt>
      <trkpt lat="42.8547238" lon="-5.1929506">
        <ele>1900.1</ele>
        <time>2016-08-30T16:08:09Z</time>
      </trkpt>
      <trkpt lat="42.8547394" lon="-5.1926896">
        <ele>1901.4</ele>
        <time>2016-08-30T16:08:11Z</time>
      </trkpt>
      <trkpt lat="42.8546959" lon="-5.1924763">
        <ele>1902.1</ele>
        <time>2016-08-30T16:08:13Z</time>
      </trkpt>
      <trkpt lat="42.8545761" lon="-5.192364">
        <ele>1903.0</ele>
        <time>2016-08-30T16:08:15Z</time>
      </trkpt>
      <trkpt lat="42.8544568" lon="-5.1923599">
        <ele>1905.2</ele>
        <time>2016-08-30T16:08:17Z</time>
      </trkpt>
      <trkpt lat="42.8543485" lon="-5.1923735">
        <ele>1907.0</ele>
        <time>2016-08-30T16:08:20Z</time>
      </trkpt>
      <trkpt lat="42.8542532" lon="-5.1924249">
        <ele>1909.1</ele>
        <time>2016-08-30T16:08:22Z</time>
      </trkpt>
      <trkpt lat="42.8541119" lon="-5.192495">
        <ele>1911.8</ele>
        <time>2016-08-30T16:08:25Z</time>
      </trkpt>
      <trkpt lat="42.8540219" lon="-5.1925585">
        <ele>1913.3</ele>
        <time>2016-08-30T16:08:27Z</time>
      </trkpt>
      <trkpt lat="42.8539773" lon="-5.1927846">
        <ele>1914.9</ele>
        <time>2016-08-30T16:08:30Z</time>
      </trkpt>
      <trkpt lat="42.8539012" lon="-5.1929565">
        <ele>1916.7</ele>
        <time>2016-08-30T16:08:33Z</time>
      </trkpt>
      <trkpt lat="42.8537508" lon="-5.1928251">
        <ele>1919.5</ele>
        <time>2016-08-30T16:08:36Z</time>
      </trkpt>
      <trkpt lat="42.8537396" lon="-5.1925807">
        <ele>1920.4</ele>
        <time>2016-08-30T16:08:38Z</time>
      </trkpt>
      <trkpt lat="42.8538523" lon="-5.1923127">
        <ele>1921.0</ele>
        <time>2016-08-30T16:08:40Z</time>
      </trkpt>
      <trkpt lat="42.8540444" lon="-5.1921223">
        <ele>1921.7</ele>
        <time>2016-08-30T16:08:42Z</time>
      </trkpt>
      <trkpt lat="42.8543817" lon="-5.192223">
        <ele>1922.2</ele>
        <time>2016-08-30T16:08:45Z</time>
      </trkpt>
      <trkpt lat="42.8544497" lon="-5.1924865">
        <ele>1922.3</ele>
        <time>2016-08-30T16:08:47Z</time>
      </trkpt>
      <trkpt lat="42.8544221" lon="-5.1926755">
        <ele>1922.3</ele>
        <time>2016-08-30T16:08:49Z</time>
      </trkpt>
      <trkpt lat="42.8544065" lon="-5.1929521">
        <ele>1922.3</ele>
        <time>2016-08-30T16:08:52Z</time>
      </trkpt>
      <trkpt lat="42.8542579" lon="-5.1931347">
        <ele>1922.3</ele>
        <time>2016-08-30T16:08:55Z</time>
      </trkpt>
      <trkpt lat="42.8540882" lon="-5.1932176">
        <ele>1922.3</ele>
        <time>2016-08-30T16:08:58Z</time>
      </trkpt>
      <trkpt lat="42.853997" lon="-5.1932488">
        <ele>1922.6</ele>
        <time>2016-08-30T16:09:01Z</time>
      </trkpt>
      <trkpt lat="42.8538685" lon="-5.1933472">
        <ele>1923.7</ele>
        <time>2016-08-30T16:09:05Z</time>
      </trkpt>
      <trkpt lat="42.8537678" lon="-5.1934521">
        <ele>1924.0</ele>
        <time>2016-08-30T16:09:07Z</time>
      </trkpt>
      <trkpt lat="42.8537296" lon="-5.1936834">
        <ele>1924.3</ele>
        <time>2016-08-30T16:09:10Z</time>
      </trkpt>
      <trkpt lat="42.8537391" lon="-5.193869">
        <ele>1924.5</ele>
        <time>2016-08-30T16:09:13Z</time>
      </trkpt>
      <trkpt lat="42.8536554" lon="-5.1940305">
        <ele>1925.1</ele>
        <time>2016-08-30T16:09:18Z</time>
      </trkpt>
      <trkpt lat="42.8535209" lon="-5.1938697">
        <ele>1925.3</ele>
        <time>2016-08-30T16:09:20Z</time>
      </trkpt>
      <trkpt lat="42.8534891" lon="-5.1935954">
        <ele>1925.3</ele>
        <time>2016-08-30T16:09:22Z</time>
      </trkpt>
      <trkpt lat="42.8535912" lon="-5.1933581">
        <ele>1925.4</ele>
        <time>2016-08-30T16:09:24Z</time>
      </trkpt>
      <trkpt lat="42.8537216" lon="-5.1931628">
        <ele>1925.5</ele>
        <time>2016-08-30T16:09:26Z</time>
      </trkpt>
      <trkpt lat="42.8538792" lon="-5.1929697">
        <ele>1926.1</ele>
        <time>2016-08-30T16:09:28Z</time>
      </trkpt>
      <trkpt lat="42.854111" lon="-5.1928382">
        <ele>1929.6</ele>
        <time>2016-08-30T16:09:30Z</time>
      </trkpt>
      <trkpt lat="42.8544423" lon="-5.1929002">
        <ele>1934.7</ele>
        <time>2016-08-30T16:09:33Z</time>
      </trkpt>
      <trkpt lat="42.8545741" lon="-5.193102">
        <ele>1936.5</ele>
        <time>2016-08-30T16:09:35Z</time>
      </trkpt>
      <trkpt lat="42.8545795" lon="-5.1933169">
        <ele>1938.9</ele>
        <time>2016-08-30T16:09:38Z</time>
      </trkpt>
      <trkpt lat="42.8544428" lon="-5.1932897">
        <ele>1947.0</ele>
        <time>2016-08-30T16:09:41Z</time>
      </trkpt>
      <trkpt lat="42.8543339" lon="-5.1933094">
        <ele>1950.5</ele>
        <time>2016-08-30T16:09:44Z</time>
      </trkpt>
      <trkpt lat="42.8543348" lon="-5.1935468">
        <ele>1953.8</ele>
        <time>2016-08-30T16:09:47Z</time>
      </trkpt>
      <trkpt lat="42.8543446" lon="-5.1937771">
        <ele>1955.3</ele>
        <time>2016-08-30T16:09:49Z</time>
      </trkpt>
      <trkpt lat="42.8543793" lon="-5.1939593">
        <ele>1956.3</ele>
        <time>2016-08-30T16:09:51Z</time>
      </trkpt>
      <trkpt lat="42.8544693" lon="-5.1941912">
        <ele>1957.4</ele>
        <time>2016-08-30T16:09:54Z</time>
      </trkpt>
      <trkpt lat="42.8545014" lon="-5.1943894">
        <ele>1961.2</ele>
        <time>2016-08-30T16:09:57Z</time>
      </trkpt>
      <trkpt lat="42.8543653" lon="-5.1944906">
        <ele>1962.4</ele>
        <time>2016-08-30T16:10:00Z</time>
      </trkpt>
      <trkpt lat="42.8542593" lon="-5.1945004">
        <ele>1965.6</ele>
        <time>2016-08-30T16:10:02Z</time>
      </trkpt>
      <trkpt lat="42.8541643" lon="-5.1945272">
        <ele>1972.2</ele>
        <time>2016-08-30T16:10:04Z</time>
      </trkpt>
      <trkpt lat="42.8541105" lon="-5.1945213">
        <ele>1972.2</ele>
        <time>2016-08-30T16:10:05Z</time>
      </trkpt>
      <trkpt lat="42.8540537" lon="-5.1944851">
        <ele>1972.2</ele>
        <time>2016-08-30T16:10:06Z</time>
      </trkpt>
      <trkpt lat="42.8539933" lon="-5.1944226">
        <ele>1972.2</ele>
        <time>2016-08-30T16:10:07Z</time>
      </trkpt>
      <trkpt lat="42.8539457" lon="-5.1943119">
        <ele>1972.2</ele>
        <time>2016-08-30T16:10:08Z</time>
      </trkpt>
      <trkpt lat="42.8539208" lon="-5.1940469">
        <ele>1973.2</ele>
        <time>2016-08-30T16:10:10Z</time>
      </trkpt>
      <trkpt lat="42.8540348" lon="-5.1937835">
        <ele>1973.8</ele>
        <time>2016-08-30T16:10:12Z</time>
      </trkpt>
      <trkpt lat="42.8542225" lon="-5.1935591">
        <ele>1974.3</ele>
        <time>2016-08-30T16:10:14Z</time>
      </trkpt>
      <trkpt lat="42.8544275" lon="-5.1934846">
        <ele>1974.7</ele>
        <time>2016-08-30T16:10:16Z</time>
      </trkpt>
      <trkpt lat="42.8545998" lon="-5.1936125">
        <ele>1975.1</ele>
        <time>2016-08-30T16:10:18Z</time>
      </trkpt>
      <trkpt lat="42.8546184" lon="-5.193809">
        <ele>1976.3</ele>
        <time>2016-08-30T16:10:20Z</time>
      </trkpt>
      <trkpt lat="42.8544662" lon="-5.1939029">
        <ele>1978.1</ele>
        <time>2016-08-30T16:10:23Z</time>
      </trkpt>
      <trkpt lat="42.8543588" lon="-5.1937078">
        <ele>1979.6</ele>
        <time>2016-08-30T16:10:25Z</time>
      </trkpt>
      <trkpt lat="42.8543854" lon="-5.1934028">
        <ele>1980.8</ele>
        <time>2016-08-30T16:10:27Z</time>
      </trkpt>
      <trkpt lat="42.8545578" lon="-5.1931694">
        <ele>1981.6</ele>
        <time>2016-08-30T16:10:29Z</time>
      </trkpt>
      <trkpt lat="42.8547737" lon="-5.1930167">
        <ele>1982.0</ele>
        <time>2016-08-30T16:10:31Z</time>
      </trkpt>
      <trkpt lat="42.8550156" lon="-5.1929847">
        <ele>1982.5</ele>
        <time>2016-08-30T16:10:33Z</time>
      </trkpt>
      <trkpt lat="42.8552222" lon="-5.1931102">
        <ele>1984.0</ele>
        <time>2016-08-30T16:10:35Z</time>
      </trkpt>
      <trkpt lat="42.8553093" lon="-5.1933187">
        <ele>1984.6</ele>
        <time>2016-08-30T16:10:37Z</time>
      </trkpt>
      <trkpt lat="42.8552544" lon="-5.1935276">
        <ele>1987.8</ele>
        <time>2016-08-30T16:10:40Z</time>
      </trkpt>
      <trkpt lat="42.8550575" lon="-5.1934741">
        <ele>1992.7</ele>
        <time>2016-08-30T16:10:43Z</time>
      </trkpt>
      <trkpt lat="42.854991" lon="-5.1932227">
        <ele>1997.6</ele>
        <time>2016-08-30T16:10:45Z</time>
      </trkpt>
      <trkpt lat="42.8549973" lon="-5.1929409">
        <ele>2000.1</ele>
        <time>2016-08-30T16:10:47Z</time>
      </trkpt>
      <trkpt lat="42.8549626" lon="-5.1927254">
        <ele>2001.1</ele>
        <time>2016-08-30T16:10:49Z</time>
      </trkpt>
      <trkpt lat="42.8548782" lon="-5.1925786">
        <ele>2002.4</ele>
        <time>2016-08-30T16:10:51Z</time>
      </trkpt>
      <trkpt lat="42.8547715" lon="-5.1925839">
        <ele>2003.8</ele>
        <time>2016-08-30T16:10:53Z</time>
      </trkpt>
      <trkpt lat="42.8547553" lon="-5.1927198">
        <ele>2004.3</ele>
        <time>2016-08-30T16:10:55Z</time>
      </trkpt>
      <trkpt lat="42.8548671" lon="-5.1928748">
        <ele>2006.3</ele>
        <time>2016-08-30T16:10:57Z</time>
      </trkpt>
      <trkpt lat="42.8550962" lon="-5.1929371">
        <ele>2012.7</ele>
        <time>2016-08-30T16:10:59Z</time>
      </trkpt>
      <trkpt lat="42.8552245" lon="-5.1929284">
        <ele>2020.2</ele>
        <time>2016-08-30T16:11:00Z</time>
      </trkpt>
      <trkpt lat="42.8553572" lon="-5.1928561">
        <ele>2020.2</ele>
        <time>2016-08-30T16:11:01Z</time>
      </trkpt>
      <trkpt lat="42.8554584" lon="-5.1927238">
        <ele>2020.2</ele>
        <time>2016-08-30T16:11:02Z</time>
      </trkpt>
      <trkpt lat="42.855521" lon="-5.1925704">
        <ele>2020.2</ele>
        <time>2016-08-30T16:11:03Z</time>
      </trkpt>
      <trkpt lat="42.8555421" lon="-5.1924291">
        <ele>2020.2</ele>
        <time>2016-08-30T16:11:04Z</time>
      </trkpt>
      <trkpt lat="42.8554621" lon="-5.1922127">
        <ele>2023.3</ele>
        <time>2016-08-30T16:11:06Z</time>
      </trkpt>
      <trkpt lat="42.8553587" lon="-5.1921498">
        <ele>2027.2</ele>
        <time>2016-08-30T16:11:08Z</time>
      </trkpt>
      <trkpt lat="42.8552667" lon="-5.192189">
        <ele>2029.4</ele>
        <time>2016-08-30T16:11:10Z</time>
      </trkpt>
      <trkpt lat="42.8552568" lon="-5.1923144">
        <ele>2030.6</ele>
        <time>2016-08-30T16:11:12Z</time>
      </trkpt>
      <trkpt lat="42.8553297" lon="-5.1924796">
        <ele>2030.9</ele>
        <time>2016-08-30T16:11:14Z</time>
      </trkpt>
      <trkpt lat="42.8553283" lon="-5.1926774">
        <ele>2032.3</ele>
        <time>2016-08-30T16:11:17Z</time>
      </trkpt>
      <trkpt lat="42.8551643" lon="-5.1925436">
        <ele>2036.2</ele>
        <time>2016-08-30T16:11:20Z</time>
      </trkpt>
      <trkpt lat="42.8551693" lon="-5.1922174">
        <ele>2037.9</ele>
        <time>2016-08-30T16:11:22Z</time>
      </trkpt>
      <trkpt lat="42.8552708" lon="-5.1918937">
        <ele>2038.6</ele>
        <time>2016-08-30T16:11:24Z</time>
      </trkpt>
      <trkpt lat="42.8553091" lon="-5.1916116">
        <ele>2040.2</ele>
        <time>2016-08-30T16:11:26Z</time>
      </trkpt>
      <trkpt lat="42.8552335" lon="-5.191401">
        <ele>2042.0</ele>
        <time>2016-08-30T16:11:28Z</time>
      </trkpt>
      <trkpt lat="42.8551079" lon="-5.1913123">
        <ele>2043.2</ele>
        <time>2016-08-30T16:11:30Z</time>
      </trkpt>
      <trkpt lat="42.8549844" lon="-5.1913653">
        <ele>2044.4</ele>
        <time>2016-08-30T16:11:32Z</time>
      </trkpt>
      <trkpt lat="42.8549346" lon="-5.1914764">
        <ele>2045.3</ele>
        <time>2016-08-30T16:11:34Z</time>
      </trkpt>
      <trkpt lat="42.8549771" lon="-5.1917418">
        <ele>2046.9</ele>
        <time>2016-08-30T16:11:37Z</time>
      </trkpt>
      <trkpt lat="42.8550342" lon="-5.1919565">
        <ele>2048.5</ele>
        <time>2016-08-30T16:11:39Z</time>
      </trkpt>
      <trkpt lat="42.8551196" lon="-5.1921399">
        <ele>2049.3</ele>
        <time>2016-08-30T16:11:42Z</time>
      </trkpt>
      <trkpt lat="42.8551804" lon="-5.1923448">
        <ele>2049.8</ele>
        <time>2016-08-30T16:11:45Z</time>
      </trkpt>
      <trkpt lat="42.8552114" lon="-5.1925964">
        <ele>2049.9</ele>
        <time>2016-08-30T16:11:48Z</time>
      </trkpt>
      <trkpt lat="42.8552599" lon="-5.1928033">
        <ele>2049.9</ele>
        <time>2016-08-30T16:11:51Z</time>
      </trkpt>
      <trkpt lat="42.8552392" lon="-5.192998">
        <ele>2049.9</ele>
        <time>2016-08-30T16:11:53Z</time>
      </trkpt>
      <trkpt lat="42.8551938" lon="-5.1931771">
        <ele>2049.9</ele>
        <time>2016-08-30T16:11:55Z</time>
      </trkpt>
      <trkpt lat="42.855097" lon="-5.1933982">
        <ele>2049.9</ele>
        <time>2016-08-30T16:11:58Z</time>
      </trkpt>
      <trkpt lat="42.8550143" lon="-5.1935663">
        <ele>2049.9</ele>
        <time>2016-08-30T16:12:00Z</time>
      </trkpt>
      <trkpt lat="42.8548991" lon="-5.1937704">
        <ele>2049.9</ele>
        <time>2016-08-30T16:12:03Z</time>
      </trkpt>
      <trkpt lat="42.8548124" lon="-5.1939673">
        <ele>2049.9</ele>
        <time>2016-08-30T16:12:06Z</time>
      </trkpt>
      <trkpt lat="42.8547307" lon="-5.1941165">
        <ele>2049.9</ele>
        <time>2016-08-30T16:12:09Z</time>
      </trkpt>
      <trkpt lat="42.8546063" lon="-5.1942755">
        <ele>2049.6</ele>
        <time>2016-08-30T16:12:13Z</time>
      </trkpt>
      <trkpt lat="42.8545348" lon="-5.1944898">
        <ele>2047.6</ele>
        <time>2016-08-30T16:12:16Z</time>
      </trkpt>
      <trkpt lat="42.8544979" lon="-5.1947165">
        <ele>2045.0</ele>
        <time>2016-08-30T16:12:19Z</time>
      </trkpt>
      <trkpt lat="42.8544763" lon="-5.1949394">
        <ele>2043.0</ele>
        <time>2016-08-30T16:12:22Z</time>
      </trkpt>
      <trkpt lat="42.8544737" lon="-5.1952289">
        <ele>2036.4</ele>
        <time>2016-08-30T16:12:25Z</time>
      </trkpt>
      <trkpt lat="42.8544663" lon="-5.1954408">
        <ele>2034.2</ele>
        <time>2016-08-30T16:12:27Z</time>
      </trkpt>
      <trkpt lat="42.8545453" lon="-5.1956378">
        <ele>2031.9</ele>
        <time>2016-08-30T16:12:30Z</time>
      </trkpt>
      <trkpt lat="42.8545645" lon="-5.1958761">
        <ele>2029.8</ele>
        <time>2016-08-30T16:12:33Z</time>
      </trkpt>
      <trkpt lat="42.8545532" lon="-5.1960636">
        <ele>2029.1</ele>
        <time>2016-08-30T16:12:35Z</time>
      </trkpt>
      <trkpt lat="42.8545647" lon="-5.1962494">
        <ele>2027.2</ele>
        <time>2016-08-30T16:12:37Z</time>
      </trkpt>
      <trkpt lat="42.854563" lon="-5.1964614">
        <ele>2024.8</ele>
        <time>2016-08-30T16:12:39Z</time>
      </trkpt>
      <trkpt lat="42.8545218" lon="-5.1967137">
        <ele>2023.6</ele>
        <time>2016-08-30T16:12:41Z</time>
      </trkpt>
      <trkpt lat="42.8545025" lon="-5.1969336">
        <ele>2020.9</ele>
        <time>2016-08-30T16:12:43Z</time>
      </trkpt>
      <trkpt lat="42.8544832" lon="-5.1971711">
        <ele>2015.0</ele>
        <time>2016-08-30T16:12:45Z</time>
      </trkpt>
      <trkpt lat="42.8544652" lon="-5.1974307">
        <ele>2009.4</ele>
        <time>2016-08-30T16:12:47Z</time>
      </trkpt>
      <trkpt lat="42.8544447" lon="-5.1976908">
        <ele>2004.7</ele>
        <time>2016-08-30T16:12:49Z</time>
      </trkpt>
      <trkpt lat="42.8544437" lon="-5.19796">
        <ele>2002.2</ele>
        <time>2016-08-30T16:12:51Z</time>
      </trkpt>
      <trkpt lat="42.8544146" lon="-5.1982201">
        <ele>2001.3</ele>
        <time>2016-08-30T16:12:53Z</time>
      </trkpt>
      <trkpt lat="42.8543776" lon="-5.1984663">
        <ele>1997.9</ele>
        <time>2016-08-30T16:12:55Z</time>
      </trkpt>
      <trkpt lat="42.8543694" lon="-5.1987326">
        <ele>1996.2</ele>
        <time>2016-08-30T16:12:57Z</time>
      </trkpt>
      <trkpt lat="42.8543638" lon="-5.1989953">
        <ele>1995.1</ele>
        <time>2016-08-30T16:12:59Z</time>
      </trkpt>
      <trkpt lat="42.8543541" lon="-5.1992326">
        <ele>1994.7</ele>
        <time>2016-08-30T16:13:01Z</time>
      </trkpt>
      <trkpt lat="42.8543772" lon="-5.1994898">
        <ele>1994.0</ele>
        <time>2016-08-30T16:13:03Z</time>
      </trkpt>
      <trkpt lat="42.8543894" lon="-5.1997296">
        <ele>1992.3</ele>
        <time>2016-08-30T16:13:05Z</time>
      </trkpt>
      <trkpt lat="42.8544519" lon="-5.1999178">
        <ele>1990.4</ele>
        <time>2016-08-30T16:13:07Z</time>
      </trkpt>
      <trkpt lat="42.8545184" lon="-5.2000977">
        <ele>1988.9</ele>
        <time>2016-08-30T16:13:09Z</time>
      </trkpt>
      <trkpt lat="42.8545844" lon="-5.2002856">
        <ele>1985.9</ele>
        <time>2016-08-30T16:13:11Z</time>
      </trkpt>
      <trkpt lat="42.8546445" lon="-5.2004647">
        <ele>1981.8</ele>
        <time>2016-08-30T16:13:13Z</time>
      </trkpt>
      <trkpt lat="42.8547011" lon="-5.2006527">
        <ele>1978.3</ele>
        <time>2016-08-30T16:13:15Z</time>
      </trkpt>
      <trkpt lat="42.8547152" lon="-5.2008502">
        <ele>1974.1</ele>
        <time>2016-08-30T16:13:17Z</time>
      </trkpt>
      <trkpt lat="42.8547637" lon="-5.2010989">
        <ele>1967.1</ele>
        <time>2016-08-30T16:13:20Z</time>
      </trkpt>
      <trkpt lat="42.8547994" lon="-5.20132">
        <ele>1961.9</ele>
        <time>2016-08-30T16:13:22Z</time>
      </trkpt>
      <trkpt lat="42.8548336" lon="-5.2015512">
        <ele>1956.6</ele>
        <time>2016-08-30T16:13:24Z</time>
      </trkpt>
      <trkpt lat="42.8549077" lon="-5.2017554">
        <ele>1951.6</ele>
        <time>2016-08-30T16:13:26Z</time>
      </trkpt>
      <trkpt lat="42.8549955" lon="-5.2019543">
        <ele>1946.3</ele>
        <time>2016-08-30T16:13:28Z</time>
      </trkpt>
      <trkpt lat="42.8550903" lon="-5.2021481">
        <ele>1941.5</ele>
        <time>2016-08-30T16:13:30Z</time>
      </trkpt>
      <trkpt lat="42.8551662" lon="-5.2023634">
        <ele>1937.8</ele>
        <time>2016-08-30T16:13:32Z</time>
      </trkpt>
      <trkpt lat="42.8552532" lon="-5.202581">
        <ele>1933.8</ele>
        <time>2016-08-30T16:13:34Z</time>
      </trkpt>
      <trkpt lat="42.8553324" lon="-5.2027976">
        <ele>1931.3</ele>
        <time>2016-08-30T16:13:36Z</time>
      </trkpt>
      <trkpt lat="42.8554025" lon="-5.2030014">
        <ele>1928.8</ele>
        <time>2016-08-30T16:13:38Z</time>
      </trkpt>
      <trkpt lat="42.8554773" lon="-5.2032211">
        <ele>1924.1</ele>
        <time>2016-08-30T16:13:40Z</time>
      </trkpt>
      <trkpt lat="42.8555353" lon="-5.2034383">
        <ele>1918.6</ele>
        <time>2016-08-30T16:13:42Z</time>
      </trkpt>
      <trkpt lat="42.8555623" lon="-5.2036654">
        <ele>1914.2</ele>
        <time>2016-08-30T16:13:44Z</time>
      </trkpt>
      <trkpt lat="42.8555876" lon="-5.2038738">
        <ele>1907.2</ele>
        <time>2016-08-30T16:13:46Z</time>
      </trkpt>
      <trkpt lat="42.8556217" lon="-5.2040701">
        <ele>1901.9</ele>
        <time>2016-08-30T16:13:48Z</time>
      </trkpt>
      <trkpt lat="42.8556303" lon="-5.2042668">
        <ele>1897.7</ele>
        <time>2016-08-30T16:13:50Z</time>
      </trkpt>
      <trkpt lat="42.8556299" lon="-5.2044735">
        <ele>1892.2</ele>
        <time>2016-08-30T16:13:52Z</time>
      </trkpt>
      <trkpt lat="42.8556021" lon="-5.2047464">
        <ele>1882.2</ele>
        <time>2016-08-30T16:13:55Z</time>
      </trkpt>
      <trkpt lat="42.8555803" lon="-5.2049584">
        <ele>1880.0</ele>
        <time>2016-08-30T16:13:57Z</time>
      </trkpt>
      <trkpt lat="42.8555672" lon="-5.2051707">
        <ele>1879.0</ele>
        <time>2016-08-30T16:13:59Z</time>
      </trkpt>
      <trkpt lat="42.8555425" lon="-5.2054491">
        <ele>1877.3</ele>
        <time>2016-08-30T16:14:02Z</time>
      </trkpt>
      <trkpt lat="42.8555128" lon="-5.2056498">
        <ele>1874.7</ele>
        <time>2016-08-30T16:14:04Z</time>
      </trkpt>
      <trkpt lat="42.8554931" lon="-5.2058466">
        <ele>1871.6</ele>
        <time>2016-08-30T16:14:06Z</time>
      </trkpt>
      <trkpt lat="42.8554574" lon="-5.2060255">
        <ele>1870.0</ele>
        <time>2016-08-30T16:14:08Z</time>
      </trkpt>
      <trkpt lat="42.8553775" lon="-5.2062015">
        <ele>1867.6</ele>
        <time>2016-08-30T16:14:10Z</time>
      </trkpt>
      <trkpt lat="42.8552855" lon="-5.2063539">
        <ele>1862.8</ele>
        <time>2016-08-30T16:14:12Z</time>
      </trkpt>
      <trkpt lat="42.8551352" lon="-5.2065381">
        <ele>1854.3</ele>
        <time>2016-08-30T16:14:15Z</time>
      </trkpt>
      <trkpt lat="42.8550127" lon="-5.2066762">
        <ele>1847.6</ele>
        <time>2016-08-30T16:14:17Z</time>
      </trkpt>
      <trkpt lat="42.8548808" lon="-5.2067932">
        <ele>1842.8</ele>
        <time>2016-08-30T16:14:19Z</time>
      </trkpt>
      <trkpt lat="42.854749" lon="-5.2068844">
        <ele>1837.3</ele>
        <time>2016-08-30T16:14:21Z</time>
      </trkpt>
      <trkpt lat="42.8546122" lon="-5.2069698">
        <ele>1831.7</ele>
        <time>2016-08-30T16:14:23Z</time>
      </trkpt>
      <trkpt lat="42.8544743" lon="-5.2070806">
        <ele>1826.5</ele>
        <time>2016-08-30T16:14:25Z</time>
      </trkpt>
      <trkpt lat="42.8543379" lon="-5.2071879">
        <ele>1820.7</ele>
        <time>2016-08-30T16:14:27Z</time>
      </trkpt>
      <trkpt lat="42.8542041" lon="-5.207305">
        <ele>1816.1</ele>
        <time>2016-08-30T16:14:29Z</time>
      </trkpt>
      <trkpt lat="42.8540885" lon="-5.2074258">
        <ele>1813.1</ele>
        <time>2016-08-30T16:14:31Z</time>
      </trkpt>
      <trkpt lat="42.8539406" lon="-5.2075291">
        <ele>1810.0</ele>
        <time>2016-08-30T16:14:33Z</time>
      </trkpt>
      <trkpt lat="42.8538292" lon="-5.2076414">
        <ele>1805.1</ele>
        <time>2016-08-30T16:14:35Z</time>
      </trkpt>
      <trkpt lat="42.8537172" lon="-5.2077679">
        <ele>1800.2</ele>
        <time>2016-08-30T16:14:37Z</time>
      </trkpt>
      <trkpt lat="42.8535774" lon="-5.2078976">
        <ele>1795.6</ele>
        <time>2016-08-30T16:14:39Z</time>
      </trkpt>
      <trkpt lat="42.8534349" lon="-5.2080877">
        <ele>1787.9</ele>
        <time>2016-08-30T16:14:42Z</time>
      </trkpt>
      <trkpt lat="42.8532719" lon="-5.2082387">
        <ele>1782.1</ele>
        <time>2016-08-30T16:14:45Z</time>
      </trkpt>
      <trkpt lat="42.8531242" lon="-5.2083783">
        <ele>1772.8</ele>
        <time>2016-08-30T16:14:48Z</time>
      </trkpt>
      <trkpt lat="42.8530019" lon="-5.2084778">
        <ele>1767.4</ele>
        <time>2016-08-30T16:14:50Z</time>
      </trkpt>
      <trkpt lat="42.852869" lon="-5.2085601">
        <ele>1763.4</ele>
        <time>2016-08-30T16:14:52Z</time>
      </trkpt>
      <trkpt lat="42.8525782" lon="-5.2087131">
        <ele>1749.8</ele>
        <time>2016-08-30T16:14:57Z</time>
      </trkpt>
      <trkpt lat="42.852413" lon="-5.2088369">
        <ele>1736.9</ele>
        <time>2016-08-30T16:15:00Z</time>
      </trkpt>
      <trkpt lat="42.852273" lon="-5.2089049">
        <ele>1733.2</ele>
        <time>2016-08-30T16:15:02Z</time>
      </trkpt>
      <trkpt lat="42.8521479" lon="-5.2089792">
        <ele>1713.1</ele>
        <time>2016-08-30T16:15:04Z</time>
      </trkpt>
      <trkpt lat="42.8520902" lon="-5.209005">
        <ele>1713.1</ele>
        <time>2016-08-30T16:15:05Z</time>
      </trkpt>
      <trkpt lat="42.8520295" lon="-5.2090285">
        <ele>1713.1</ele>
        <time>2016-08-30T16:15:06Z</time>
      </trkpt>
      <trkpt lat="42.8518991" lon="-5.2090834">
        <ele>1713.1</ele>
        <time>2016-08-30T16:15:08Z</time>
      </trkpt>
      <trkpt lat="42.8517857" lon="-5.2091257">
        <ele>1706.2</ele>
        <time>2016-08-30T16:15:10Z</time>
      </trkpt>
      <trkpt lat="42.8516276" lon="-5.2092171">
        <ele>1699.9</ele>
        <time>2016-08-30T16:15:13Z</time>
      </trkpt>
      <trkpt lat="42.8513924" lon="-5.2093314">
        <ele>1691.0</ele>
        <time>2016-08-30T16:15:17Z</time>
      </trkpt>
      <trkpt lat="42.8512634" lon="-5.209399">
        <ele>1689.4</ele>
        <time>2016-08-30T16:15:19Z</time>
      </trkpt>
      <trkpt lat="42.8510892" lon="-5.2095284">
        <ele>1683.7</ele>
        <time>2016-08-30T16:15:22Z</time>
      </trkpt>
      <trkpt lat="42.8509757" lon="-5.209634">
        <ele>1678.2</ele>
        <time>2016-08-30T16:15:24Z</time>
      </trkpt>
      <trkpt lat="42.8508158" lon="-5.2098004">
        <ele>1674.2</ele>
        <time>2016-08-30T16:15:27Z</time>
      </trkpt>
      <trkpt lat="42.8506793" lon="-5.2099044">
        <ele>1669.6</ele>
        <time>2016-08-30T16:15:29Z</time>
      </trkpt>
      <trkpt lat="42.8505699" lon="-5.2100217">
        <ele>1663.1</ele>
        <time>2016-08-30T16:15:31Z</time>
      </trkpt>
      <trkpt lat="42.850469" lon="-5.2101654">
        <ele>1657.2</ele>
        <time>2016-08-30T16:15:33Z</time>
      </trkpt>
      <trkpt lat="42.8503582" lon="-5.2102773">
        <ele>1650.3</ele>
        <time>2016-08-30T16:15:35Z</time>
      </trkpt>
      <trkpt lat="42.8502431" lon="-5.2103833">
        <ele>1648.5</ele>
        <time>2016-08-30T16:15:37Z</time>
      </trkpt>
      <trkpt lat="42.8500836" lon="-5.2105518">
        <ele>1643.1</ele>
        <time>2016-08-30T16:15:40Z</time>
      </trkpt>
      <trkpt lat="42.8499198" lon="-5.2107244">
        <ele>1637.4</ele>
        <time>2016-08-30T16:15:43Z</time>
      </trkpt>
      <trkpt lat="42.8498143" lon="-5.2108643">
        <ele>1632.5</ele>
        <time>2016-08-30T16:15:45Z</time>
      </trkpt>
      <trkpt lat="42.8497079" lon="-5.2110321">
        <ele>1628.4</ele>
        <time>2016-08-30T16:15:47Z</time>
      </trkpt>
      <trkpt lat="42.849619" lon="-5.2112432">
        <ele>1620.3</ele>
        <time>2016-08-30T16:15:50Z</time>
      </trkpt>
      <trkpt lat="42.8495049" lon="-5.2114472">
        <ele>1611.3</ele>
        <time>2016-08-30T16:15:53Z</time>
      </trkpt>
      <trkpt lat="42.8494264" lon="-5.2116166">
        <ele>1607.0</ele>
        <time>2016-08-30T16:15:55Z</time>
      </trkpt>
      <trkpt lat="42.8493495" lon="-5.2118603">
        <ele>1600.7</ele>
        <time>2016-08-30T16:15:58Z</time>
      </trkpt>
      <trkpt lat="42.8492693" lon="-5.2120348">
        <ele>1598.0</ele>
        <time>2016-08-30T16:16:00Z</time>
      </trkpt>
      <trkpt lat="42.8491698" lon="-5.2122528">
        <ele>1595.6</ele>
        <time>2016-08-30T16:16:03Z</time>
      </trkpt>
      <trkpt lat="42.8490596" lon="-5.2124563">
        <ele>1594.8</ele>
        <time>2016-08-30T16:16:06Z</time>
      </trkpt>
      <trkpt lat="42.8489618" lon="-5.2126597">
        <ele>1592.4</ele>
        <time>2016-08-30T16:16:09Z</time>
      </trkpt>
      <trkpt lat="42.8488589" lon="-5.2128472">
        <ele>1588.3</ele>
        <time>2016-08-30T16:16:12Z</time>
      </trkpt>
      <trkpt lat="42.8488001" lon="-5.2130406">
        <ele>1585.7</ele>
        <time>2016-08-30T16:16:15Z</time>
      </trkpt>
      <trkpt lat="42.8487547" lon="-5.2132341">
        <ele>1584.9</ele>
        <time>2016-08-30T16:16:17Z</time>
      </trkpt>
      <trkpt lat="42.8487102" lon="-5.2134129">
        <ele>1583.5</ele>
        <time>2016-08-30T16:16:19Z</time>
      </trkpt>
      <trkpt lat="42.848653" lon="-5.2136685">
        <ele>1581.8</ele>
        <time>2016-08-30T16:16:22Z</time>
      </trkpt>
      <trkpt lat="42.8485771" lon="-5.2139215">
        <ele>1578.0</ele>
        <time>2016-08-30T16:16:25Z</time>
      </trkpt>
      <trkpt lat="42.848496" lon="-5.214099">
        <ele>1576.2</ele>
        <time>2016-08-30T16:16:27Z</time>
      </trkpt>
      <trkpt lat="42.8484357" lon="-5.2142709">
        <ele>1574.8</ele>
        <time>2016-08-30T16:16:29Z</time>
      </trkpt>
      <trkpt lat="42.8483491" lon="-5.2145183">
        <ele>1571.8</ele>
        <time>2016-08-30T16:16:32Z</time>
      </trkpt>
      <trkpt lat="42.8482808" lon="-5.2147007">
        <ele>1571.0</ele>
        <time>2016-08-30T16:16:34Z</time>
      </trkpt>
      <trkpt lat="42.8482059" lon="-5.2149388">
        <ele>1570.2</ele>
        <time>2016-08-30T16:16:37Z</time>
      </trkpt>
      <trkpt lat="42.8481615" lon="-5.2151253">
        <ele>1569.8</ele>
        <time>2016-08-30T16:16:39Z</time>
      </trkpt>
      <trkpt lat="42.8481428" lon="-5.2153355">
        <ele>1569.6</ele>
        <time>2016-08-30T16:16:41Z</time>
      </trkpt>
      <trkpt lat="42.8481616" lon="-5.2155654">
        <ele>1569.3</ele>
        <time>2016-08-30T16:16:44Z</time>
      </trkpt>
      <trkpt lat="42.8481848" lon="-5.2157853">
        <ele>1567.2</ele>
        <time>2016-08-30T16:16:47Z</time>
      </trkpt>
      <trkpt lat="42.8481679" lon="-5.2159681">
        <ele>1564.6</ele>
        <time>2016-08-30T16:16:49Z</time>
      </trkpt>
      <trkpt lat="42.8481191" lon="-5.2161484">
        <ele>1562.0</ele>
        <time>2016-08-30T16:16:51Z</time>
      </trkpt>
      <trkpt lat="42.8480557" lon="-5.2163687">
        <ele>1558.0</ele>
        <time>2016-08-30T16:16:54Z</time>
      </trkpt>
      <trkpt lat="42.847975" lon="-5.2165878">
        <ele>1552.8</ele>
        <time>2016-08-30T16:16:57Z</time>
      </trkpt>
      <trkpt lat="42.847907" lon="-5.2168353">
        <ele>1548.8</ele>
        <time>2016-08-30T16:17:00Z</time>
      </trkpt>
      <trkpt lat="42.8478241" lon="-5.21706">
        <ele>1545.6</ele>
        <time>2016-08-30T16:17:03Z</time>
      </trkpt>
      <trkpt lat="42.8477301" lon="-5.2172901">
        <ele>1539.5</ele>
        <time>2016-08-30T16:17:06Z</time>
      </trkpt>
      <trkpt lat="42.8476708" lon="-5.2175059">
        <ele>1534.1</ele>
        <time>2016-08-30T16:17:09Z</time>
      </trkpt>
      <trkpt lat="42.8475897" lon="-5.2177258">
        <ele>1528.9</ele>
        <time>2016-08-30T16:17:12Z</time>
      </trkpt>
      <trkpt lat="42.8475359" lon="-5.2179267">
        <ele>1527.3</ele>
        <time>2016-08-30T16:17:14Z</time>
      </trkpt>
      <trkpt lat="42.8475041" lon="-5.2181081">
        <ele>1525.5</ele>
        <time>2016-08-30T16:17:16Z</time>
      </trkpt>
      <trkpt lat="42.8474717" lon="-5.2183681">
        <ele>1521.6</ele>
        <time>2016-08-30T16:17:19Z</time>
      </trkpt>
      <trkpt lat="42.8474595" lon="-5.2185744">
        <ele>1518.0</ele>
        <time>2016-08-30T16:17:21Z</time>
      </trkpt>
      <trkpt lat="42.8474661" lon="-5.2187999">
        <ele>1514.2</ele>
        <time>2016-08-30T16:17:23Z</time>
      </trkpt>
      <trkpt lat="42.8474797" lon="-5.2190093">
        <ele>1511.8</ele>
        <time>2016-08-30T16:17:25Z</time>
      </trkpt>
      <trkpt lat="42.8474799" lon="-5.2192353">
        <ele>1508.9</ele>
        <time>2016-08-30T16:17:27Z</time>
      </trkpt>
      <trkpt lat="42.8474827" lon="-5.2194865">
        <ele>1507.4</ele>
        <time>2016-08-30T16:17:29Z</time>
      </trkpt>
      <trkpt lat="42.8475583" lon="-5.2196791">
        <ele>1506.8</ele>
        <time>2016-08-30T16:17:31Z</time>
      </trkpt>
      <trkpt lat="42.8476782" lon="-5.2198911">
        <ele>1506.5</ele>
        <time>2016-08-30T16:17:33Z</time>
      </trkpt>
      <trkpt lat="42.847825" lon="-5.2200938">
        <ele>1504.2</ele>
        <time>2016-08-30T16:17:35Z</time>
      </trkpt>
      <trkpt lat="42.8479415" lon="-5.2202878">
        <ele>1502.6</ele>
        <time>2016-08-30T16:17:37Z</time>
      </trkpt>
      <trkpt lat="42.8480082" lon="-5.2204989">
        <ele>1501.3</ele>
        <time>2016-08-30T16:17:39Z</time>
      </trkpt>
      <trkpt lat="42.848085" lon="-5.2207359">
        <ele>1498.2</ele>
        <time>2016-08-30T16:17:41Z</time>
      </trkpt>
      <trkpt lat="42.8481508" lon="-5.220969">
        <ele>1493.4</ele>
        <time>2016-08-30T16:17:43Z</time>
      </trkpt>
      <trkpt lat="42.848178" lon="-5.2212057">
        <ele>1488.5</ele>
        <time>2016-08-30T16:17:45Z</time>
      </trkpt>
      <trkpt lat="42.8482623" lon="-5.2214368">
        <ele>1486.0</ele>
        <time>2016-08-30T16:17:47Z</time>
      </trkpt>
      <trkpt lat="42.8483228" lon="-5.2216188">
        <ele>1485.1</ele>
        <time>2016-08-30T16:17:49Z</time>
      </trkpt>
      <trkpt lat="42.8483526" lon="-5.221801">
        <ele>1484.8</ele>
        <time>2016-08-30T16:17:51Z</time>
      </trkpt>
      <trkpt lat="42.8484054" lon="-5.222009">
        <ele>1484.8</ele>
        <time>2016-08-30T16:17:53Z</time>
      </trkpt>
      <trkpt lat="42.8484832" lon="-5.2222228">
        <ele>1484.7</ele>
        <time>2016-08-30T16:17:55Z</time>
      </trkpt>
      <trkpt lat="42.8485566" lon="-5.2224425">
        <ele>1484.7</ele>
        <time>2016-08-30T16:17:57Z</time>
      </trkpt>
      <trkpt lat="42.8486097" lon="-5.2226718">
        <ele>1484.3</ele>
        <time>2016-08-30T16:17:59Z</time>
      </trkpt>
      <trkpt lat="42.8486512" lon="-5.2228941">
        <ele>1484.1</ele>
        <time>2016-08-30T16:18:01Z</time>
      </trkpt>
      <trkpt lat="42.8486878" lon="-5.2231254">
        <ele>1483.8</ele>
        <time>2016-08-30T16:18:03Z</time>
      </trkpt>
      <trkpt lat="42.8486939" lon="-5.2233399">
        <ele>1483.2</ele>
        <time>2016-08-30T16:18:05Z</time>
      </trkpt>
      <trkpt lat="42.8486902" lon="-5.223571">
        <ele>1482.8</ele>
        <time>2016-08-30T16:18:07Z</time>
      </trkpt>
      <trkpt lat="42.8487067" lon="-5.2238322">
        <ele>1482.4</ele>
        <time>2016-08-30T16:18:09Z</time>
      </trkpt>
      <trkpt lat="42.8486974" lon="-5.2240543">
        <ele>1481.8</ele>
        <time>2016-08-30T16:18:11Z</time>
      </trkpt>
      <trkpt lat="42.8487124" lon="-5.224273">
        <ele>1480.8</ele>
        <time>2016-08-30T16:18:13Z</time>
      </trkpt>
      <trkpt lat="42.8487244" lon="-5.2244942">
        <ele>1479.9</ele>
        <time>2016-08-30T16:18:15Z</time>
      </trkpt>
      <trkpt lat="42.8487115" lon="-5.2247163">
        <ele>1479.1</ele>
        <time>2016-08-30T16:18:17Z</time>
      </trkpt>
      <trkpt lat="42.8486978" lon="-5.2249443">
        <ele>1478.2</ele>
        <time>2016-08-30T16:18:19Z</time>
      </trkpt>
      <trkpt lat="42.8486715" lon="-5.2251496">
        <ele>1477.8</ele>
        <time>2016-08-30T16:18:21Z</time>
      </trkpt>
      <trkpt lat="42.8486455" lon="-5.2253405">
        <ele>1477.6</ele>
        <time>2016-08-30T16:18:23Z</time>
      </trkpt>
      <trkpt lat="42.8485914" lon="-5.2255319">
        <ele>1477.6</ele>
        <time>2016-08-30T16:18:26Z</time>
      </trkpt>
      <trkpt lat="42.8485793" lon="-5.225727">
        <ele>1477.6</ele>
        <time>2016-08-30T16:18:28Z</time>
      </trkpt>
      <trkpt lat="42.8486253" lon="-5.2259555">
        <ele>1477.6</ele>
        <time>2016-08-30T16:18:30Z</time>
      </trkpt>
      <trkpt lat="42.8487233" lon="-5.2261248">
        <ele>1477.6</ele>
        <time>2016-08-30T16:18:32Z</time>
      </trkpt>
      <trkpt lat="42.8488295" lon="-5.2262754">
        <ele>1475.7</ele>
        <time>2016-08-30T16:18:34Z</time>
      </trkpt>
      <trkpt lat="42.8489029" lon="-5.2264879">
        <ele>1472.6</ele>
        <time>2016-08-30T16:18:36Z</time>
      </trkpt>
      <trkpt lat="42.8489378" lon="-5.2267283">
        <ele>1469.0</ele>
        <time>2016-08-30T16:18:38Z</time>
      </trkpt>
      <trkpt lat="42.8489431" lon="-5.2269336">
        <ele>1463.7</ele>
        <time>2016-08-30T16:18:40Z</time>
      </trkpt>
      <trkpt lat="42.8489386" lon="-5.2271355">
        <ele>1460.7</ele>
        <time>2016-08-30T16:18:42Z</time>
      </trkpt>
      <trkpt lat="42.8489359" lon="-5.2273312">
        <ele>1457.6</ele>
        <time>2016-08-30T16:18:44Z</time>
      </trkpt>
      <trkpt lat="42.8489101" lon="-5.2275869">
        <ele>1452.3</ele>
        <time>2016-08-30T16:18:47Z</time>
      </trkpt>
      <trkpt lat="42.8488778" lon="-5.2277889">
        <ele>1451.1</ele>
        <time>2016-08-30T16:18:49Z</time>
      </trkpt>
      <trkpt lat="42.8488751" lon="-5.2280478">
        <ele>1449.1</ele>
        <time>2016-08-30T16:18:52Z</time>
      </trkpt>
      <trkpt lat="42.848848" lon="-5.2282996">
        <ele>1448.0</ele>
        <time>2016-08-30T16:18:55Z</time>
      </trkpt>
      <trkpt lat="42.8488162" lon="-5.2285651">
        <ele>1447.5</ele>
        <time>2016-08-30T16:18:57Z</time>
      </trkpt>
      <trkpt lat="42.8487748" lon="-5.2288034">
        <ele>1445.3</ele>
        <time>2016-08-30T16:19:00Z</time>
      </trkpt>
      <trkpt lat="42.8487621" lon="-5.2290418">
        <ele>1442.4</ele>
        <time>2016-08-30T16:19:03Z</time>
      </trkpt>
      <trkpt lat="42.848715" lon="-5.2292621">
        <ele>1441.2</ele>
        <time>2016-08-30T16:19:06Z</time>
      </trkpt>
      <trkpt lat="42.8486273" lon="-5.2295053">
        <ele>1440.5</ele>
        <time>2016-08-30T16:19:09Z</time>
      </trkpt>
      <trkpt lat="42.8485222" lon="-5.2296821">
        <ele>1439.3</ele>
        <time>2016-08-30T16:19:12Z</time>
      </trkpt>
      <trkpt lat="42.8484458" lon="-5.2299032">
        <ele>1435.1</ele>
        <time>2016-08-30T16:19:15Z</time>
      </trkpt>
      <trkpt lat="42.8483676" lon="-5.2300905">
        <ele>1429.7</ele>
        <time>2016-08-30T16:19:18Z</time>
      </trkpt>
      <trkpt lat="42.8482907" lon="-5.2303222">
        <ele>1425.8</ele>
        <time>2016-08-30T16:19:21Z</time>
      </trkpt>
      <trkpt lat="42.8482243" lon="-5.2305063">
        <ele>1424.2</ele>
        <time>2016-08-30T16:19:23Z</time>
      </trkpt>
      <trkpt lat="42.8481912" lon="-5.2306922">
        <ele>1421.0</ele>
        <time>2016-08-30T16:19:25Z</time>
      </trkpt>
      <trkpt lat="42.8481101" lon="-5.2309471">
        <ele>1416.5</ele>
        <time>2016-08-30T16:19:28Z</time>
      </trkpt>
      <trkpt lat="42.84805" lon="-5.2311438">
        <ele>1415.0</ele>
        <time>2016-08-30T16:19:30Z</time>
      </trkpt>
      <trkpt lat="42.8480059" lon="-5.2313354">
        <ele>1413.3</ele>
        <time>2016-08-30T16:19:32Z</time>
      </trkpt>
      <trkpt lat="42.8479718" lon="-5.2316095">
        <ele>1410.5</ele>
        <time>2016-08-30T16:19:35Z</time>
      </trkpt>
      <trkpt lat="42.8479611" lon="-5.2318641">
        <ele>1406.5</ele>
        <time>2016-08-30T16:19:37Z</time>
      </trkpt>
      <trkpt lat="42.8479546" lon="-5.2320913">
        <ele>1401.4</ele>
        <time>2016-08-30T16:19:39Z</time>
      </trkpt>
      <trkpt lat="42.8479628" lon="-5.2323282">
        <ele>1397.3</ele>
        <time>2016-08-30T16:19:42Z</time>
      </trkpt>
      <trkpt lat="42.8479669" lon="-5.2325124">
        <ele>1394.1</ele>
        <time>2016-08-30T16:19:44Z</time>
      </trkpt>
      <trkpt lat="42.8479563" lon="-5.2327556">
        <ele>1391.5</ele>
        <time>2016-08-30T16:19:46Z</time>
      </trkpt>
      <trkpt lat="42.8479414" lon="-5.232994">
        <ele>1388.1</ele>
        <time>2016-08-30T16:19:48Z</time>
      </trkpt>
      <trkpt lat="42.8479393" lon="-5.2332256">
        <ele>1383.9</ele>
        <time>2016-08-30T16:19:51Z</time>
      </trkpt>
      <trkpt lat="42.8479487" lon="-5.2334277">
        <ele>1380.2</ele>
        <time>2016-08-30T16:19:53Z</time>
      </trkpt>
      <trkpt lat="42.8479651" lon="-5.2336445">
        <ele>1375.8</ele>
        <time>2016-08-30T16:19:55Z</time>
      </trkpt>
      <trkpt lat="42.8479825" lon="-5.2338563">
        <ele>1372.2</ele>
        <time>2016-08-30T16:19:57Z</time>
      </trkpt>
      <trkpt lat="42.8480033" lon="-5.2340617">
        <ele>1368.3</ele>
        <time>2016-08-30T16:19:59Z</time>
      </trkpt>
      <trkpt lat="42.8480305" lon="-5.2342719">
        <ele>1364.1</ele>
        <time>2016-08-30T16:20:01Z</time>
      </trkpt>
      <trkpt lat="42.84807" lon="-5.234501">
        <ele>1359.9</ele>
        <time>2016-08-30T16:20:03Z</time>
      </trkpt>
      <trkpt lat="42.8481122" lon="-5.2347197">
        <ele>1356.5</ele>
        <time>2016-08-30T16:20:05Z</time>
      </trkpt>
      <trkpt lat="42.8481459" lon="-5.234931">
        <ele>1351.5</ele>
        <time>2016-08-30T16:20:07Z</time>
      </trkpt>
      <trkpt lat="42.8481395" lon="-5.2351485">
        <ele>1345.7</ele>
        <time>2016-08-30T16:20:09Z</time>
      </trkpt>
      <trkpt lat="42.8481697" lon="-5.2353718">
        <ele>1343.7</ele>
        <time>2016-08-30T16:20:11Z</time>
      </trkpt>
      <trkpt lat="42.8481738" lon="-5.2355807">
        <ele>1342.5</ele>
        <time>2016-08-30T16:20:13Z</time>
      </trkpt>
      <trkpt lat="42.8481894" lon="-5.2357835">
        <ele>1337.9</ele>
        <time>2016-08-30T16:20:15Z</time>
      </trkpt>
      <trkpt lat="42.8482142" lon="-5.2359748">
        <ele>1332.6</ele>
        <time>2016-08-30T16:20:17Z</time>
      </trkpt>
      <trkpt lat="42.8482225" lon="-5.2361783">
        <ele>1330.3</ele>
        <time>2016-08-30T16:20:19Z</time>
      </trkpt>
      <trkpt lat="42.8482396" lon="-5.2363947">
        <ele>1329.2</ele>
        <time>2016-08-30T16:20:21Z</time>
      </trkpt>
      <trkpt lat="42.8482714" lon="-5.2366559">
        <ele>1327.7</ele>
        <time>2016-08-30T16:20:23Z</time>
      </trkpt>
      <trkpt lat="42.8482816" lon="-5.236911">
        <ele>1323.7</ele>
        <time>2016-08-30T16:20:25Z</time>
      </trkpt>
      <trkpt lat="42.8482588" lon="-5.237143">
        <ele>1319.3</ele>
        <time>2016-08-30T16:20:27Z</time>
      </trkpt>
      <trkpt lat="42.848257" lon="-5.2373875">
        <ele>1315.1</ele>
        <time>2016-08-30T16:20:29Z</time>
      </trkpt>
      <trkpt lat="42.8482693" lon="-5.2376635">
        <ele>1312.0</ele>
        <time>2016-08-30T16:20:31Z</time>
      </trkpt>
      <trkpt lat="42.8482826" lon="-5.2378961">
        <ele>1308.3</ele>
        <time>2016-08-30T16:20:33Z</time>
      </trkpt>
      <trkpt lat="42.8483638" lon="-5.2380894">
        <ele>1303.3</ele>
        <time>2016-08-30T16:20:35Z</time>
      </trkpt>
      <trkpt lat="42.8484931" lon="-5.2382229">
        <ele>1298.9</ele>
        <time>2016-08-30T16:20:37Z</time>
      </trkpt>
      <trkpt lat="42.8486575" lon="-5.2383171">
        <ele>1296.5</ele>
        <time>2016-08-30T16:20:39Z</time>
      </trkpt>
      <trkpt lat="42.8487559" lon="-5.2384482">
        <ele>1293.0</ele>
        <time>2016-08-30T16:20:41Z</time>
      </trkpt>
      <trkpt lat="42.8487288" lon="-5.2386731">
        <ele>1290.1</ele>
        <time>2016-08-30T16:20:44Z</time>
      </trkpt>
      <trkpt lat="42.8485346" lon="-5.2386671">
        <ele>1287.6</ele>
        <time>2016-08-30T16:20:47Z</time>
      </trkpt>
      <trkpt lat="42.8484615" lon="-5.2384799">
        <ele>1285.6</ele>
        <time>2016-08-30T16:20:49Z</time>
      </trkpt>
      <trkpt lat="42.8484153" lon="-5.238263">
        <ele>1283.6</ele>
        <time>2016-08-30T16:20:51Z</time>
      </trkpt>
      <trkpt lat="42.8483446" lon="-5.2380742">
        <ele>1282.1</ele>
        <time>2016-08-30T16:20:53Z</time>
      </trkpt>
      <trkpt lat="42.8481909" lon="-5.2380395">
        <ele>1281.3</ele>
        <time>2016-08-30T16:20:55Z</time>
      </trkpt>
      <trkpt lat="42.8481113" lon="-5.238173">
        <ele>1281.0</ele>
        <time>2016-08-30T16:20:57Z</time>
      </trkpt>
      <trkpt lat="42.8481298" lon="-5.2383701">
        <ele>1280.8</ele>
        <time>2016-08-30T16:20:59Z</time>
      </trkpt>
      <trkpt lat="42.8482406" lon="-5.2384975">
        <ele>1280.8</ele>
        <time>2016-08-30T16:21:01Z</time>
      </trkpt>
      <trkpt lat="42.8484007" lon="-5.2385781">
        <ele>1280.8</ele>
        <time>2016-08-30T16:21:03Z</time>
      </trkpt>
      <trkpt lat="42.8485669" lon="-5.2386694">
        <ele>1280.8</ele>
        <time>2016-08-30T16:21:05Z</time>
      </trkpt>
      <trkpt lat="42.8486334" lon="-5.2388568">
        <ele>1280.8</ele>
        <time>2016-08-30T16:21:07Z</time>
      </trkpt>
      <trkpt lat="42.8485841" lon="-5.2390662">
        <ele>1280.7</ele>
        <time>2016-08-30T16:21:09Z</time>
      </trkpt>
      <trkpt lat="42.8485988" lon="-5.2393272">
        <ele>1280.3</ele>
        <time>2016-08-30T16:21:12Z</time>
      </trkpt>
      <trkpt lat="42.8486117" lon="-5.2396071">
        <ele>1280.0</ele>
        <time>2016-08-30T16:21:15Z</time>
      </trkpt>
      <trkpt lat="42.848603" lon="-5.23987">
        <ele>1279.3</ele>
        <time>2016-08-30T16:21:18Z</time>
      </trkpt>
      <trkpt lat="42.8485941" lon="-5.2401182">
        <ele>1278.7</ele>
        <time>2016-08-30T16:21:21Z</time>
      </trkpt>
      <trkpt lat="42.8486035" lon="-5.2403159">
        <ele>1278.2</ele>
        <time>2016-08-30T16:21:23Z</time>
      </trkpt>
      <trkpt lat="42.8486122" lon="-5.2405">
        <ele>1277.9</ele>
        <time>2016-08-30T16:21:25Z</time>
      </trkpt>
      <trkpt lat="42.8486022" lon="-5.2406995">
        <ele>1277.8</ele>
        <time>2016-08-30T16:21:27Z</time>
      </trkpt>
      <trkpt lat="42.8486101" lon="-5.2408891">
        <ele>1277.8</ele>
        <time>2016-08-30T16:21:29Z</time>
      </trkpt>
      <trkpt lat="42.8486192" lon="-5.2410808">
        <ele>1277.8</ele>
        <time>2016-08-30T16:21:31Z</time>
      </trkpt>
      <trkpt lat="42.8486126" lon="-5.2412808">
        <ele>1277.8</ele>
        <time>2016-08-30T16:21:33Z</time>
      </trkpt>
      <trkpt lat="42.8486347" lon="-5.2415617">
        <ele>1277.8</ele>
        <time>2016-08-30T16:21:36Z</time>
      </trkpt>
      <trkpt lat="42.8486428" lon="-5.2417563">
        <ele>1277.8</ele>
        <time>2016-08-30T16:21:38Z</time>
      </trkpt>
      <trkpt lat="42.8486579" lon="-5.2419516">
        <ele>1277.3</ele>
        <time>2016-08-30T16:21:40Z</time>
      </trkpt>
      <trkpt lat="42.8486822" lon="-5.2421386">
        <ele>1276.4</ele>
        <time>2016-08-30T16:21:42Z</time>
      </trkpt>
      <trkpt lat="42.8486908" lon="-5.2423424">
        <ele>1273.3</ele>
        <time>2016-08-30T16:21:44Z</time>
      </trkpt>
      <trkpt lat="42.8487166" lon="-5.2425241">
        <ele>1269.5</ele>
        <time>2016-08-30T16:21:46Z</time>
      </trkpt>
      <trkpt lat="42.8487483" lon="-5.2428111">
        <ele>1266.9</ele>
        <time>2016-08-30T16:21:49Z</time>
      </trkpt>
      <trkpt lat="42.8487308" lon="-5.2430831">
        <ele>1265.7</ele>
        <time>2016-08-30T16:21:52Z</time>
      </trkpt>
      <trkpt lat="42.8487356" lon="-5.2433519">
        <ele>1259.6</ele>
        <time>2016-08-30T16:21:55Z</time>
      </trkpt>
      <trkpt lat="42.8487637" lon="-5.243575">
        <ele>1256.7</ele>
        <time>2016-08-30T16:21:57Z</time>
      </trkpt>
      <trkpt lat="42.8488054" lon="-5.2437646">
        <ele>1255.0</ele>
        <time>2016-08-30T16:21:59Z</time>
      </trkpt>
      <trkpt lat="42.8488368" lon="-5.2439451">
        <ele>1252.7</ele>
        <time>2016-08-30T16:22:01Z</time>
      </trkpt>
      <trkpt lat="42.8488933" lon="-5.2441715">
        <ele>1250.5</ele>
        <time>2016-08-30T16:22:03Z</time>
      </trkpt>
      <trkpt lat="42.8489524" lon="-5.244403">
        <ele>1247.7</ele>
        <time>2016-08-30T16:22:05Z</time>
      </trkpt>
      <trkpt lat="42.8489939" lon="-5.2446188">
        <ele>1244.0</ele>
        <time>2016-08-30T16:22:07Z</time>
      </trkpt>
      <trkpt lat="42.8490441" lon="-5.2448297">
        <ele>1240.3</ele>
        <time>2016-08-30T16:22:09Z</time>
      </trkpt>
      <trkpt lat="42.8490821" lon="-5.2450569">
        <ele>1237.5</ele>
        <time>2016-08-30T16:22:11Z</time>
      </trkpt>
      <trkpt lat="42.8490891" lon="-5.2452609">
        <ele>1234.4</ele>
        <time>2016-08-30T16:22:13Z</time>
      </trkpt>
      <trkpt lat="42.8491121" lon="-5.2454648">
        <ele>1231.2</ele>
        <time>2016-08-30T16:22:15Z</time>
      </trkpt>
      <trkpt lat="42.84913" lon="-5.2456804">
        <ele>1227.8</ele>
        <time>2016-08-30T16:22:17Z</time>
      </trkpt>
      <trkpt lat="42.8491166" lon="-5.2458753">
        <ele>1223.9</ele>
        <time>2016-08-30T16:22:19Z</time>
      </trkpt>
      <trkpt lat="42.8491077" lon="-5.2460823">
        <ele>1219.2</ele>
        <time>2016-08-30T16:22:21Z</time>
      </trkpt>
      <trkpt lat="42.8490903" lon="-5.2462695">
        <ele>1215.4</ele>
        <time>2016-08-30T16:22:23Z</time>
      </trkpt>
      <trkpt lat="42.849063" lon="-5.2464684">
        <ele>1213.2</ele>
        <time>2016-08-30T16:22:25Z</time>
      </trkpt>
      <trkpt lat="42.8490297" lon="-5.2466825">
        <ele>1209.8</ele>
        <time>2016-08-30T16:22:27Z</time>
      </trkpt>
      <trkpt lat="42.8490005" lon="-5.2468776">
        <ele>1205.8</ele>
        <time>2016-08-30T16:22:29Z</time>
      </trkpt>
      <trkpt lat="42.8489591" lon="-5.2470768">
        <ele>1203.7</ele>
        <time>2016-08-30T16:22:31Z</time>
      </trkpt>
      <trkpt lat="42.8489334" lon="-5.2472901">
        <ele>1200.0</ele>
        <time>2016-08-30T16:22:33Z</time>
      </trkpt>
      <trkpt lat="42.848919" lon="-5.2474999">
        <ele>1195.9</ele>
        <time>2016-08-30T16:22:35Z</time>
      </trkpt>
      <trkpt lat="42.848912" lon="-5.2476989">
        <ele>1192.5</ele>
        <time>2016-08-30T16:22:37Z</time>
      </trkpt>
      <trkpt lat="42.8489206" lon="-5.2479197">
        <ele>1189.3</ele>
        <time>2016-08-30T16:22:39Z</time>
      </trkpt>
      <trkpt lat="42.848948" lon="-5.2481618">
        <ele>1185.6</ele>
        <time>2016-08-30T16:22:41Z</time>
      </trkpt>
      <trkpt lat="42.8489706" lon="-5.2483998">
        <ele>1182.4</ele>
        <time>2016-08-30T16:22:43Z</time>
      </trkpt>
      <trkpt lat="42.8489891" lon="-5.2486253">
        <ele>1180.4</ele>
        <time>2016-08-30T16:22:45Z</time>
      </trkpt>
      <trkpt lat="42.8490345" lon="-5.2488432">
        <ele>1176.9</ele>
        <time>2016-08-30T16:22:47Z</time>
      </trkpt>
      <trkpt lat="42.8490837" lon="-5.2490856">
        <ele>1173.2</ele>
        <time>2016-08-30T16:22:49Z</time>
      </trkpt>
      <trkpt lat="42.8491476" lon="-5.2493246">
        <ele>1169.9</ele>
        <time>2016-08-30T16:22:51Z</time>
      </trkpt>
      <trkpt lat="42.849199" lon="-5.24956">
        <ele>1166.7</ele>
        <time>2016-08-30T16:22:53Z</time>
      </trkpt>
      <trkpt lat="42.8492156" lon="-5.2497854">
        <ele>1164.1</ele>
        <time>2016-08-30T16:22:55Z</time>
      </trkpt>
      <trkpt lat="42.8491936" lon="-5.250002">
        <ele>1161.0</ele>
        <time>2016-08-30T16:22:57Z</time>
      </trkpt>
      <trkpt lat="42.8491432" lon="-5.2501862">
        <ele>1158.4</ele>
        <time>2016-08-30T16:22:59Z</time>
      </trkpt>
      <trkpt lat="42.8490232" lon="-5.2503691">
        <ele>1156.4</ele>
        <time>2016-08-30T16:23:02Z</time>
      </trkpt>
      <trkpt lat="42.8488645" lon="-5.2504582">
        <ele>1152.9</ele>
        <time>2016-08-30T16:23:05Z</time>
      </trkpt>
      <trkpt lat="42.8487346" lon="-5.2505247">
        <ele>1151.4</ele>
        <time>2016-08-30T16:23:08Z</time>
      </trkpt>
      <trkpt lat="42.8487527" lon="-5.2506125">
        <ele>1099.0</ele>
        <time>2016-08-30T16:24:49Z</time>
      </trkpt>
      <trkpt lat="42.8487325" lon="-5.2505543">
        <ele>1099.3</ele>
        <time>2016-08-30T16:25:06Z</time>
      </trkpt>
      <trkpt lat="42.848747" lon="-5.2505692">
        <ele>1099.3</ele>
        <time>2016-08-30T16:26:55Z</time>
      </trkpt>
      <trkpt lat="42.848747" lon="-5.2505692">
        <time>2016-08-30T16:26:55Z</time>
      </trkpt>
    </trkseg>
    <trkseg>
      <trkpt lat="42.848747" lon="-5.2505692">
        <time>2016-08-30T16:26:58Z</time>
      </trkpt>
    </trkseg>
  </trk>
</gpx>